[[{"header":{"parameterUnit":"m.s-1","parameterCategory":1,"la1":31.0,"la2":29.5877,"lo1":-88.7671,"lo2":-86.6584,"dy":0.0162,"dx":0.0185,"nx":115,"ny":88,"refTime":"2023-09-20T12:00:00:Z","depth":0,"parameterNumber":2,"parameterNumberName":"U-component_of_WINDS"},"data":[0.0,0.0,0.0,0.0,0.0,0.0,0.0,0.0,0.0,0.0,0.0,0.0,0.0,0.0,0.0,0.0,0.0,0.0,0.0,0.0,0.0,0.0,0.0,0.0,0.0,0.0,0.0,0.0,0.0,0.0,0.0,0.0,0.0,0.0,0.0,0.0,0.0,0.0,0.0,0.0,0.0,0.0,0.0,0.0,0.0,0.0,0.0,0.0,0.0,0.0,0.0,0.0,0.0,0.0,0.0,0.0,0.0,0.0,0.0,0.0,0.0,0.0,0.0,0.0,0.0,0.0,0.0,0.0,0.0,0.0,0.0,0.0,0.0,0.0,0.0,0.0,0.0,0.0,0.0,0.0,0.0,0.0,0.0,0.0,0.0,0.0,0.0,0.0,0.0,0.0,0.0,0.0,0.0,0.0,0.0,0.0,0.0,0.0,0.0,0.0,0.0,0.0,0.0,0.0,0.0,0.0,0.0,0.0,0.0,0.0,0.0,0.0,0.0,0.0,0.0,0.0,0.0,0.0,0.0,0.0,0.0,0.0,0.0,0.0,0.0,0.0,0.0,0.0,0.0,0.0,0.0,0.0,0.0,0.0,0.0,0.0,0.0,0.0,0.0,0.0,0.0,0.0,0.0,0.0,0.0,0.0,0.0,0.0,0.0,0.0,0.0,0.0,0.0,0.0,0.0,0.0,0.0,0.0,0.0,0.0,0.0,0.0,0.0,0.0,0.0,0.0,0.0,0.0,0.0,0.0,0.0,0.0,0.0,0.0,0.0,0.0,0.0,0.0,0.0,0.0,0.0,0.0,0.0,0.0,0.0,0.0,0.0,0.0,0.0,0.0,0.0,0.0,0.0,0.0,0.0,0.0,0.0,0.0,0.0,0.0,0.0,0.0,0.0,0.0,0.0,0.0,0.0,0.0,0.0,0.0,0.0,0.0,0.0,0.0,0.0,0.0,0.0,0.0,0.0,0.0,0.0,0.0,0.0,0.0,0.0,0.0,0.0,0.0,0.0,0.0,0.0,0.0,0.0,0.0,0.0,0.0,0.0,0.0,0.0,0.0,0.0,0.0,0.0,0.0,0.0,0.0,0.0,0.0,0.0,0.0,0.0,0.0,0.0,0.0,0.0,0.0,0.0,0.0,0.0,0.0,0.0,0.0,0.0,0.0,0.0,0.0,0.0,0.0,0.0,0.0,0.0,0.0,0.0,0.0,0.0,0.0,0.0,0.0,0.0,0.0,0.0,0.0,0.0,0.0,0.0,0.0,0.0,0.0,0.0,0.0,0.0,0.0,0.0,0.0,0.0,0.0,0.0,0.0,0.0,0.0,0.0,0.0,0.0,0.0,0.0,0.0,0.0,0.0,0.0,0.0,0.0,0.0,0.0,0.0,0.0,0.0,0.0,0.0,0.0,0.0,0.0,0.0,0.0,0.0,0.0,0.0,0.0,0.0,0.0,0.0,0.0,0.0,0.0,0.0,0.0,0.0,0.0,0.0,0.0,0.0,0.0,0.0,0.0,0.0,0.0,0.0,0.0,0.0,0.0,0.0,0.0,0.0,0.0,0.0,0.0,0.0,0.0,0.0,0.0,0.0,0.0,0.0,0.0,0.0,0.0,0.0,0.0,0.0,0.0,0.0,0.0,0.0,0.0,0.0,0.0,0.0,0.0,0.0,0.0,0.0,0.0,0.0,0.0,0.0,0.0,0.0,0.0,0.0,0.0,0.0,0.0,0.0,0.0,0.0,0.0,0.0,0.0,0.0,0.0,0.0,0.0,0.0,0.0,0.0,0.0,0.0,0.0,0.0,0.0,0.0,0.0,0.0,0.0,0.0,0.0,0.0,0.0,0.0,0.0,0.0,0.0,0.0,0.0,0.0,0.0,0.0,0.0,0.0,0.0,0.0,0.0,0.0,0.0,0.0,0.0,0.0,0.0,0.0,0.0,0.0,0.0,0.0,0.0,0.0,0.0,0.0,0.0,0.0,0.0,0.0,0.0,0.0,0.0,0.0,0.0,0.0,0.0,0.0,0.0,0.0,0.0,0.0,0.0,0.0,0.0,0.0,0.0,0.0,0.0,0.0,0.0,0.0,0.0,0.0,0.0,0.0,0.0,0.0,0.0,0.0,0.0,0.0,0.0,0.0,0.0,0.0,0.0,0.0,0.0,0.0,0.0,0.0,0.0,0.0,0.0,0.0,0.0,0.0,0.0,0.0,0.0,0.0,0.0,0.0,0.0,0.0,0.0,0.0,0.0,0.0,0.0,0.0,0.0,0.0,0.0,0.0,0.0,0.0,0.0,0.0,0.0,0.0,0.0,0.0,0.0,0.0,0.0,0.0,0.0,0.0,0.0,0.0,0.0,0.0,0.0,0.0,0.0,0.0,0.0,0.0,0.0,0.0,0.0,0.0,0.0,0.0,0.0,0.0,0.0,0.0,0.0,0.0,0.0,0.0,0.0,0.0,0.0,0.0,0.0,0.0,0.0,0.0,0.0,0.0,0.0,0.0,0.0,0.0,0.0,0.0,0.0,0.0,0.0,0.0,0.0,0.0,0.0,0.0,0.0,0.0,0.0,0.0,0.0,0.0,0.0,0.0,0.0,0.0,0.0,0.0,0.0,0.0,0.0,0.0,0.0,0.0,0.0,0.0,0.0,0.0,0.0,0.0,0.0,0.0,0.0,0.0,0.0,0.0,0.0,0.0,0.0,0.0,0.0,0.0,0.0,0.0,0.0,0.0,0.0,0.0,0.0,0.0,0.0,0.0,0.0,0.0,0.0,0.0,0.0,0.0,0.0,0.0,0.0,0.0,0.0,0.0,0.0,0.0,0.0,0.0,0.0,0.0,0.0,0.0,0.0,0.0,0.0,0.0,0.0,0.0,0.0,0.0,0.0,0.0,0.0,0.0,0.0,0.0,0.0,0.0,0.0,0.0,0.0,0.0,0.0,0.0,0.0,0.0,0.0,0.0,0.0,0.0,0.0,0.0,0.0,0.0,0.0,0.0,0.0,0.0,0.0,0.0,0.0,0.0,0.0,0.0,0.0,0.0,0.0,0.0,0.0,0.0,0.0,0.0,0.0,0.0,0.0,0.0,0.0,0.0,0.0,0.0,0.0,0.0,0.0,0.0,0.0,0.0,0.0,0.0,0.0,0.0,0.0,0.0,0.0,0.0,0.0,0.0,0.0,0.0,0.0,0.0,0.0,0.0,0.0,0.0,0.0,0.0,0.0,0.0,0.0,0.0,0.0,0.0,0.0,0.0,0.0,0.0,0.0,0.0,0.0,0.0,0.0,0.0,0.0,0.0,0.0,0.0,0.0,0.0,0.0,0.0,0.0,0.0,0.0,0.0,0.0,0.0,0.0,0.0,0.0,0.0,0.0,0.0,0.0,0.0,0.0,0.0,0.0,0.0,0.0,0.0,0.0,0.0,0.0,0.0,0.0,0.0,0.0,0.0,0.0,0.0,0.0,0.0,0.0,0.0,0.0,0.0,0.0,0.0,0.0,0.0,0.0,0.0,0.0,0.0,0.0,0.0,0.0,0.0,0.0,0.0,0.0,0.0,0.0,0.0,0.0,0.0,0.0,0.0,0.0,0.0,0.0,0.0,0.0,0.0,0.0,0.0,0.0,0.0,0.0,0.0,0.0,0.0,0.0,0.0,0.0,0.0,0.0,0.0,0.0,0.0,0.0,0.0,0.0,0.0,0.0,0.0,0.0,0.0,0.0,0.0,0.0,0.0,0.0,0.0,0.0,0.0,0.0,0.0,0.0,0.0,0.0,0.0,0.0,0.0,0.0,0.0,0.0,0.0,0.0,0.0,0.0,0.0,0.0,0.0,0.0,0.0,0.0,0.0,0.0,0.0,0.0,0.0,0.0,0.0,0.0,0.0,0.0,0.0,0.0,0.0,0.0,0.0,0.0,0.0,0.0,0.0,0.0,0.0,0.0,0.0,0.0,0.0,0.0,0.0,0.0,0.0,0.0,0.0,0.0,0.0,0.0,0.0,0.0,0.0,0.0,0.0,0.0,0.0,0.0,0.0,0.0,0.0,0.0,0.0,0.0,0.0,0.0,0.0,0.0,0.0,0.0,0.0,0.0,0.0,0.0,0.0,0.0,0.0,0.0,0.0,0.0,0.0,0.0,0.0,0.0,0.0,0.0,0.0,0.0,0.0,0.0,0.0,0.0,0.0,0.0,0.0,0.0,0.0,0.0,0.0,0.0,0.0,0.0,0.0,0.0,0.0,0.0,0.0,0.0,0.0,0.0,0.0,0.0,0.0,2.3818,0.0,0.0,0.0,0.0,0.0,0.0,0.0,0.0,0.0,0.0,0.0,0.0,0.0,0.0,0.0,0.0,0.0,0.0,0.0,0.0,0.0,0.0,0.0,0.0,0.0,0.0,0.0,0.0,0.0,0.0,0.0,0.0,0.0,0.0,0.0,0.0,0.0,0.0,0.0,0.0,0.0,0.0,0.0,0.0,0.0,0.0,0.0,0.0,0.0,0.0,0.0,0.0,0.0,0.0,0.0,0.0,0.0,0.0,0.0,0.0,0.0,0.0,0.0,0.0,0.0,0.0,0.0,0.0,0.0,0.0,0.0,0.0,0.0,0.0,0.0,0.0,0.0,0.0,0.0,0.0,0.0,0.0,0.0,0.0,0.0,0.0,0.0,0.0,0.0,0.0,0.0,0.0,0.0,0.0,0.0,0.0,0.0,0.0,0.0,0.0,0.0,0.0,0.0,0.0,0.0,0.0,0.0,0.0,0.0,0.0,2.554,2.5306,2.5631,2.5192,2.383,0.0,0.0,0.0,0.0,0.0,0.0,0.0,0.0,0.0,0.0,0.0,0.0,0.0,0.0,0.0,0.0,0.0,0.0,0.0,0.0,0.0,0.0,0.0,0.0,0.0,0.0,0.0,0.0,0.0,0.0,0.0,0.0,0.0,0.0,0.0,0.0,0.0,0.0,0.0,0.0,0.0,0.0,0.0,0.0,0.0,0.0,0.0,0.0,0.0,0.0,0.0,0.0,0.0,0.0,0.0,0.0,0.0,0.0,0.0,0.0,0.0,0.0,0.0,0.0,0.0,0.0,0.0,0.0,0.0,0.0,0.0,0.0,0.0,0.0,0.0,0.0,0.0,0.0,0.0,0.0,0.0,0.0,0.0,0.0,0.0,0.0,0.0,0.0,0.0,0.0,0.0,0.0,0.0,0.0,0.0,0.0,0.0,0.0,0.0,0.0,0.0,0.0,0.0,0.0,0.0,0.0,0.0,0.0,0.0,0.0,0.0,0.0,2.6712,2.6087,2.4042,0.0,0.0,0.0,0.0,0.0,0.0,0.0,0.0,0.0,0.0,0.0,0.0,0.0,0.0,0.0,0.0,0.0,0.0,0.0,0.0,0.0,0.0,0.0,0.0,0.0,0.0,0.0,0.0,0.0,0.0,0.0,0.0,0.0,0.0,0.0,0.0,0.0,0.0,0.0,0.0,0.0,0.0,0.0,0.0,0.0,0.0,0.0,0.0,0.0,0.0,0.0,0.0,0.0,0.0,0.0,0.0,0.0,0.0,0.0,0.0,0.0,0.0,0.0,0.0,0.0,0.0,0.0,0.0,0.0,0.0,0.0,0.0,0.0,0.0,0.0,0.0,0.0,0.0,0.0,0.0,0.0,0.0,0.0,0.0,0.0,0.0,0.0,0.0,0.0,0.0,0.0,0.0,0.0,0.0,0.0,0.0,0.0,0.0,0.0,0.0,0.0,0.0,0.0,0.0,0.0,0.0,0.0,0.0,0.0,0.0,2.6219,2.8118,2.7806,0.0,2.4537,0.0,0.0,0.0,0.0,0.0,0.0,0.0,0.0,0.0,0.0,0.0,0.0,0.0,0.0,0.0,0.0,0.0,0.0,0.0,0.0,0.0,0.0,0.0,0.0,0.0,0.0,0.0,0.0,0.0,0.0,0.0,0.0,0.0,0.0,0.0,0.0,0.0,0.0,0.0,0.0,0.0,0.0,0.0,0.0,0.0,0.0,0.0,0.0,0.0,0.0,0.0,0.0,0.0,0.0,0.0,0.0,0.0,0.0,0.0,0.0,0.0,0.0,0.0,0.0,0.0,0.0,0.0,0.0,0.0,0.0,0.0,0.0,0.0,0.0,0.0,0.0,0.0,0.0,0.0,0.0,0.0,0.0,0.0,0.0,0.0,0.0,0.0,0.0,0.0,0.0,0.0,0.0,0.0,0.0,0.0,0.0,0.0,0.0,0.0,0.0,0.0,0.0,0.0,0.0,0.0,0.0,0.0,0.0,0.0,0.0,2.6159,2.7993,2.7212,2.5751,0.0,0.0,0.0,0.0,0.0,0.0,0.0,0.0,0.0,0.0,0.0,0.0,0.0,0.0,0.0,0.0,0.0,0.0,0.0,0.0,0.0,0.0,0.0,0.0,0.0,0.0,0.0,0.0,0.0,0.0,0.0,0.0,0.0,0.0,0.0,0.0,0.0,0.0,0.0,0.0,0.0,0.0,0.0,0.0,0.0,0.0,0.0,0.0,0.0,0.0,0.0,0.0,0.0,0.0,0.0,0.0,0.0,0.0,0.0,0.0,0.0,0.0,0.0,0.0,0.0,0.0,0.0,0.0,0.0,0.0,0.0,0.0,0.0,0.0,0.0,0.0,0.0,0.0,0.0,0.0,0.0,0.0,0.0,0.0,0.0,0.0,0.0,0.0,0.0,0.0,0.0,0.0,0.0,0.0,0.0,0.0,0.0,0.0,0.0,0.0,0.0,0.0,0.0,0.0,0.0,0.0,0.0,0.0,0.0,0.0,2.6286,2.6736,2.8198,2.6887,2.5252,2.346,0.0,0.0,0.0,0.0,0.0,0.0,0.0,0.0,0.0,0.0,0.0,0.0,0.0,0.0,0.0,0.0,0.0,0.0,0.0,0.0,0.0,0.0,0.0,0.0,0.0,0.0,0.0,0.0,0.0,0.0,0.0,0.0,0.0,0.0,0.0,0.0,0.0,0.0,0.0,0.0,0.0,0.0,0.0,0.0,0.0,0.0,0.0,0.0,0.0,0.0,0.0,0.0,0.0,0.0,0.0,0.0,0.0,0.0,0.0,0.0,0.0,0.0,0.0,0.0,0.0,0.0,0.0,0.0,0.0,0.0,0.0,0.0,0.0,0.0,0.0,0.0,0.0,0.0,0.0,0.0,0.0,0.0,0.0,0.0,0.0,0.0,0.0,0.0,0.0,0.0,0.0,0.0,0.0,0.0,0.0,0.0,0.0,0.0,0.0,0.0,0.0,0.0,0.0,0.0,0.0,0.0,0.0,0.0,3.0266,2.8563,2.8334,2.9797,2.7452,2.5576,0.0,0.0,0.0,0.0,0.0,0.0,0.0,0.0,0.0,0.0,0.0,0.0,0.0,0.0,0.0,0.0,0.0,0.0,0.0,0.0,0.0,0.0,0.0,0.0,0.0,0.0,0.0,0.0,0.0,0.0,0.0,0.0,0.0,0.0,0.0,0.0,0.0,0.0,0.0,0.0,0.0,0.0,0.0,0.0,0.0,0.0,0.0,0.0,0.0,0.0,0.0,0.0,0.0,0.0,0.0,0.0,0.0,0.0,0.0,0.0,0.0,0.0,0.0,0.0,0.0,0.0,0.0,0.0,0.0,0.0,0.0,0.0,0.0,0.0,0.0,0.0,0.0,0.0,0.0,0.0,0.0,0.0,0.0,0.0,0.0,0.0,0.0,0.0,0.0,0.0,0.0,0.0,0.0,0.0,0.0,0.0,0.0,0.0,0.0,0.0,0.0,0.0,0.0,0.0,0.0,0.0,0.0,0.0,0.0,2.5606,2.663,2.7625,2.8474,2.6959,2.5583,0.0,0.0,0.0,0.0,0.0,0.0,0.0,0.0,0.0,0.0,0.0,0.0,0.0,0.0,0.0,0.0,0.0,0.0,0.0,0.0,0.0,0.0,0.0,0.0,0.0,0.0,0.0,0.0,0.0,0.0,0.0,0.0,0.0,0.0,0.0,0.0,0.0,0.0,0.0,0.0,0.0,0.0,0.0,0.0,0.0,0.0,0.0,0.0,0.0,0.0,0.0,0.0,0.0,0.0,0.0,0.0,0.0,0.0,0.0,0.0,0.0,0.0,0.0,0.0,0.0,0.0,0.0,0.0,0.0,0.0,0.0,0.0,0.0,0.0,0.0,0.0,0.0,0.0,0.0,0.0,0.0,0.0,0.0,0.0,0.0,0.0,0.0,0.0,0.0,0.0,0.0,0.0,0.0,0.0,0.0,0.0,0.0,0.0,0.0,0.0,0.0,0.0,0.0,0.0,0.0,0.0,0.0,0.0,0.0,2.3788,0.0,2.7045,2.7183,2.6179,2.4856,0.0,0.0,0.0,0.0,0.0,0.0,0.0,0.0,0.0,0.0,0.0,0.0,0.0,0.0,0.0,0.0,0.0,0.0,0.0,0.0,0.0,0.0,0.0,0.0,0.0,0.0,0.0,0.0,0.0,0.0,0.0,0.0,0.0,0.0,0.0,0.0,0.0,0.0,0.0,0.0,0.0,0.0,0.0,0.0,0.0,0.0,0.0,0.0,0.0,0.0,0.0,0.0,0.0,0.0,0.0,0.0,0.0,0.0,0.0,0.0,0.0,0.0,0.0,0.0,0.0,0.0,0.0,0.0,0.0,0.0,0.0,0.0,0.0,0.0,0.0,0.0,0.0,0.0,0.0,0.0,0.0,0.0,0.0,0.0,0.0,0.0,0.0,0.0,0.0,0.0,0.0,0.0,0.0,0.0,0.0,0.0,0.0,0.0,0.0,0.0,0.0,0.0,0.0,0.0,0.0,0.0,0.0,0.0,2.2506,2.5733,2.6562,2.6706,2.6203,2.5173,2.3381,0.0,0.0,0.0,0.0,0.0,0.0,0.0,0.0,0.0,0.0,0.0,0.0,0.0,0.0,0.0,0.0,0.0,0.0,0.0,0.0,0.0,0.0,0.0,0.0,0.0,0.0,0.0,0.0,0.0,0.0,0.0,0.0,0.0,0.0,0.0,0.0,0.0,0.0,0.0,0.0,0.0,0.0,0.0,0.0,0.0,0.0,0.0,0.0,0.0,0.0,0.0,0.0,0.0,0.0,0.0,0.0,0.0,0.0,0.0,0.0,0.0,0.0,0.0,0.0,0.0,0.0,0.0,0.0,0.0,0.0,0.0,0.0,0.0,0.0,0.0,0.0,0.0,0.0,0.0,0.0,0.0,0.0,0.0,0.0,0.0,0.0,0.0,0.0,0.0,0.0,0.0,0.0,0.0,0.0,0.0,0.0,0.0,0.0,0.0,0.0,0.0,0.0,0.0,0.0,0.0,0.0,0.0,0.0,0.0,2.2796,2.3998,2.5167,2.6161,2.4554,2.3707,0.0,0.0,0.0,0.0,0.0,0.0,0.0,0.0,0.0,0.0,0.0,0.0,0.0,0.0,0.0,0.0,0.0,0.0,0.0,0.0,0.0,0.0,0.0,0.0,0.0,0.0,0.0,0.0,0.0,0.0,0.0,0.0,0.0,0.0,0.0,0.0,0.0,0.0,0.0,0.0,0.0,0.0,0.0,0.0,0.0,0.0,0.0,0.0,0.0,0.0,0.0,0.0,0.0,0.0,0.0,0.0,0.0,0.0,0.0,0.0,0.0,0.0,0.0,0.0,0.0,0.0,0.0,0.0,0.0,0.0,0.0,0.0,0.0,0.0,0.0,0.0,0.0,0.0,0.0,0.0,0.0,0.0,0.0,0.0,0.0,0.0,0.0,0.0,0.0,0.0,0.0,0.0,0.0,0.0,0.0,0.0,0.0,0.0,0.0,0.0,0.0,0.0,0.0,0.0,0.0,0.0,0.0,0.0,0.0,2.163,2.3378,2.4702,2.5497,2.4088,2.35,2.3854,0.0,0.0,0.0,0.0,0.0,0.0,0.0,0.0,0.0,0.0,0.0,0.0,0.0,0.0,0.0,0.0,0.0,0.0,0.0,0.0,0.0,0.0,0.0,0.0,0.0,0.0,0.0,0.0,0.0,0.0,0.0,0.0,0.0,0.0,0.0,0.0,0.0,0.0,0.0,0.0,0.0,0.0,0.0,0.0,0.0,0.0,0.0,0.0,0.0,0.0,0.0,0.0,0.0,0.0,0.0,0.0,0.0,0.0,0.0,0.0,0.0,0.0,0.0,0.0,0.0,0.0,0.0,0.0,0.0,0.0,0.0,0.0,0.0,0.0,0.0,0.0,0.0,0.0,0.0,0.0,0.0,0.0,0.0,0.0,0.0,0.0,0.0,0.0,0.0,0.0,0.0,0.0,0.0,0.0,0.0,0.0,0.0,0.0,0.0,0.0,0.0,0.0,0.0,0.0,0.0,0.0,0.0,0.0,2.1842,2.4273,2.5131,2.4357,2.3758,2.2916,0.0,0.0,0.0,0.0,0.0,0.0,0.0,0.0,0.0,0.0,0.0,0.0,0.0,0.0,0.0,0.0,0.0,0.0,0.0,0.0,0.0,0.0,0.0,0.0,0.0,0.0,0.0,0.0,0.0,0.0,0.0,0.0,0.0,0.0,0.0,0.0,0.0,0.0,0.0,0.0,0.0,0.0,0.0,0.0,0.0,0.0,0.0,0.0,0.0,0.0,0.0,0.0,0.0,0.0,0.0,0.0,0.0,0.0,0.0,0.0,0.0,0.0,0.0,0.0,0.0,0.0,0.0,0.0,0.0,0.0,0.0,0.0,0.0,0.0,0.0,0.0,0.0,0.0,0.0,0.0,0.0,0.0,0.0,0.0,0.0,0.0,0.0,0.0,0.0,0.0,0.0,0.0,0.0,0.0,0.0,0.0,0.0,0.0,0.0,0.0,0.0,0.0,0.0,0.0,0.0,0.0,0.0,0.0,0.0,2.1283,2.2883,2.4221,2.5216,2.3835,2.3031,0.0,0.0,0.0,0.0,0.0,0.0,0.0,0.0,0.0,0.0,0.0,0.0,0.0,0.0,0.0,0.0,0.0,0.0,0.0,0.0,0.0,0.0,0.0,0.0,0.0,0.0,0.0,0.0,0.0,0.0,0.0,0.0,0.0,0.0,0.0,0.0,0.0,0.0,0.0,0.0,0.0,0.0,0.0,0.0,0.0,0.0,0.0,0.0,0.0,0.0,0.0,0.0,0.0,0.0,0.0,0.0,0.0,0.0,0.0,0.0,0.0,0.0,0.0,0.0,0.0,0.0,0.0,0.0,0.0,0.0,0.0,0.0,0.0,0.0,0.0,0.0,0.0,0.0,0.0,0.0,0.0,0.0,0.0,0.0,0.0,0.0,0.0,0.0,0.0,0.0,0.0,0.0,0.0,0.0,0.0,0.0,0.0,0.0,0.0,0.0,0.0,0.0,0.0,0.0,0.0,0.0,0.0,0.0,1.8501,2.03,2.1783,2.3205,2.4584,2.3745,2.3079,0.0,0.0,0.0,0.0,0.0,0.0,0.0,0.0,0.0,0.0,0.0,0.0,0.0,0.0,0.0,0.0,0.0,0.0,0.0,0.0,0.0,0.0,0.0,0.0,0.0,0.0,0.0,0.0,0.0,0.0,0.0,0.0,0.0,0.0,0.0,0.0,0.0,0.0,0.0,0.0,0.0,0.0,0.0,0.0,0.0,0.0,0.0,0.0,0.0,0.0,0.0,0.0,0.0,0.0,0.0,0.0,0.0,0.0,0.0,0.0,0.0,0.0,0.0,0.0,0.0,0.0,0.0,0.0,0.0,0.0,0.0,0.0,0.0,0.0,0.0,0.0,0.0,0.0,0.0,0.0,0.0,0.0,0.0,0.0,0.0,0.0,0.0,0.0,0.0,0.0,0.0,0.0,0.0,0.0,0.0,0.0,0.0,0.0,0.0,0.0,0.0,0.0,0.0,0.0,0.0,0.0,0.0,0.0,1.7882,1.9114,2.0658,2.187,2.2681,2.3331,2.3036,0.0,0.0,0.0,0.0,0.0,0.0,0.0,0.0,0.0,0.0,0.0,0.0,0.0,0.0,0.0,0.0,0.0,0.0,0.0,0.0,0.0,0.0,0.0,0.0,0.0,0.0,0.0,0.0,0.0,0.0,0.0,0.0,0.0,0.0,0.0,0.0,0.0,0.0,0.0,0.0,0.0,0.0,0.0,0.0,0.0,0.0,0.0,0.0,0.0,0.0,0.0,0.0,0.0,0.0,0.0,0.0,0.0,0.0,0.0,0.0,0.0,0.0,0.0,0.0,0.0,0.0,0.0,0.0,0.0,0.0,0.0,0.0,0.0,0.0,0.0,0.0,0.0,0.0,0.0,0.0,0.0,0.0,0.0,0.0,0.0,0.0,0.0,0.0,0.0,0.0,0.0,0.0,0.0,0.0,0.0,0.0,0.0,0.0,0.0,0.0,0.0,0.0,0.0,0.0,0.0,0.0,0.0,0.0,1.6405,1.8075,1.8493,1.9144,2.0092,2.1831,2.2476,0.0,0.0,0.0,0.0,0.0,0.0,0.0,0.0,0.0,0.0,0.0,0.0,0.0,0.0,0.0,0.0,0.0,0.0,0.0,0.0,0.0,0.0,0.0,0.0,0.0,0.0,0.0,0.0,0.0,0.0,0.0,0.0,0.0,0.0,0.0,0.0,0.0,0.0,0.0,0.0,0.0,0.0,0.0,0.0,0.0,0.0,0.0,0.0,2.8931,0.0,0.0,0.0,0.0,0.0,0.0,0.0,0.0,0.0,0.0,0.0,0.0,0.0,0.0,0.0,0.0,0.0,0.0,0.0,0.0,0.0,0.0,0.0,0.0,0.0,0.0,0.0,0.0,0.0,0.0,0.0,0.0,0.0,0.0,0.0,0.0,0.0,0.0,0.0,0.0,0.0,0.0,0.0,0.0,0.0,0.0,0.0,0.0,0.0,0.0,0.0,0.0,0.0,0.0,0.0,0.0,0.0,0.0,0.0,1.5555,1.6632,1.7077,1.7746,1.8682,2.0141,2.0729,0.0,0.0,0.0,0.0,0.0,0.0,0.0,0.0,0.0,0.0,0.0,0.0,0.0,0.0,0.0,0.0,0.0,0.0,0.0,0.0,0.0,0.0,0.0,0.0,0.0,0.0,0.0,0.0,0.0,0.0,0.0,0.0,0.0,0.0,0.0,0.0,0.0,0.0,0.0,0.0,0.0,0.0,0.0,0.0,0.0,0.0,0.0,0.0,0.0,0.0,0.0,0.0,0.0,0.0,0.0,0.0,0.0,0.0,0.0,0.0,0.0,0.0,0.0,0.0,0.0,0.0,0.0,0.0,0.0,0.0,0.0,0.0,0.0,0.0,0.0,0.0,0.0,0.0,0.0,0.0,0.0,0.0,0.0,0.0,0.0,0.0,0.0,0.0,0.0,0.0,0.0,0.0,0.0,0.0,0.0,0.0,0.0,0.0,0.0,0.0,0.0,0.0,0.0,0.0,0.0,0.0,0.0,1.4512,1.4941,1.5395,1.6126,1.6854,1.7588,1.8447,1.8707,1.8362,0.0,0.0,0.0,0.0,0.0,0.0,0.0,0.0,0.0,0.0,0.0,0.0,0.0,0.0,0.0,0.0,0.0,0.0,0.0,0.0,0.0,0.0,0.0,0.0,0.0,0.0,0.0,0.0,0.0,0.0,0.0,0.0,0.0,0.0,0.0,0.0,0.0,0.0,2.8034,2.9076,0.0,0.0,0.0,0.0,0.0,0.0,0.0,0.0,3.0624,0.0,0.0,0.0,0.0,0.0,0.0,0.0,0.0,0.0,0.0,0.0,0.0,0.0,0.0,0.0,0.0,0.0,0.0,0.0,0.0,0.0,0.0,0.0,0.0,0.0,0.0,0.0,0.0,0.0,0.0,0.0,0.0,0.0,0.0,0.0,0.0,0.0,0.0,0.0,0.0,0.0,0.0,0.0,0.0,0.0,0.0,0.0,0.0,0.0,0.0,0.0,0.0,0.0,0.0,0.0,0.0,1.4884,1.4254,1.4385,1.5389,1.5527,1.5676,1.5865,1.7253,1.7717,1.7126,0.0,0.0,0.0,0.0,0.0,0.0,0.0,0.0,0.0,0.0,0.0,0.0,0.0,0.0,0.0,0.0,0.0,0.0,0.0,0.0,0.0,0.0,0.0,0.0,0.0,0.0,0.0,0.0,0.0,0.0,0.0,0.0,0.0,0.0,0.0,0.0,0.0,0.0,0.0,3.1011,3.1865,0.0,0.0,0.0,0.0,0.0,0.0,0.0,0.0,3.078,0.0,0.0,0.0,0.0,0.0,0.0,0.0,0.0,0.0,0.0,0.0,0.0,0.0,0.0,0.0,0.0,0.0,0.0,0.0,0.0,0.0,0.0,0.0,0.0,0.0,0.0,0.0,0.0,0.0,0.0,0.0,0.0,0.0,0.0,0.0,0.0,0.0,0.0,0.0,0.0,0.0,0.0,0.0,0.0,0.0,0.0,0.0,0.0,0.0,0.0,0.0,0.0,0.0,0.0,0.0,1.2872,1.2956,1.3465,1.4475,1.4636,1.4957,1.5396,1.6326,1.6776,0.0,0.0,0.0,0.0,0.0,0.0,0.0,0.0,0.0,0.0,0.0,0.0,0.0,0.0,0.0,0.0,0.0,0.0,0.0,0.0,0.0,0.0,0.0,0.0,0.0,0.0,0.0,0.0,0.0,0.0,0.0,0.0,0.0,0.0,0.0,0.0,0.0,0.0,0.0,0.0,3.0135,3.1154,3.2324,0.0,0.0,0.0,0.0,0.0,0.0,3.0732,3.0997,0.0,0.0,0.0,0.0,0.0,0.0,0.0,0.0,0.0,0.0,0.0,0.0,0.0,0.0,0.0,0.0,0.0,0.0,0.0,0.0,0.0,0.0,0.0,0.0,0.0,0.0,0.0,0.0,0.0,0.0,0.0,0.0,0.0,0.0,0.0,0.0,0.0,0.0,0.0,0.0,0.0,0.0,0.0,0.0,0.0,0.0,0.0,0.0,0.0,0.0,0.0,0.0,0.0,0.0,0.0,1.0904,1.1594,1.244,1.3381,1.3859,1.4419,1.5118,1.5639,1.6082,0.0,0.0,0.0,0.0,0.0,0.0,0.0,0.0,0.0,0.0,0.0,0.0,0.0,0.0,0.0,0.0,0.0,0.0,0.0,0.0,0.0,0.0,0.0,0.0,0.0,0.0,0.0,0.0,0.0,0.0,0.0,0.0,0.0,0.0,0.0,0.0,0.0,0.0,0.0,0.0,0.0,3.0562,3.2294,3.1308,0.0,0.0,0.0,0.0,3.0384,3.1468,0.0,0.0,0.0,0.0,0.0,0.0,0.0,0.0,0.0,0.0,0.0,0.0,0.0,0.0,0.0,0.0,0.0,0.0,0.0,0.0,0.0,0.0,0.0,0.0,0.0,0.0,0.0,0.0,0.0,0.0,0.0,0.0,0.0,0.0,0.0,0.0,0.0,0.0,0.0,0.0,0.0,0.0,0.0,0.0,0.0,0.0,0.0,0.0,0.0,0.0,0.0,0.0,0.0,0.0,0.0,0.0,1.0844,1.0826,1.1332,1.2456,1.3535,1.4139,1.4272,1.5312,1.5861,0.0,0.0,0.0,0.0,0.0,0.0,0.0,0.0,0.0,0.0,0.0,0.0,0.0,0.0,0.0,0.0,0.0,0.0,0.0,0.0,0.0,0.0,0.0,0.0,0.0,0.0,0.0,0.0,0.0,0.0,0.0,0.0,0.0,0.0,0.0,0.0,0.0,0.0,0.0,0.0,0.0,3.2186,3.0677,3.1267,3.1368,0.0,0.0,3.0958,3.1379,3.3101,0.0,0.0,0.0,0.0,0.0,0.0,0.0,0.0,0.0,0.0,0.0,0.0,0.0,0.0,0.0,0.0,0.0,0.0,0.0,0.0,0.0,0.0,0.0,0.0,0.0,0.0,0.0,0.0,0.0,0.0,0.0,0.0,0.0,0.0,0.0,0.0,0.0,0.0,0.0,0.0,0.0,0.0,0.0,0.0,0.0,0.0,0.0,0.0,0.0,0.0,0.0,0.0,0.0,0.0,0.0,0.868,0.9241,0.9499,1.0115,1.1144,1.1928,1.258,1.3063,1.4078,1.4663,0.0,0.0,0.0,0.0,0.0,0.0,0.0,0.0,0.0,0.0,0.0,0.0,0.0,0.0,0.0,0.0,0.0,0.0,0.0,0.0,0.0,0.0,0.0,0.0,0.0,0.0,0.0,0.0,0.0,0.0,0.0,0.0,0.0,0.0,0.0,0.0,0.0,0.0,0.0,0.0,0.0,0.0,3.0053,2.9995,0.0,0.0,0.0,3.0188,3.0887,0.0,0.0,0.0,0.0,0.0,0.0,0.0,0.0,0.0,0.0,0.0,0.0,0.0,0.0,0.0,0.0,0.0,0.0,0.0,0.0,0.0,0.0,0.0,0.0,0.0,0.0,0.0,0.0,0.0,0.0,0.0,0.0,0.0,0.0,0.0,0.0,0.0,0.0,0.0,0.0,0.0,0.0,0.0,0.0,0.0,0.0,0.0,0.0,0.0,0.0,0.0,0.0,0.0,0.0,0.0,0.0,0.0,0.8012,0.8588,0.9231,0.9932,1.0631,1.1295,1.1965,1.2837,0.0,0.0,0.0,0.0,0.0,0.0,0.0,0.0,0.0,0.0,0.0,0.0,0.0,0.0,0.0,0.0,0.0,0.0,0.0,0.0,0.0,0.0,0.0,0.0,0.0,0.0,0.0,1.879,0.0,0.0,0.0,0.0,0.0,0.0,0.0,0.0,0.0,0.0,0.0,0.0,0.0,0.0,2.7589,2.9413,2.9121,2.9327,0.0,0.0,2.9656,3.0234,3.0421,3.009,0.0,0.0,0.0,0.0,0.0,0.0,0.0,0.0,0.0,0.0,0.0,0.0,0.0,0.0,0.0,0.0,0.0,0.0,0.0,0.0,0.0,0.0,0.0,0.0,0.0,0.0,0.0,0.0,0.0,0.0,0.0,0.0,0.0,0.0,0.0,0.0,0.0,0.0,0.0,0.0,0.0,0.0,0.0,0.0,0.0,0.0,0.0,0.0,0.0,0.0,0.0,0.0,0.0,0.0,0.0,0.802,0.8588,0.8929,0.9038,1.0316,1.1025,1.1106,1.1994,1.2589,0.0,0.0,0.0,0.0,0.0,0.0,0.0,0.0,0.0,0.0,0.0,0.0,0.0,0.0,0.0,0.0,0.0,0.0,0.0,0.0,0.0,0.0,0.0,0.0,0.0,0.0,0.0,0.0,0.0,0.0,0.0,0.0,0.0,0.0,0.0,0.0,0.0,0.0,0.0,0.0,0.0,2.7323,2.8287,2.9413,3.0333,0.0,0.0,3.0033,2.9943,3.0951,3.0874,2.8305,0.0,0.0,0.0,0.0,0.0,0.0,0.0,0.0,0.0,0.0,0.0,0.0,0.0,0.0,0.0,0.0,0.0,0.0,0.0,0.0,0.0,0.0,0.0,0.0,0.0,0.0,0.0,0.0,0.0,0.0,0.0,0.0,0.0,0.0,0.0,0.0,0.0,0.0,0.0,0.0,0.0,0.0,0.0,0.0,0.0,0.0,0.0,0.0,0.0,0.0,0.0,0.0,0.0,0.7622,0.8008,0.8348,0.8602,0.8736,0.9362,0.9685,0.9711,1.0449,1.09,0.0,0.0,0.0,0.0,0.0,0.0,0.0,0.0,0.0,0.0,0.0,0.0,0.0,0.0,0.0,0.0,0.0,0.0,0.0,0.0,0.0,0.0,0.0,0.0,0.0,0.0,0.0,0.0,1.5709,1.5564,1.5556,0.0,0.0,0.0,0.0,0.0,0.0,0.0,0.0,0.0,0.0,2.6088,2.7318,2.8404,0.0,0.0,2.914,2.9162,2.9623,2.9041,2.8232,2.7381,2.6548,0.0,0.0,0.0,0.0,0.0,0.0,0.0,0.0,0.0,0.0,0.0,0.0,0.0,0.0,0.0,0.0,0.0,0.0,0.0,0.0,0.0,0.0,0.0,0.0,0.0,0.0,0.0,0.0,0.0,0.0,0.0,0.0,0.0,0.0,0.0,0.0,0.0,0.0,0.0,0.0,0.0,0.0,0.0,0.0,0.0,0.0,0.0,0.0,0.0,0.0,0.0,0.0,0.759,0.7987,0.8247,0.8438,0.8608,0.8802,0.8911,0.8925,0.9365,0.9661,0.0,0.0,0.0,0.0,0.0,0.0,0.0,0.0,0.0,0.0,0.0,0.0,0.0,0.0,0.0,0.0,0.0,0.0,0.0,0.0,0.0,0.0,0.0,0.0,0.0,0.0,0.0,0.0,1.5003,1.4758,1.4566,0.0,0.0,0.0,0.0,0.0,0.0,0.0,0.0,0.0,0.0,2.4752,2.6046,2.6761,2.7288,2.7743,2.7304,2.7294,2.8459,2.7272,2.6167,2.6119,0.0,0.0,0.0,0.0,0.0,0.0,0.0,0.0,0.0,0.0,0.0,0.0,0.0,0.0,0.0,0.0,0.0,0.0,0.0,0.0,0.0,0.0,0.0,0.0,0.0,0.0,0.0,0.0,0.0,0.0,0.0,0.0,0.0,0.0,0.0,0.0,0.0,0.0,0.0,0.0,0.0,0.0,0.0,0.0,0.0,0.0,0.0,0.0,0.0,0.0,0.0,0.0,0.0,0.7805,0.7971,0.8301,0.8534,0.8582,0.8802,0.8859,0.8894,0.8901,0.9125,0.9557,0.0,0.0,0.0,0.0,0.0,0.0,0.0,0.0,0.0,0.0,0.0,0.0,0.0,0.0,0.0,0.0,0.0,0.0,0.0,0.0,0.0,0.0,0.0,0.0,0.0,0.0,1.5365,1.4741,1.3977,0.0,0.0,0.0,0.0,0.0,0.0,0.0,0.0,0.0,0.0,2.2185,2.3364,2.431,2.4475,2.5039,2.6462,2.5046,2.4375,2.6222,2.6059,2.5384,0.0,0.0,0.0,0.0,0.0,0.0,0.0,0.0,0.0,0.0,0.0,0.0,0.0,0.0,0.0,0.0,0.0,0.0,0.0,0.0,0.0,0.0,0.0,0.0,0.0,0.0,0.0,-0.478,-0.3554,0.0,0.0,0.0,0.0,0.0,0.0,0.0,0.0,0.0,0.0,0.0,0.1595,0.1902,0.0,0.0,0.0,0.0,0.0,0.0,0.0,0.0,0.0,0.0,0.0,0.0,0.5979,0.6264,0.6413,0.6792,0.7444,0.7555,0.78,0.8279,0.8213,0.8187,0.8212,0.0,0.0,0.0,0.0,0.0,0.0,0.0,0.0,0.0,0.0,0.0,0.0,0.0,0.0,0.0,0.0,0.0,0.0,0.0,0.0,0.0,0.0,0.0,0.0,0.0,1.2477,0.0,0.0,0.0,0.0,0.0,0.0,0.0,0.0,0.0,0.0,0.0,1.8073,1.9911,2.0907,2.179,2.2638,2.2974,2.3284,0.0,0.0,0.0,0.0,0.0,0.0,0.0,0.0,0.0,0.0,0.0,0.0,0.0,0.0,3.0879,3.0224,2.952,2.9304,3.0203,0.0,0.0,0.0,0.0,0.0,0.0,0.0,0.0,0.0,0.0,0.0,0.0,0.0,0.0,0.0,0.0,-0.4075,0.0,0.0,0.0,0.0,0.0,0.0,0.0,0.0,-0.0171,0.0425,0.112,0.1488,0.1656,0.0,0.1547,0.2173,0.0,0.0,0.0,0.0,0.0,0.0,0.0,0.0,0.5119,0.5396,0.5453,0.5773,0.642,0.6441,0.6691,0.7139,0.7046,0.6901,0.6778,0.7132,0.7015,0.0,0.0,0.0,0.0,0.0,0.0,0.0,0.0,0.0,0.0,0.0,0.0,0.0,0.0,0.0,0.0,0.0,0.0,0.0,0.0,0.0,0.0,0.0,1.1085,0.0,0.0,0.0,0.0,0.0,0.0,0.0,0.0,0.0,1.4472,1.5711,1.6931,1.8274,1.9301,2.0088,2.0488,0.0,0.0,0.0,0.0,0.0,0.0,0.0,2.4507,2.5533,2.5625,2.5732,2.6293,2.7864,2.9192,2.9686,0.0,0.0,3.0732,3.0343,3.0385,3.1246,3.1167,3.1214,3.208,3.1827,3.1358,0.0,0.0,0.0,0.0,0.0,0.0,0.0,0.0,-0.7663,-0.6756,0.0,-0.4901,0.0,0.0,0.0,0.0,0.0,0.0,0.0,0.0,-0.07,-0.0104,0.0099,0.1107,0.1607,0.1605,0.1607,0.1695,0.1876,0.2593,0.0,0.0,0.0,0.0,0.0,0.0,0.5304,0.528,0.5376,0.5518,0.5545,0.5534,0.5556,0.5585,0.5499,0.543,0.5398,0.5269,0.5047,0.4827,0.4785,0.0,0.0,0.0,0.0,0.0,0.0,0.0,0.0,0.0,0.0,0.0,0.0,0.0,0.0,0.0,0.0,0.0,0.0,0.0,0.0,1.0937,0.0,0.0,0.0,0.0,0.0,0.0,0.0,0.0,0.0,0.0,1.2749,1.4164,1.539,1.5985,0.0,0.0,0.0,0.0,1.8049,1.9353,1.8993,1.9614,2.2459,2.3298,2.3788,2.4289,0.0,0.0,2.7653,2.8822,2.9616,2.9321,3.0334,3.1444,3.1356,3.1363,3.1668,3.2185,3.2301,3.2605,3.3082,3.2722,3.2406,-1.7849,0.0,0.0,0.0,0.0,-1.399,-1.3102,-1.1687,-1.0438,-0.9049,-0.7518,-0.6354,0.0,0.0,0.0,0.0,0.0,0.0,-0.3531,-0.2807,-0.1693,-0.0734,0.0106,0.12,0.1733,0.1725,0.1686,0.1747,0.1948,0.2127,0.2422,0.2821,0.0,0.0,0.0,0.0,0.3542,0.3497,0.3617,0.3884,0.4319,0.4412,0.4695,0.5231,0.5342,0.5307,0.5125,0.5187,0.5141,0.4949,0.479,0.0,0.0,0.0,0.0,0.0,0.0,0.0,0.0,0.0,0.0,0.0,0.0,0.0,0.0,0.0,0.0,0.0,0.0,0.0,0.9004,0.9215,0.9456,0.0,0.0,0.0,0.0,0.0,0.0,0.0,0.0,0.0,1.1098,1.3035,1.4458,0.0,0.0,1.6235,1.6023,1.6555,1.7234,1.8076,0.0,0.0,0.0,2.1528,2.2391,2.3327,2.4913,2.63,2.7069,2.7552,2.7787,2.7684,2.8009,2.8319,2.8421,2.9838,3.1097,3.1684,3.184,3.2029,3.2531,3.2581,3.2503,-1.8557,-1.6367,-1.5898,-1.557,-1.5341,-1.523,-1.4487,-1.3302,-1.2209,-1.0585,-0.8623,-0.759,-0.6704,-0.5931,-0.5528,0.0,0.0,0.0,-0.4616,-0.3962,-0.2866,-0.1943,-0.1138,0.0371,0.1086,0.1112,0.1468,0.1722,0.1849,0.1902,0.2022,0.2168,0.0,0.0,0.2753,0.2811,0.2798,0.2721,0.2786,0.299,0.3332,0.3397,0.3682,0.417,0.4268,0.4155,0.3755,0.3833,0.3698,0.3292,0.3002,0.2903,0.0,0.0,0.0,0.0,0.0,0.0,0.0,0.0,0.0,0.0,0.0,0.7484,0.7342,0.0,0.0,0.0,0.8387,0.876,0.793,0.8417,0.0,0.0,0.0,0.0,0.0,0.0,0.0,0.9852,0.9958,1.0046,1.0227,1.1574,1.2745,1.3237,1.4028,1.4514,1.4505,0.0,1.5932,1.6491,1.755,1.8618,1.9541,2.0053,2.0966,2.2976,2.3955,2.5052,2.6355,2.6692,2.6768,2.6787,2.6904,2.7012,2.7012,2.8294,2.9709,3.078,3.1394,3.1918,3.2602,3.2615,3.2503,-1.8201,-1.6996,-1.6924,-1.646,-1.5744,-1.5693,-1.486,-1.3477,-1.3199,-1.1552,-0.9063,-0.8627,-0.7646,-0.623,-0.5678,0.0,0.0,-0.5183,-0.5165,-0.5053,-0.3985,-0.3389,-0.31,-0.1084,-0.0126,-0.0101,0.0959,0.1475,0.1474,0.1792,0.1902,0.1807,0.2292,0.261,0.2756,0.2846,0.2837,0.2716,0.272,0.2691,0.261,0.2604,0.2655,0.2719,0.265,0.2348,0.1742,0.1615,0.1296,0.0667,0.0198,-0.0059,-0.0059,0.0,0.0,0.0,0.0,0.0,0.0,0.0,0.0,0.0,0.0,0.0,0.0,0.0,0.0,0.0,0.7609,0.0,0.7171,0.8151,0.0,0.0,0.0,0.9031,0.906,0.9421,0.9575,0.9465,0.0,0.0,0.0,0.0,1.07,1.2025,1.2673,1.3113,1.3236,1.3829,1.4387,1.504,1.5718,1.6902,1.8613,1.8823,1.9657,2.2342,2.305,2.3563,2.5197,2.5775,2.6013,2.6132,2.6483,2.6752,2.6811,2.6863,2.7477,2.9466,3.0661,3.1722,3.2477,3.2434,3.2212,-1.7982,-1.699,-1.6987,-1.6858,-1.6651,-1.651,-1.6216,-1.5737,-1.4383,-1.279,-1.1083,-0.9594,-0.7887,-0.6067,-0.5809,-0.5568,-0.5316,-0.5238,-0.5167,-0.5026,-0.3934,-0.3349,-0.3124,-0.1839,-0.1235,-0.1159,-0.0126,0.04,0.0417,0.1276,0.171,0.1808,0.1921,0.2194,0.2566,0.2799,0.2835,0.2715,0.2737,0.2733,0.2693,0.2625,0.239,0.196,0.1951,0.1609,0.0906,0.0577,0.0336,0.0178,-0.0236,-0.045,-0.045,-0.0705,0.0,0.0,0.0,0.0,0.0,0.0,0.0,0.0,0.0,0.4888,0.461,0.0,0.5202,0.0,0.593,0.627,0.6225,0.6473,0.0,0.0,0.7769,0.8382,0.8693,0.9516,0.9991,0.9803,1.0023,1.0117,0.9934,0.995,1.008,1.0471,1.1256,1.1857,1.2037,1.2844,1.388,1.4841,1.5268,1.5971,1.728,1.7761,1.8402,1.9969,2.0215,2.0865,2.2829,2.3225,2.356,2.4411,2.4734,2.4976,2.5498,2.5527,2.6103,2.7544,2.8415,2.9115,3.004,3.0525,3.0966,-1.7512,-1.7001,-1.7001,-1.6781,-1.6444,-1.6508,-1.606,-1.5172,-1.4125,-1.2444,-1.0382,-0.8654,-0.7164,-0.5932,-0.5818,-0.5605,-0.5318,-0.5213,-0.5146,-0.5021,-0.4397,-0.4051,-0.3879,-0.2821,-0.2318,-0.2267,-0.1199,-0.0665,-0.0605,0.0384,0.0942,0.1004,0.1642,0.211,0.2357,0.2578,0.2677,0.2695,0.2381,0.2077,0.1781,0.1553,0.1271,0.0898,0.0751,0.0341,-0.0364,-0.0575,-0.0846,-0.1154,-0.1572,-0.179,-0.181,-0.2091,-0.2254,0.0,0.0,0.0,0.0,0.0,0.0,0.0,0.0,0.0,0.0,0.0,0.3798,0.0,0.502,0.0,0.5277,0.5741,0.6206,0.6385,0.6949,0.7381,0.761,0.8141,0.8645,0.9017,0.9164,0.9372,0.9707,0.977,0.977,0.977,1.0237,1.0672,1.089,1.1685,1.2616,1.3364,1.3852,1.4504,1.5676,1.65,1.7394,1.8359,1.8584,1.9122,2.0843,2.1743,2.2397,2.3042,2.3734,2.4343,2.4703,2.4775,2.5098,2.5718,2.6158,2.6998,2.8668,2.9632,3.0361,-1.7001,-1.7001,-1.6872,-1.637,-1.5696,-1.5924,-1.5022,-1.3363,-1.3143,-1.1391,-0.8527,-0.7001,-0.6145,-0.5755,-0.5742,-0.5541,-0.5201,-0.5199,-0.5102,-0.4983,-0.4981,-0.4912,-0.4759,-0.3827,-0.3425,-0.3346,-0.2249,-0.1699,-0.1695,-0.0677,-0.0183,-0.0135,0.1077,0.1749,0.1792,0.1888,0.2127,0.2461,0.1751,0.1079,0.0446,0.0081,-0.0166,-0.0321,-0.0589,-0.1061,-0.1679,-0.1763,-0.2061,-0.2658,-0.3147,-0.3393,-0.3406,-0.3782,-0.3979,0.0,-0.3971,0.0,0.0,0.0,0.0,0.0,0.0,0.0,0.0,0.2026,0.2202,0.2257,0.4394,0.5335,0.4271,0.5277,0.5974,0.5999,0.6124,0.6199,0.6199,0.6323,0.6822,0.7897,0.7996,0.8396,0.9434,0.9599,0.9603,0.9636,0.9665,0.9793,0.9899,1.053,1.1137,1.1305,1.2254,1.3568,1.4382,1.5486,1.6563,1.7352,1.7457,1.787,1.9025,2.0287,2.1285,2.1744,2.2751,2.3751,2.4082,2.4128,2.4147,2.4297,2.4369,2.5253,2.7654,2.9022,2.9668,-1.7001,-1.6953,-1.6248,-1.5723,-1.5347,-1.4724,-1.38,-1.2751,-1.2505,-1.0849,-0.8218,-0.6715,-0.5873,-0.5563,-0.5494,-0.5347,-0.5137,-0.5135,-0.5008,-0.4836,-0.4836,-0.4826,-0.4784,-0.4583,-0.4508,-0.4425,-0.3335,-0.2858,-0.2944,-0.1739,-0.1198,-0.1285,-0.0925,-0.0649,-0.0492,0.0,0.0,0.0,0.092,0.0289,-0.0487,-0.066,-0.0953,-0.1378,-0.1462,0.0,-0.2304,-0.2661,-0.2934,-0.316,-0.3574,0.0,0.0,0.0,0.0,0.0,0.0,0.0,0.0,0.0,0.0,0.0,-0.1785,-0.0396,0.1383,0.1857,0.2036,0.2081,0.2909,0.3339,0.3126,0.3504,0.3806,0.3831,0.4583,0.5108,0.5131,0.5852,0.6822,0.7872,0.7996,0.8396,0.9402,0.9599,0.9599,0.9599,0.9599,0.9616,0.9644,0.9842,1.0249,1.1124,1.267,1.3944,1.425,1.5191,1.5883,1.5929,1.585,1.6179,1.6944,1.7309,1.8298,1.9869,2.0557,2.1315,2.2597,2.2849,2.3027,2.3352,2.342,2.4153,2.6476,2.7424,2.8043,-1.6156,0.0,-1.5269,-1.4738,0.0,-1.3722,-1.2476,-1.0729,-1.0925,-0.946,-0.6872,-0.6067,-0.5616,-0.5441,-0.5353,-0.5239,-0.5106,-0.5061,-0.4967,-0.4786,-0.4782,-0.4782,-0.4782,-0.4782,-0.4782,-0.478,-0.4176,-0.3924,-0.3883,-0.2766,-0.2205,-0.2229,-0.1575,-0.1207,-0.1096,-0.1128,-0.0888,-0.0336,-0.0503,-0.0985,-0.176,-0.1992,-0.2257,-0.2621,0.0,0.0,0.0,0.0,0.0,0.0,0.0,0.0,0.0,0.0,0.0,-0.4149,-0.4253,-0.434,-0.4424,-0.4457,-0.4053,-0.3157,-0.1655,-0.012,0.1431,0.1838,0.195,0.1817,0.2297,0.2598,0.2598,0.2826,0.3054,0.3205,0.3682,0.4008,0.4058,0.4506,0.5454,0.6896,0.722,0.7798,0.9402,0.9599,0.9599,0.9599,0.9599,0.9567,0.9522,0.9571,0.994,1.0825,1.2244,1.3424,1.3871,1.4743,1.5371,1.524,1.5207,1.5343,1.5634,1.6213,1.7179,1.8823,1.9613,2.0537,2.1826,2.2207,2.2275,2.2492,2.2551,2.2934,2.4368,2.5609,2.6581,-1.5219,-1.4664,-1.4352,-1.3674,-1.2847,-1.2663,-1.1069,-0.8527,0.0,0.0,0.0,-0.5457,-0.5409,-0.5403,-0.5258,-0.5167,-0.5106,-0.504,-0.4948,-0.4784,-0.4782,-0.4782,-0.4782,-0.4782,-0.4782,-0.4778,-0.4734,-0.4655,-0.4568,-0.3681,-0.322,-0.3087,-0.2152,-0.1677,-0.1655,-0.1677,-0.1868,-0.221,-0.2015,-0.2286,-0.3013,-0.334,-0.3538,-0.37,-0.3875,-0.3956,-0.399,-0.3942,-0.3946,-0.4036,-0.4154,-0.4201,-0.4219,-0.431,-0.4356,-0.4312,-0.448,-0.4578,-0.4595,-0.4611,-0.4096,-0.2928,-0.1268,0.0246,0.148,0.1803,0.1844,0.1617,0.207,0.2422,0.2422,0.27,0.2953,0.318,0.3205,0.323,0.3205,0.3205,0.4131,0.5949,0.647,0.7223,0.9274,0.9599,0.9587,0.9583,0.9563,0.9632,0.9613,0.9731,1.0002,1.0654,1.1867,1.2806,1.3374,1.4347,1.4921,1.4926,1.4905,1.4908,1.5054,1.5849,1.6958,1.8087,1.9212,2.0299,2.1375,2.1641,2.1681,2.1661,2.1671,2.1748,2.2236,2.3815,2.5146,-1.4872,-1.4632,-1.3789,-1.2807,-1.1757,-1.1,-0.9456,-0.7377,-0.6571,-0.5959,-0.5603,-0.5459,-0.5409,-0.5405,-0.5258,-0.5169,-0.5104,-0.504,-0.4922,0.0,-0.4782,-0.4782,-0.4782,-0.4782,-0.4782,-0.4797,-0.4671,-0.4626,-0.4631,-0.43,-0.4123,-0.4145,-0.3954,-0.3827,-0.3849,-0.3849,-0.3883,-0.3927,-0.3152,-0.313,-0.3978,-0.4098,-0.4148,-0.4128,-0.4133,-0.4102,-0.3996,-0.4003,-0.4038,-0.417,-0.4188,-0.4225,-0.4277,-0.4308,-0.4312,-0.4306,-0.4375,-0.4464,-0.4593,-0.4645,-0.386,-0.2022,-0.1529,-0.0553,0.1384,0.1639,0.1642,0.1617,0.2095,0.2422,0.2447,0.2851,0.313,0.318,0.3205,0.3205,0.3205,0.3205,0.4031,0.6124,0.642,0.7195,0.9135,0.9587,0.9551,0.9457,0.9396,0.9606,1.0019,1.0352,1.0412,1.0728,1.207,1.3127,1.3525,1.4302,1.4779,1.4594,1.4561,1.4574,1.4509,1.524,1.631,1.7569,1.8545,1.9552,2.0614,2.0772,2.085,2.0879,2.0909,2.0928,2.1046,2.24,2.3651,-1.2874,-1.2365,-1.1317,-1.0557,-0.9988,-0.9029,-0.8102,-0.711,-0.6008,-0.5543,-0.5528,-0.5463,-0.5355,-0.53,-0.5185,-0.512,-0.5057,-0.4939,-0.485,-0.4784,-0.4782,-0.4782,-0.478,-0.4763,-0.4491,-0.4035,-0.4416,-0.4306,-0.3838,-0.4154,-0.4369,-0.4359,-0.4273,-0.4252,-0.4252,-0.4252,-0.4275,-0.4275,-0.3855,-0.3815,-0.4242,-0.4234,-0.4232,-0.4238,-0.4221,-0.4174,-0.4112,-0.411,-0.4152,-0.4216,-0.4238,-0.4259,-0.4297,-0.4322,-0.435,-0.4352,-0.4459,-0.4528,-0.4616,-0.4121,-0.3185,-0.1711,-0.1058,-0.0101,0.1465,0.1592,0.1667,0.1794,0.2046,0.2297,0.2574,0.2826,0.3054,0.3205,0.3205,0.3205,0.3205,0.3205,0.4056,0.5974,0.642,0.7192,0.9242,0.9478,0.9437,0.9266,0.9141,0.9235,0.961,1.0391,1.1169,1.1784,1.2635,1.3288,1.3702,1.415,1.4429,1.4302,1.4282,1.4271,1.4257,1.4748,1.5683,1.7111,1.796,1.8888,2.0265,2.0596,2.0596,2.0596,2.0596,2.0596,2.077,2.1869,2.3327,-1.0776,-1.0146,-0.9266,-0.8714,-0.8368,-0.7351,-0.6874,-0.6743,-0.5894,-0.5496,-0.5467,-0.5388,-0.5285,-0.5209,-0.5128,-0.5065,-0.4993,-0.4877,-0.4784,-0.4782,-0.4782,-0.4782,-0.4751,-0.4518,-0.3986,-0.3396,-0.3722,-0.3487,-0.287,-0.3633,-0.4132,-0.4251,-0.4206,-0.4216,-0.4216,-0.4216,-0.4236,-0.4312,-0.4234,-0.4234,-0.4295,-0.4256,-0.4232,-0.4287,-0.4234,-0.4221,-0.4225,-0.4223,-0.4223,-0.4225,-0.4263,-0.4297,-0.4302,-0.4342,-0.4383,-0.4389,-0.4489,-0.4456,-0.4213,-0.3352,-0.235,-0.1342,-0.0498,0.0473,0.1496,0.1671,0.1778,0.1967,0.2072,0.2297,0.27,0.2876,0.2973,0.3164,0.3198,0.3323,0.3512,0.3534,0.4328,0.6261,0.6684,0.7354,0.88,0.9319,0.925,0.9056,0.8877,0.8857,0.9388,1.0535,1.1701,1.2835,1.324,1.3467,1.4016,1.4108,1.4157,1.4145,1.4173,1.4285,1.4412,1.4727,1.5641,1.7253,1.808,1.9007,2.0284,2.0596,2.0596,2.0596,2.0596,2.0712,2.128,2.2341,2.3628,-0.9513,-0.9246,-0.9057,-0.8456,-0.7423,-0.6385,-0.5911,-0.5764,-0.5549,-0.5463,-0.5392,-0.5268,-0.5198,-0.5166,-0.5065,-0.5009,-0.4987,-0.485,-0.4784,-0.4757,-0.4782,-0.4784,-0.4582,-0.3793,-0.3336,-0.3105,-0.2326,-0.188,-0.1751,-0.2629,-0.3425,-0.4128,-0.422,-0.4216,-0.4216,-0.4216,-0.4238,-0.4295,-0.4291,-0.4314,-0.4297,-0.4291,-0.4291,-0.4297,-0.4291,-0.4287,-0.4281,-0.4312,-0.4285,-0.4312,-0.4293,-0.4297,-0.43,-0.4308,-0.4312,-0.4273,-0.4352,-0.4082,-0.3272,-0.2359,-0.1361,-0.0382,-0.012,0.0528,0.173,0.1873,0.1901,0.2024,0.2218,0.2491,0.2775,0.3,0.3129,0.3114,0.3221,0.3534,0.4286,0.4514,0.5296,0.7416,0.7415,0.7853,0.8867,0.9108,0.9039,0.8869,0.8853,0.9204,1.0396,1.1105,1.1956,1.3393,1.3959,1.398,1.4109,1.4109,1.4166,1.43,1.4363,1.4531,1.5026,1.6144,1.7557,1.7807,1.9085,2.006,2.0382,2.0596,2.0596,2.0625,2.0741,2.104,2.2379,2.3353,2.4228,-0.8224,-0.8069,-0.7477,-0.6926,-0.6396,-0.5886,-0.5618,-0.5557,-0.5469,-0.5442,-0.528,-0.4548,-0.4546,-0.5105,-0.5086,-0.4996,-0.489,-0.4826,-0.4458,-0.3904,-0.3853,-0.3525,-0.2894,-0.244,-0.1938,-0.1467,-0.125,-0.0925,-0.075,-0.1911,-0.2837,-0.3197,-0.3823,-0.4216,-0.4216,-0.4216,-0.4238,-0.4295,-0.4297,-0.4297,-0.4297,-0.4297,-0.4297,-0.4297,-0.4297,-0.4297,-0.4297,-0.4297,-0.4297,-0.4297,-0.4297,-0.4297,-0.4297,-0.4297,-0.4052,-0.3518,-0.2932,-0.2514,-0.2216,-0.1121,-0.0282,0.0119,0.0833,0.1525,0.198,0.2075,0.2138,0.2334,0.2439,0.2645,0.2922,0.3078,0.3142,0.3195,0.3654,0.4204,0.4508,0.5069,0.6003,0.736,0.7574,0.7846,0.8639,0.8844,0.8782,0.8763,0.9011,0.9733,1.0463,1.1365,1.2378,1.3109,1.3716,1.4067,1.4109,1.4109,1.4201,1.4342,1.4398,1.4629,1.5539,1.6221,1.7208,1.8318,1.9342,2.0128,2.0489,2.0586,2.0605,2.0663,2.1126,2.1671,2.2779,2.3573,2.4337,-0.7072,-0.6955,-0.6191,-0.5841,-0.5772,-0.5626,-0.554,-0.5502,-0.5418,-0.5214,-0.4834,-0.3928,-0.3729,-0.4146,-0.4451,-0.4518,-0.4365,-0.4356,-0.3776,-0.2846,-0.2771,-0.2343,-0.1611,-0.1218,-0.0707,-0.0095,-0.0117,0.0069,0.0315,-0.0834,-0.1697,-0.1974,-0.275,-0.3194,-0.3285,-0.3505,-0.3773,-0.3913,-0.4143,-0.4297,-0.4297,-0.4297,-0.4297,-0.4297,-0.4297,-0.4297,-0.4297,-0.4297,-0.4297,-0.4297,-0.4297,-0.4186,-0.3942,-0.3918,-0.3492,-0.253,-0.1566,-0.1014,-0.1052,0.0092,0.0806,0.0888,0.1711,0.2229,0.2276,0.23,0.2416,0.2626,0.2672,0.2792,0.3054,0.3332,0.347,0.3527,0.4351,0.5003,0.5359,0.5925,0.6674,0.7635,0.791,0.8001,0.8557,0.8639,0.8533,0.8674,0.9327,1.0072,1.0419,1.1666,1.2769,1.303,1.3716,1.406,1.4159,1.4201,1.4286,1.4517,1.4636,1.4929,1.5829,1.6263,1.6939,1.8298,1.9054,1.9755,2.0411,2.0596,2.0625,2.0789,2.1366,2.2191,2.2872,2.372,2.4528,-0.6137,-0.6013,-0.5857,-0.5786,-0.5765,-0.5534,-0.5453,-0.5349,-0.5332,-0.4706,-0.3721,-0.3485,-0.2904,-0.2019,-0.2811,-0.3233,-0.3249,-0.3249,-0.267,-0.1713,-0.1639,-0.1639,-0.1538,-0.0579,0.0074,0.0502,0.1239,0.133,0.0788,0.0617,0.0228,-0.056,-0.0751,-0.082,-0.1211,-0.2035,-0.2573,-0.2984,-0.3697,-0.4208,-0.4208,-0.4208,-0.4164,-0.4141,-0.4275,-0.4231,-0.4231,-0.4275,-0.4231,-0.4253,-0.4164,-0.3829,-0.3068,-0.2935,-0.244,-0.1522,-0.0582,0.0045,0.0359,0.1169,0.1779,0.2028,0.2149,0.2299,0.2468,0.2514,0.2604,0.2842,0.2942,0.303,0.324,0.3854,0.4328,0.4435,0.5244,0.6168,0.7057,0.6989,0.761,0.8385,0.8477,0.8426,0.8556,0.8435,0.8539,0.8804,0.9397,1.0311,1.1192,1.2137,1.3067,1.3722,1.4082,1.418,1.4335,1.4335,1.4545,1.4866,1.5041,1.5291,1.5906,1.662,1.7501,1.8427,1.9529,2.0245,2.0489,2.0625,2.0663,2.1059,2.2002,2.2771,2.3187,2.4348,2.507,-0.5978,-0.5878,-0.5849,-0.5747,-0.5562,-0.4747,-0.4333,-0.4205,-0.3423,-0.2883,-0.2317,-0.1465,-0.1175,-0.135,-0.0738,-0.1132,-0.2093,-0.2014,-0.1334,-0.0403,-0.0151,0.0302,0.0983,0.1387,0.1568,0.1728,0.216,0.2371,0.2174,0.1502,0.0985,0.056,-0.0117,-0.0609,-0.0907,-0.1264,-0.162,-0.1938,-0.2323,-0.2438,-0.2486,-0.2438,-0.2438,-0.2483,-0.309,-0.3405,-0.3403,-0.2797,-0.2437,-0.2438,-0.2438,-0.2304,-0.1946,-0.1388,-0.0896,-0.047,0.0538,0.1189,0.1368,0.1885,0.2289,0.2379,0.256,0.2649,0.2739,0.2761,0.2807,0.2985,0.352,0.3801,0.3881,0.4233,0.4741,0.5432,0.6136,0.6779,0.7171,0.749,0.7934,0.8336,0.835,0.8219,0.8421,0.8776,0.9197,0.9444,1.0674,1.1649,1.2223,1.3103,1.3893,1.4188,1.4405,1.4573,1.4831,1.4566,1.458,1.5096,1.5499,1.6304,1.6992,1.7813,1.8696,1.9204,2.0226,2.0489,2.0615,2.0741,2.0799,2.1414,2.2379,2.3206,2.3599,2.4582,2.5158,-0.5251,-0.5219,-0.4751,-0.4499,-0.431,-0.3467,-0.2997,-0.277,-0.1987,-0.1372,-0.0809,0.0138,0.0329,0.0218,0.1078,0.0924,-0.0206,-0.0384,0.0051,0.101,0.1276,0.1734,0.23,0.2411,0.2463,0.253,0.2727,0.2917,0.301,0.2276,0.1898,0.1825,0.1038,0.0556,0.0288,-0.0047,-0.0399,-0.0628,-0.0942,-0.1118,-0.1118,-0.1133,-0.1197,-0.1309,-0.164,-0.2038,-0.2372,-0.1744,-0.1409,-0.1409,-0.1409,-0.1253,-0.0918,0.0022,0.0583,0.0673,0.1413,0.1952,0.2064,0.2334,0.2537,0.2627,0.2785,0.2897,0.292,0.3163,0.3342,0.3542,0.4188,0.481,0.5124,0.524,0.5516,0.6301,0.6983,0.7393,0.7426,0.7764,0.805,0.821,0.8093,0.8106,0.8462,0.9062,0.9571,0.9995,1.1624,1.2599,1.2902,1.3732,1.4503,1.451,1.4587,1.479,1.4964,1.4824,1.5179,1.5705,1.6044,1.6944,1.7876,1.8776,1.9479,2.005,2.0391,2.0527,2.0683,2.0838,2.1242,2.1785,2.2705,2.3647,2.4138,2.4671,2.5194,-0.3932,-0.3791,-0.2515,-0.2128,-0.2125,-0.1837,-0.1568,-0.1288,-0.1147,-0.0252,0.0756,0.0978,0.1553,0.2305,0.2435,0.2491,0.2184,0.1434,0.1463,0.2218,0.2459,0.2504,0.2491,0.255,0.2655,0.2747,0.2975,0.3092,0.3078,0.3002,0.2951,0.3028,0.2916,0.2587,0.2674,0.1635,0.1113,0.0764,0.0095,-0.0355,-0.0474,-0.0395,-0.0483,-0.0667,-0.0091,-0.0202,-0.123,-0.123,-0.1141,-0.1185,-0.1185,-0.0896,0.009,0.1076,0.175,0.1728,0.2019,0.2289,0.2446,0.2492,0.2649,0.2854,0.2945,0.3082,0.3211,0.3847,0.4369,0.447,0.5213,0.6033,0.6757,0.6878,0.6892,0.699,0.7668,0.8005,0.8001,0.7987,0.8077,0.8191,0.8078,0.8317,0.9066,0.957,0.9958,1.0968,1.2064,1.2958,1.3258,1.409,1.4601,1.4692,1.4783,1.4978,1.5048,1.5173,1.5829,1.6412,1.6678,1.7249,1.8178,1.9074,1.9578,2.0108,2.0411,2.0566,2.0722,2.0924,2.1576,2.2209,2.3187,2.4011,2.4528,2.4969,2.5264,-0.2507,-0.2308,-0.1841,-0.1498,-0.1173,-0.0338,0.014,0.0336,0.1064,0.1737,0.213,0.2353,0.2625,0.2922,0.317,0.3251,0.3176,0.2901,0.2816,0.2824,0.3052,0.3103,0.3075,0.3083,0.3154,0.32,0.3258,0.3275,0.3243,0.3253,0.322,0.319,0.3196,0.3069,0.2798,0.2493,0.2197,0.1942,0.1607,0.143,0.1427,0.1355,0.1272,0.1246,0.1496,0.1435,0.1098,0.0739,0.0538,0.0493,0.0717,0.103,0.148,0.1862,0.2064,0.2086,0.2267,0.2424,0.2515,0.2697,0.2856,0.3063,0.3633,0.3946,0.4012,0.4936,0.5522,0.5593,0.6414,0.724,0.7513,0.7967,0.8081,0.8069,0.8007,0.8061,0.8126,0.7992,0.7902,0.802,0.8378,0.8887,0.9576,1.0217,1.1409,1.2081,1.3113,1.3844,1.4189,1.4552,1.4957,1.4978,1.509,1.5208,1.5437,1.5816,1.6501,1.7168,1.7533,1.7908,1.8758,1.9362,1.9834,2.0137,2.0411,2.0605,2.0741,2.1261,2.1945,2.263,2.35,2.4174,2.4773,2.5141,2.5435,-0.0816,-0.06,-0.0088,0.0232,0.0487,0.1304,0.1661,0.1821,0.2494,0.2917,0.3057,0.3195,0.3278,0.3334,0.3503,0.3565,0.3537,0.3572,0.3465,0.3268,0.337,0.3458,0.3394,0.3386,0.3386,0.3386,0.3385,0.3367,0.3331,0.3353,0.3298,0.3248,0.3239,0.3149,0.2978,0.2944,0.285,0.2697,0.2624,0.2632,0.2622,0.2557,0.2484,0.243,0.239,0.2334,0.2204,0.1861,0.1696,0.173,0.1862,0.2019,0.2177,0.2244,0.2312,0.236,0.2553,0.2837,0.322,0.35,0.376,0.4158,0.4792,0.5127,0.5229,0.6106,0.668,0.678,0.7566,0.8176,0.8139,0.8389,0.8653,0.8497,0.8187,0.8057,0.8167,0.8016,0.8162,0.8513,0.9009,0.9656,1.0702,1.1482,1.2776,1.3294,1.398,1.458,1.4796,1.502,1.5152,1.5215,1.5277,1.552,1.5906,1.6489,1.7168,1.7856,1.8467,1.8957,1.9619,1.9991,2.0411,2.0391,2.0566,2.0566,2.0722,2.1737,2.2537,2.3195,2.3793,2.4546,2.5158,2.5282,2.5523,0.1066,0.1203,0.2375,0.2713,0.2703,0.2782,0.2841,0.3058,0.311,0.3278,0.3503,0.3531,0.3559,0.3587,0.3587,0.3583,0.3614,0.3611,0.3585,0.3547,0.3568,0.3526,0.3451,0.3444,0.3417,0.3411,0.3409,0.3398,0.3389,0.3416,0.3361,0.3305,0.329,0.3269,0.3199,0.3184,0.3173,0.3119,0.3145,0.3143,0.314,0.3088,0.2983,0.2808,0.2732,0.2589,0.2371,0.2433,0.2387,0.2234,0.2213,0.2266,0.2301,0.2478,0.2736,0.2807,0.2982,0.3761,0.4453,0.4655,0.5007,0.5756,0.6082,0.629,0.6385,0.7204,0.7837,0.7839,0.8535,0.8914,0.87,0.8645,0.8566,0.8378,0.8293,0.8187,0.804,0.7987,0.8399,0.9289,0.978,1.0438,1.2129,1.2666,1.3373,1.4014,1.4493,1.4772,1.5024,1.5236,1.5368,1.5451,1.5506,1.5906,1.6304,1.7318,1.7977,1.8459,1.9114,1.9687,2.0128,2.0411,2.0596,2.0596,2.0596,2.0596,2.104,2.2059,2.2835,2.336,2.4084,2.4963,2.5347,2.5435,2.5588,0.254,0.2767,0.3065,0.3279,0.3453,0.3478,0.3444,0.3478,0.3475,0.3503,0.3587,0.3587,0.3587,0.3587,0.3587,0.3587,0.3587,0.3587,0.3587,0.3587,0.3587,0.3604,0.3574,0.3567,0.3537,0.3536,0.3529,0.3547,0.3477,0.3476,0.3417,0.3387,0.3349,0.3293,0.3269,0.3232,0.3206,0.3205,0.3206,0.3208,0.3198,0.3174,0.3067,0.3036,0.3059,0.3023,0.2979,0.3589,0.344,0.258,0.2561,0.2674,0.2993,0.3622,0.4035,0.4134,0.4807,0.5415,0.568,0.5779,0.5936,0.6222,0.707,0.7406,0.7342,0.842,0.8954,0.9016,0.9235,0.929,0.9136,0.8912,0.8704,0.8537,0.8489,0.8345,0.8168,0.8037,0.8433,0.951,1.0481,1.1587,1.2689,1.3627,1.4262,1.4738,1.4926,1.5023,1.5228,1.5326,1.541,1.5665,1.5844,1.6304,1.6923,1.7997,1.8747,1.9134,1.9677,2.0206,2.043,2.0527,2.0596,2.0596,2.0596,2.0596,2.1395,2.2341,2.2928,2.3452,2.4402,2.5223,2.5347,2.5435,2.5641,0.3441,0.359,0.3557,0.3631,0.3753,0.3757,0.371,0.3628,0.3625,0.3587,0.3587,0.3587,0.3587,0.3587,0.3587,0.3587,0.3587,0.3587,0.3587,0.3587,0.3587,0.3614,0.3613,0.3615,0.3587,0.3587,0.3587,0.3567,0.354,0.3536,0.3503,0.3454,0.3413,0.3357,0.3332,0.3304,0.3307,0.3278,0.3259,0.3243,0.3238,0.3634,0.38,0.3936,0.4187,0.4469,0.4556,0.5025,0.472,0.3839,0.3875,0.4255,0.4421,0.4916,0.527,0.532,0.5902,0.639,0.6849,0.6957,0.7186,0.7612,0.8323,0.8503,0.8622,0.9225,0.9555,0.9404,0.9449,0.9372,0.9152,0.8873,0.8891,0.9108,0.9044,0.8969,0.8948,0.9398,1.0061,1.1042,1.1918,1.273,1.374,1.4545,1.4957,1.5166,1.5207,1.5276,1.5368,1.5389,1.5493,1.5748,1.6242,1.6768,1.7452,1.8467,1.9312,1.9736,1.9971,2.0547,2.0596,2.0596,2.0596,2.0596,2.0596,2.0838,2.1595,2.2322,2.2891,2.3592,2.4612,2.5194,2.5329,2.5518,2.5706,0.3919,0.3919,0.3919,0.3916,0.3879,0.3824,0.3757,0.37,0.364,0.3587,0.3587,0.3587,0.3587,0.3587,0.3587,0.3587,0.3587,0.3587,0.3587,0.3671,0.381,0.3949,0.3977,0.3699,0.3615,0.3587,0.3587,0.3585,0.3578,0.361,0.3557,0.3593,0.3631,0.3709,0.3903,0.3884,0.3833,0.4021,0.413,0.4095,0.4185,0.4698,0.505,0.5144,0.5687,0.6078,0.6199,0.6385,0.6066,0.5084,0.5815,0.5966,0.61,0.6214,0.6409,0.6503,0.678,0.7294,0.7883,0.8147,0.8499,0.9165,0.9395,0.9599,0.9493,0.9562,0.9543,0.9457,0.9522,0.9332,0.9053,0.8843,0.9309,0.9897,1.0109,1.0444,1.0733,1.1322,1.2141,1.3169,1.3487,1.4118,1.481,1.5264,1.5389,1.5305,1.5347,1.5368,1.5389,1.541,1.5569,1.5824,1.6468,1.7249,1.8037,1.8915,1.9667,2.0274,2.0333,2.0596,2.0596,2.0596,2.0596,2.0596,2.0596,2.0905,2.148,2.2161,2.2854,2.3774,2.4826,2.5158,2.5329,2.5571,2.5793,0.3919,0.3919,0.3919,0.3916,0.3886,0.3854,0.3764,0.3702,0.3613,0.3587,0.3587,0.3587,0.3587,0.3615,0.3671,0.3587,0.3727,0.3754,0.3587,0.3726,0.4674,0.4953,0.4814,0.4229,0.3727,0.3754,0.3643,0.3671,0.3699,0.3892,0.3638,0.3785,0.4589,0.4903,0.4963,0.5578,0.6212,0.6207,0.6109,0.5927,0.5858,0.6186,0.6445,0.643,0.6669,0.6762,0.7007,0.7505,0.7791,0.756,0.6956,0.6645,0.6768,0.7263,0.7607,0.7813,0.8399,0.8932,0.9153,0.9192,0.9331,0.9545,0.9648,0.9599,0.9599,0.9616,0.9591,0.9543,0.9478,0.9467,0.9425,0.9819,1.0386,1.0993,1.1899,1.2742,1.3039,1.2408,1.2431,1.3021,1.3571,1.4048,1.4978,1.5257,1.5389,1.541,1.541,1.541,1.5472,1.5535,1.5893,1.6291,1.7155,1.7986,1.8567,1.9352,1.9991,2.0469,2.0547,2.0596,2.0596,2.0596,2.0596,2.0596,2.0596,2.1021,2.1557,2.2349,2.3113,2.4084,2.4915,2.5141,2.5365,2.5623,2.5776,0.3919,0.3916,0.3921,0.392,0.3879,0.3795,0.3737,0.3699,0.3643,0.3587,0.3587,0.3587,0.3587,0.3671,0.4173,0.4452,0.459,0.5033,0.5284,0.5421,0.5977,0.6174,0.6144,0.5644,0.5226,0.5226,0.5254,0.5226,0.5226,0.5172,0.5365,0.5254,0.5865,0.6124,0.6142,0.6791,0.6913,0.6948,0.703,0.6993,0.6954,0.748,0.8086,0.8267,0.8353,0.8401,0.8598,0.892,0.9209,0.9142,0.8606,0.8155,0.8206,0.8693,0.8972,0.9158,0.9466,0.9876,0.9846,0.9799,0.9725,0.9746,0.9746,0.9746,0.9746,0.9746,0.9672,0.9752,1.0011,1.0359,1.0796,1.1129,1.1752,1.2535,1.3283,1.4138,1.4548,1.3935,1.3472,1.4027,1.4433,1.4734,1.5152,1.5319,1.5368,1.541,1.5465,1.5527,1.6126,1.625,1.6673,1.7196,1.8046,1.8756,1.9213,1.9775,2.0294,2.0566,2.0566,2.0596,2.0596,2.0596,2.0596,2.0605,2.0663,2.1126,2.1709,2.2529,2.3316,2.4065,2.4707,2.507,2.5347,2.5483,2.5606,0.3915,0.3935,0.4102,0.4195,0.4158,0.432,0.4407,0.4297,0.4175,0.4421,0.4173,0.4117,0.4477,0.4421,0.5228,0.562,0.5871,0.6394,0.6697,0.678,0.7196,0.7365,0.739,0.7529,0.7636,0.7612,0.7,0.6889,0.6864,0.7085,0.6642,0.7,0.7304,0.7343,0.7379,0.7633,0.7938,0.8023,0.8037,0.7963,0.7938,0.8594,0.9342,0.9817,0.992,0.9948,0.9949,1.008,1.0168,1.029,1.0294,1.0268,1.0251,1.0162,1.0145,1.0099,1.005,1.003,1.0023,0.9966,0.9868,0.9888,0.988,0.9851,0.9831,0.9877,0.9946,1.0334,1.0803,1.1788,1.266,1.2958,1.3413,1.4085,1.4427,1.5033,1.5596,1.5597,1.5376,1.5218,1.5183,1.5324,1.5335,1.5389,1.541,1.5466,1.5549,1.5818,1.6456,1.7033,1.7448,1.7865,1.8636,1.9312,1.9795,1.9971,2.0527,2.0596,2.0596,2.0596,2.0596,2.0596,2.0605,2.0683,2.0847,2.1376,2.204,2.2891,2.3592,2.4138,2.4636,2.5141,2.5312,2.5329,2.5453,0.3892,0.3998,0.5102,0.5437,0.5428,0.6378,0.6623,0.6628,0.6349,0.6503,0.642,0.6473,0.6336,0.6503,0.6639,0.6836,0.703,0.7445,0.7418,0.7584,0.814,0.8613,0.8727,0.9302,0.9801,0.9495,0.8441,0.7445,0.7335,0.7113,0.7529,0.7445,0.814,0.8589,0.8889,0.9471,0.9746,0.9633,0.9671,0.9659,0.9673,0.9915,1.0217,1.0565,1.0444,1.0452,1.0517,1.0465,1.0426,1.0614,1.063,1.0595,1.0493,1.0219,1.0026,1.0026,1.0068,1.0097,1.0068,0.9978,0.9896,0.9888,0.992,0.989,0.9837,0.997,1.0529,1.1315,1.2132,1.2931,1.2753,1.401,1.4634,1.5109,1.568,1.6312,1.6757,1.6729,1.6315,1.5973,1.5878,1.5826,1.5841,1.5846,1.5916,1.6134,1.6333,1.6651,1.7229,1.7779,1.825,1.8674,1.9123,1.9755,2.0313,2.0372,2.0596,2.0596,2.0596,2.0596,2.0596,2.0596,2.0644,2.0867,2.1299,2.188,2.2574,2.3335,2.4011,2.4654,2.5016,2.5294,2.5312,2.5347,2.5483,0.5752,0.5706,0.6348,0.6523,0.6515,0.6997,0.7254,0.7166,0.711,0.7113,0.7113,0.7113,0.7113,0.7279,0.7836,0.8306,0.8775,0.8968,0.8968,0.9165,0.9554,0.9833,0.9781,1.0496,1.0637,1.0414,0.9467,0.8885,0.8968,0.9054,0.8858,0.9109,0.9612,0.9805,0.9888,1.0304,1.0692,1.0719,1.0711,1.0655,1.0574,1.0664,1.0711,1.0664,1.0623,1.0619,1.0643,1.0631,1.0603,1.0668,1.0715,1.0719,1.0614,1.0416,1.0201,1.0266,1.0274,1.0286,1.0296,1.0233,1.0154,1.015,1.019,1.0474,1.0802,1.1203,1.1736,1.2989,1.3795,1.4674,1.5251,1.5975,1.6484,1.6756,1.7129,1.7447,1.7695,1.7655,1.7255,1.6749,1.6737,1.671,1.6535,1.6536,1.6542,1.676,1.7079,1.7619,1.8164,1.8801,1.9458,1.9642,2.002,2.0173,2.0586,2.0557,2.0596,2.0596,2.0605,2.0605,2.0615,2.0625,2.0944,2.1299,2.1813,2.2388,2.3132,2.3872,2.4528,2.5087,2.5206,2.5294,2.5312,2.5382,2.5483,0.7471,0.7285,0.7529,0.7584,0.7559,0.783,0.7918,0.7836,0.7916,0.7971,0.7833,0.7885,0.7971,0.8109,0.8834,0.9778,1.0692,1.061,1.0496,1.0468,1.0527,1.0665,1.0692,1.0719,1.0719,1.0692,1.0523,1.0719,1.0414,1.0386,1.061,1.0441,1.0606,1.0692,1.0665,1.0637,1.0719,1.0719,1.0719,1.0719,1.0719,1.0719,1.0719,1.0719,1.0719,1.0688,1.0688,1.0676,1.0699,1.0715,1.0719,1.0719,1.0699,1.0562,1.0527,1.066,1.066,1.0643,1.0586,1.047,1.0482,1.0841,1.0812,1.1402,1.2221,1.2796,1.3568,1.5004,1.5878,1.6312,1.6939,1.7679,1.7921,1.7983,1.8068,1.8306,1.8328,1.8306,1.8269,1.796,1.7792,1.7525,1.7271,1.6964,1.6899,1.789,1.8257,1.9194,1.9752,2.0421,2.0902,2.0886,2.0944,2.0799,2.081,2.0615,2.0625,2.0596,2.0644,2.0674,2.0664,2.0684,2.1198,2.1874,2.2347,2.294,2.3682,2.4312,2.4808,2.5158,2.5259,2.5294,2.5312,2.5329,2.5382,0.7455,0.7319,0.8564,0.8929,0.8901,0.9902,1.0353,1.017,1.008,1.0276,0.9966,1.0162,1.008,1.0111,1.0221,1.0527,1.0665,1.0719,1.0719,1.0719,1.0719,1.0719,1.0719,1.0719,1.0719,1.0719,1.0719,1.0719,1.0719,1.0719,1.0719,1.0719,1.0719,1.0719,1.0719,1.0719,1.0719,1.0719,1.0719,1.0719,1.0719,1.0719,1.0719,1.0719,1.0719,1.0719,1.0719,1.0719,1.0719,1.0719,1.0719,1.0719,1.0715,1.068,1.0664,1.0643,1.057,1.0442,1.0605,1.0673,1.1104,1.1767,1.1993,1.2519,1.3476,1.4559,1.5285,1.5436,1.6768,1.7509,1.7773,1.8084,1.816,1.8221,1.8353,1.8537,1.8657,1.8763,1.8756,1.8922,1.8698,1.8222,1.783,1.7493,1.7349,1.8481,1.9564,2.0508,2.1246,2.1782,2.2023,2.1926,2.172,2.1544,2.1426,2.1182,2.0938,2.0811,2.083,2.0879,2.0918,2.1145,2.1967,2.258,2.3075,2.3693,2.4487,2.4988,2.5165,2.5391,2.5697,2.5558,2.5294,2.5336,2.5546,0.9451,0.9245,0.984,1.0023,1.0017,1.0584,1.0797,1.0732,1.0719,1.0719,1.0719,1.0719,1.0719,1.0719,1.0719,1.0692,1.0719,1.0719,1.0719,1.0719,1.0719,1.0719,1.0719,1.0719,1.0719,1.0719,1.0719,1.0719,1.0719,1.0719,1.0719,1.0719,1.0719,1.0719,1.0719,1.0719,1.0719,1.0719,1.0719,1.0719,1.0719,1.0719,1.0719,1.0719,1.0719,1.0719,1.0719,1.0719,1.0719,1.0719,1.0719,1.0719,1.0911,1.1259,1.166,1.1651,1.1625,1.158,1.158,1.154,1.2146,1.2924,1.3373,1.3848,1.5007,1.6154,1.6988,1.7227,1.7962,1.8374,1.8391,1.8678,1.8759,1.8756,1.8684,1.8796,1.8972,1.9056,1.9159,1.9409,1.9636,1.9307,1.9124,1.9278,1.9604,2.077,2.1479,2.2002,2.246,2.2736,2.2838,2.2736,2.25,2.2236,2.215,2.1984,2.1641,2.1495,2.1466,2.1456,2.1391,2.174,2.2673,2.361,2.4341,2.4922,2.5459,2.5757,2.6032,2.6135,2.6231,2.6075,2.5955,2.6147,2.634,1.1013,1.0724,1.0719,1.0719,1.0719,1.0719,1.0719,1.0719,1.0719,1.0719,1.0719,1.0719,1.0719,1.0719,1.0719,1.0719,1.0719,1.0719,1.0719,1.0719,1.0719,1.0719,1.0719,1.0719,1.0719,1.0719,1.0719,1.0719,1.0719,1.0719,1.0719,1.0719,1.0719,1.0719,1.0719,1.0719,1.0719,1.0719,1.0719,1.0719,1.0719,1.0719,1.0719,1.0719,1.0719,1.0719,1.0719,1.0719,1.0719,1.0719,1.0719,1.0719,1.0829,1.1637,1.2173,1.2331,1.247,1.306,1.2952,1.2957,1.3302,1.411,1.4963,1.5541,1.6388,1.7582,1.8134,1.8156,1.8667,1.8911,1.9018,1.9172,1.9154,1.9165,1.9191,1.925,1.9316,1.935,1.9354,1.9465,1.9933,2.0791,2.0797,2.1221,2.198,2.3135,2.3588,2.3627,2.3733,2.3845,2.3818,2.3767,2.3437,2.3135,2.2932,2.2746,2.2414,2.2199,2.2148,2.237,2.2489,2.2859,2.3628,2.4574,2.5574,2.6078,2.656,2.6745,2.6873,2.6681,2.6592,2.6717,2.6765,2.6922,2.6928,1.1017,1.0719,1.0719,1.0719,1.0719,1.0719,1.0719,1.0719,1.0719,1.0719,1.0719,1.0719,1.0719,1.0719,1.0719,1.0719,1.0719,1.0719,1.0719,1.0719,1.0719,1.0719,1.0719,1.0719,1.0719,1.0719,1.0719,1.0719,1.0719,1.0719,1.0719,1.0719,1.0719,1.0719,1.0719,1.0719,1.0719,1.0719,1.0719,1.0719,1.0719,1.0719,1.0719,1.0719,1.0719,1.0719,1.0719,1.0719,1.088,1.088,1.0962,1.1149,1.1473,1.239,1.2955,1.3144,1.3652,1.4379,1.4808,1.403,1.3895,1.5322,1.6532,1.7008,1.7417,1.7977,1.8377,1.8534,1.8959,1.9168,1.9227,1.9298,1.9298,1.9298,1.9298,1.9298,1.9376,1.9576,1.958,1.9595,2.0357,2.1593,2.239,2.2794,2.3148,2.4191,2.4356,2.4392,2.4818,2.4967,2.4961,2.4853,2.4463,2.4121,2.3792,2.3508,2.3164,2.2998,2.2939,2.3459,2.3953,2.443,2.4961,2.5893,2.6918,2.7289,2.7516,2.7493,2.7373,2.7018,2.6958,2.7234,2.7325,2.7349,2.7246,1.0989,1.0724,1.0719,1.0719,1.0719,1.0719,1.0719,1.0719,1.0719,1.0719,1.0719,1.0719,1.0719,1.0719,1.0719,1.0719,1.0719,1.0719,1.0719,1.0719,1.0719,1.0719,1.0719,1.0719,1.0719,1.0719,1.0719,1.0719,1.0719,1.0798,1.0719,1.0719,1.088,1.0719,1.0719,1.0719,1.0719,1.0719,1.0719,1.0719,1.0719,1.0719,1.0719,1.0719,1.0719,1.0719,1.0719,1.0719,1.1122,1.1555,1.1742,1.2064,1.263,1.3706,1.4245,1.4379,1.4915,1.5695,1.6393,1.5509,1.5402,1.6479,1.7477,1.7898,1.8003,1.8463,1.8776,1.8985,1.9142,1.9272,1.9298,1.9298,1.9298,1.9298,1.9298,1.9298,1.955,1.9828,2.0225,2.0431,2.1709,2.3117,2.3773,2.435,2.4703,2.5114,2.5133,2.5177,2.5504,2.5708,2.5542,2.5415,2.5049,2.4976,2.4687,2.4326,2.3955,2.386,2.3795,2.444,2.5145,2.6021,2.6626,2.7514,2.8108,2.8415,2.8439,2.817,2.7914,2.7697,2.7745,2.795,2.7926,2.7781,2.7709,1.1001,1.0773,1.0712,1.0719,1.0719,1.0719,1.0719,1.0719,1.0719,1.0719,1.0719,1.0719,1.0719,1.0719,1.0719,1.0719,1.0719,1.0719,1.0719,1.0719,1.0719,1.0719,1.0719,1.0719,1.0719,1.0719,1.0719,1.0719,1.0719,1.104,1.1282,1.1419,1.15,1.1528,1.0719,1.0719,1.0719,1.0719,1.1072,1.0907,1.0852,1.1095,1.0907,1.0852,1.0719,1.1017,1.1204,1.1446,1.196,1.2553,1.2982,1.3307,1.4164,1.5076,1.5775,1.5994,1.6287,1.6803,1.71,1.7074,1.6803,1.7503,1.778,1.8122,1.8403,1.8705,1.8914,1.9071,1.9201,1.9298,1.9298,1.9298,1.9298,1.9298,1.9298,1.935,1.9983,2.038,2.0903,2.1379,2.276,2.3881,2.427,2.4732,2.5167,2.5421,2.5421,2.543,2.5552,2.5708,2.5689,2.5571,2.5415,2.5484,2.5538,2.5113,2.4736,2.4903,2.4984,2.5542,2.6272,2.7147,2.8008,2.8763,2.9228,2.9486,2.9244,2.8775,2.857,2.845,2.8406,2.8298,2.8298,2.8186,2.827,1.0996,1.0972,1.0765,1.0719,1.0719,1.0719,1.0719,1.0719,1.0719,1.0719,1.0719,1.0719,1.0719,1.0719,1.0719,1.0719,1.0719,1.0719,1.0719,1.0719,1.0962,1.0825,1.0935,1.104,1.1446,1.0857,1.1126,1.1341,1.1067,1.196,1.2309,1.2603,1.2928,1.2765,1.0962,1.077,1.0774,1.0907,1.1851,1.1714,1.1341,1.1851,1.1823,1.1473,1.1314,1.1742,1.22,1.2363,1.2955,1.3868,1.4056,1.4298,1.4754,1.5615,1.6107,1.6133,1.6962,1.745,1.7589,1.7536,1.7721,1.7938,1.8122,1.8279,1.8455,1.8724,1.8974,1.9123,1.9175,1.9272,1.9298,1.9298,1.9298,1.9298,1.9298,1.9628,2.0233,2.1056,2.1608,2.2408,2.3343,2.4196,2.4526,2.4903,2.5396,2.5659,2.5684,2.5708,2.5708,2.5708,2.5708,2.5679,2.5591,2.562,2.5654,2.5689,2.5595,2.5768,2.5972,2.6305,2.7115,2.8085,2.8963,2.9865,3.0121,3.0182,2.9749,2.9268,2.8967,2.8643,2.8534,2.8474,2.851,2.851,2.851,1.0923,1.0809,1.072,1.0719,1.0719,1.0719,1.0719,1.0719,1.0719,1.0719,1.0719,1.0719,1.0719,1.0719,1.0719,1.0719,1.0719,1.0719,1.0719,1.0825,1.1446,1.1769,1.196,1.2417,1.2792,1.2923,1.2923,1.2792,1.3058,1.341,1.3491,1.3733,1.4169,1.3647,1.3166,1.2874,1.2716,1.22,1.2765,1.3031,1.2146,1.2869,1.3302,1.2842,1.2792,1.3031,1.3491,1.3518,1.4137,1.5102,1.5289,1.5562,1.6021,1.6882,1.6915,1.7001,1.7562,1.7661,1.7913,1.814,1.8353,1.8436,1.8464,1.861,1.8764,1.8992,1.913,1.9163,1.9263,1.9334,1.9298,1.9298,1.9298,1.9298,1.9428,1.9905,2.056,2.1565,2.2391,2.3468,2.4427,2.4864,2.5216,2.5167,2.5552,2.5708,2.5708,2.5708,2.5708,2.5708,2.5708,2.5708,2.5679,2.5689,2.5708,2.5708,2.5708,2.5717,2.6064,2.6513,2.7514,2.881,2.979,3.0628,3.0738,3.0756,3.0275,2.9758,2.91,2.8751,2.8787,2.8631,2.851,2.851,2.851,1.087,1.0809,1.0744,1.0719,1.0719,1.0719,1.0719,1.0719,1.0719,1.0719,1.0719,1.0719,1.0719,1.0719,1.0719,1.0719,1.0747,1.1177,1.1309,1.1446,1.2472,1.2874,1.3275,1.3733,1.3728,1.4132,1.4132,1.4024,1.3944,1.4486,1.5031,1.5479,1.5511,1.5724,1.5308,1.4671,1.3652,1.3383,1.3949,1.4159,1.3679,1.3922,1.446,1.4105,1.4024,1.4245,1.4594,1.4915,1.5263,1.6101,1.6591,1.6809,1.7404,1.7622,1.7642,1.7695,1.7983,1.8204,1.8688,1.8939,1.9109,1.9163,1.9079,1.9086,1.9228,1.9502,1.9428,1.9411,1.943,1.9386,1.9364,1.9356,1.9461,1.9461,1.9966,2.0475,2.1724,2.2779,2.3413,2.4464,2.4996,2.5455,2.5708,2.5659,2.5684,2.5708,2.5708,2.5708,2.5708,2.5708,2.5708,2.5708,2.5708,2.5708,2.5708,2.5708,2.5708,2.5708,2.6284,2.6972,2.8157,2.95,3.0451,3.126,3.1253,3.1117,3.0744,3.0239,2.9637,2.9304,2.9292,2.9027,2.8619,2.8643,2.8775,1.0798,1.0951,1.082,1.0802,1.077,1.1017,1.0935,1.0747,1.0719,1.0747,1.0829,1.0907,1.1099,1.1017,1.0962,1.1099,1.1286,1.2118,1.2358,1.2788,1.3647,1.397,1.4239,1.4481,1.4856,1.4567,1.46,1.5093,1.4546,1.5587,1.6746,1.7501,1.7621,1.7576,1.6859,1.5958,1.4776,1.4753,1.5302,1.5254,1.4769,1.5365,1.5476,1.5169,1.4928,1.5303,1.5666,1.6021,1.6525,1.7107,1.7536,1.7563,1.7642,1.7635,1.7802,1.8111,1.8605,1.916,1.946,1.9652,1.9867,1.9883,1.9643,1.9635,1.9694,1.9903,1.9794,1.9681,1.9652,1.9561,1.9481,1.9631,1.9773,2.0176,2.0732,2.1789,2.3236,2.4104,2.4597,2.5145,2.5459,2.5718,2.5708,2.5708,2.5708,2.5708,2.5708,2.5708,2.5708,2.5708,2.5708,2.5708,2.5708,2.5708,2.5708,2.5708,2.5708,2.5708,2.6996,2.7864,2.9039,2.9909,3.0722,3.1304,3.1572,3.144,3.0925,3.054,3.0179,2.9941,2.9725,2.9532,2.916,2.922,2.934,1.0724,1.0876,1.1609,1.1932,1.2041,1.2765,1.2227,1.0829,1.0719,1.1095,1.1905,1.1905,1.2254,1.309,1.3144,1.3036,1.3199,1.341,1.3566,1.4078,1.4808,1.5209,1.5615,1.6021,1.6399,1.6548,1.6588,1.6532,1.6884,1.7508,1.769,1.8294,1.8517,1.845,1.8116,1.7571,1.6612,1.6145,1.6805,1.6457,1.6187,1.6713,1.6665,1.6536,1.6501,1.6832,1.6945,1.7066,1.7404,1.7523,1.7816,1.7876,1.7889,1.8123,1.8372,1.8714,1.932,1.9932,1.9899,2.0221,2.0463,2.0526,2.0326,2.0201,2.0196,2.0194,2.0159,1.9991,1.9974,1.9923,1.9949,2.0092,2.0389,2.0896,2.1617,2.2859,2.4168,2.4847,2.5327,2.5656,2.5952,2.5776,2.5757,2.5708,2.5708,2.5708,2.5708,2.5708,2.5708,2.5708,2.5708,2.5708,2.5708,2.5708,2.5708,2.5708,2.5708,2.5893,2.72,2.8251,2.8889,2.9727,3.0745,3.1361,3.1617,3.1428,3.0973,3.0708,3.0624,3.0263,3.0001,2.9881,2.9785,2.9866,2.989,1.2041,1.2146,1.2765,1.3085,1.3193,1.3814,1.3221,1.2146,1.2037,1.2494,1.3031,1.309,1.3464,1.389,1.397,1.3997,1.403,1.4567,1.4808,1.5102,1.5998,1.6399,1.6915,1.7199,1.7345,1.7695,1.7829,1.7679,1.8149,1.8464,1.8657,1.8671,1.8744,1.8744,1.864,1.8534,1.8265,1.78,1.7721,1.7611,1.7633,1.7748,1.7934,1.8003,1.815,1.8063,1.7956,1.7916,1.7923,1.7963,1.817,1.8217,1.827,1.8484,1.8889,1.9264,1.978,2.0287,2.0455,2.0703,2.086,2.0882,2.0868,2.0787,2.07,2.0691,2.0451,2.0247,2.032,2.0377,2.048,2.0624,2.1117,2.1606,2.2722,2.3834,2.4661,2.5377,2.5812,2.6193,2.6147,2.5932,2.5791,2.5757,2.5708,2.5708,2.5708,2.5708,2.5708,2.5708,2.5708,2.5708,2.5708,2.5708,2.5708,2.5708,2.5771,2.6173,2.7366,2.8285,2.8819,2.9841,3.1126,3.1528,3.1661,3.144,3.119,3.1214,3.1117,3.0768,3.0612,3.0684,3.0624,3.0516,3.0504,1.4051,1.4056,1.4218,1.4347,1.4379,1.4508,1.446,1.4379,1.4379,1.432,1.4272,1.4239,1.4379,1.4862,1.4915,1.4869,1.5231,1.5797,1.6179,1.6115,1.7021,1.7529,1.7562,1.7709,1.7849,1.7829,1.7983,1.8309,1.8349,1.8643,1.8965,1.8971,1.9165,1.9165,1.9018,1.9167,1.8895,1.8581,1.847,1.8392,1.8233,1.8328,1.851,1.8485,1.8511,1.8484,1.8464,1.847,1.8497,1.8484,1.851,1.8517,1.8684,1.8882,1.9314,1.9673,2.0138,2.0473,2.0794,2.1008,2.1102,2.1159,2.1203,2.1123,2.1035,2.1006,2.0779,2.0612,2.0656,2.1018,2.1194,2.1617,2.2108,2.3018,2.415,2.5014,2.5666,2.6222,2.6541,2.6738,2.6543,2.6274,2.5991,2.5942,2.5845,2.5776,2.5708,2.5708,2.5708,2.5708,2.5708,2.5708,2.5708,2.5708,2.5708,2.5732,2.5844,2.6466,2.7592,2.8564,2.9246,3.0362,3.1594,3.1705,3.1705,3.1705,3.1597,3.1548,3.149,3.1452,3.138,3.1573,3.1488,3.1153,3.1069,1.4105,1.4186,1.5081,1.5941,1.6717,1.6776,1.6717,1.677,1.6744,1.6207,1.5589,1.5535,1.5914,1.6426,1.6483,1.6532,1.693,1.6967,1.7575,1.7659,1.8121,1.8136,1.8257,1.8163,1.8237,1.837,1.8557,1.8751,1.8925,1.9132,1.9281,1.9281,1.9395,1.9314,1.9261,1.9388,1.9254,1.897,1.9032,1.8918,1.8751,1.8698,1.8751,1.8677,1.8651,1.8691,1.8644,1.8531,1.851,1.8504,1.8689,1.8911,1.9174,1.9413,1.9613,1.9863,2.0293,2.0644,2.0946,2.1176,2.1299,2.1276,2.1262,2.1225,2.1203,2.1211,2.1159,2.105,2.1096,2.1517,2.2086,2.2585,2.3298,2.4444,2.5514,2.6115,2.6713,2.6958,2.724,2.707,2.6885,2.665,2.6348,2.6133,2.6001,2.5884,2.5757,2.5708,2.5708,2.5708,2.5708,2.5708,2.5708,2.5708,2.5708,2.5732,2.5844,2.6624,2.7733,2.8704,2.9658,3.0712,3.1705,3.1705,3.1705,3.1705,3.1705,3.1693,3.1681,3.1705,3.1705,3.1705,3.1705,3.1476,3.1478,1.5636,1.5749,1.6372,1.6988,1.7529,1.7615,1.7615,1.7615,1.7615,1.7259,1.6717,1.6691,1.7021,1.7635,1.7722,1.7829,1.8036,1.8135,1.8174,1.8409,1.8537,1.8464,1.8497,1.8537,1.845,1.8564,1.8798,1.9032,1.9348,1.9388,1.9381,1.9395,1.9395,1.9395,1.9395,1.941,1.9321,1.9152,1.9334,1.9281,1.9105,1.9078,1.9087,1.9007,1.9,1.9013,1.8971,1.8878,1.8885,1.8905,1.9058,1.9145,1.9321,1.9441,1.9715,2.0074,2.0462,2.0851,2.1119,2.1387,2.1576,2.1562,2.162,2.1701,2.1474,2.1459,2.1328,2.1196,2.0896,2.1188,2.2642,2.3407,2.4677,2.5885,2.6616,2.7226,2.7257,2.7204,2.7246,2.706,2.7012,2.71,2.6768,2.6367,2.625,2.6123,2.5952,2.5767,2.5747,2.5796,2.5767,2.5757,2.5796,2.5737,2.5708,2.5757,2.582,2.6768,2.791,2.9223,3.0362,3.1082,3.1705,3.1705,3.1705,3.1705,3.1705,3.1705,3.1705,3.1705,3.1705,3.1705,3.1717,3.1729,3.1683,1.7503,1.7615,1.7589,1.7589,1.7615,1.7615,1.7615,1.7615,1.7615,1.7642,1.7583,1.7583,1.7642,1.7742,1.7876,1.8022,1.8196,1.8429,1.8557,1.8679,1.8671,1.8772,1.8759,1.8692,1.8711,1.8778,1.8945,1.9167,1.9388,1.9395,1.9395,1.9395,1.9395,1.9395,1.9395,1.9395,1.9354,1.9341,1.9388,1.9395,1.9388,1.9424,1.9348,1.9361,1.9395,1.9395,1.9388,1.9381,1.9381,1.9441,1.9421,1.9401,1.9388,1.9453,1.981,2.0142,2.0564,2.1042,2.1495,2.1876,2.2008,2.2074,2.2162,2.2052,2.1811,2.178,2.1647,2.1613,2.1308,2.1828,2.33,2.4648,2.5991,2.6958,2.756,2.7987,2.7721,2.7484,2.7298,2.7139,2.7275,2.7457,2.7194,2.6773,2.6514,2.6387,2.6221,2.5971,2.5854,2.5952,2.6016,2.5996,2.6006,2.5903,2.5757,2.5815,2.5884,2.7067,2.8285,2.9761,3.0948,3.1427,3.1705,3.1705,3.1705,3.1705,3.1705,3.1705,3.1705,3.1705,3.1705,3.1717,3.1777,3.1779,3.1779,1.7615,1.7615,1.7615,1.7615,1.7615,1.7615,1.7615,1.7615,1.7628,1.7716,1.7889,1.7929,1.7929,1.7929,1.7969,1.8183,1.8603,1.8798,1.904,1.9201,1.9107,1.916,1.916,1.9053,1.9194,1.9221,1.9214,1.9321,1.9395,1.9395,1.9395,1.9395,1.9395,1.9401,1.9408,1.9421,1.9455,1.9488,1.9488,1.9488,1.9428,1.9415,1.9395,1.9395,1.9395,1.9395,1.9395,1.9395,1.9535,1.9662,1.97,1.9622,1.9535,1.9524,1.9852,2.0354,2.0743,2.1239,2.1739,2.2138,2.2293,2.2118,2.2162,2.2186,2.22,2.2544,2.2632,2.298,2.2953,2.3509,2.4763,2.5969,2.7177,2.7588,2.8121,2.8059,2.791,2.7754,2.7607,2.7598,2.7721,2.7741,2.7624,2.7262,2.6934,2.6826,2.6768,2.6518,2.6264,2.6269,2.6269,2.626,2.626,2.5981,2.5806,2.5942,2.6236,2.7398,2.8595,2.9931,3.0931,3.1496,3.1705,3.1705,3.1705,3.1705,3.1705,3.1705,3.1705,3.1705,3.1705,3.1729,3.1815,3.2008,3.2176]},{"header":{"parameterUnit":"m.s-1","parameterCategory":1,"la1":31.0,"la2":29.5877,"lo1":-88.7671,"lo2":-86.6584,"dy":0.0162,"dx":0.0185,"nx":115,"ny":88,"refTime":"2023-09-20T12:00:00:Z","depth":0,"parameterNumber":3,"parameterNumberName":"V-component_of_WINDS"},"data":[0.0,0.0,0.0,0.0,0.0,0.0,0.0,0.0,0.0,0.0,0.0,0.0,0.0,0.0,0.0,0.0,0.0,0.0,0.0,0.0,0.0,0.0,0.0,0.0,0.0,0.0,0.0,0.0,0.0,0.0,0.0,0.0,0.0,0.0,0.0,0.0,0.0,0.0,0.0,0.0,0.0,0.0,0.0,0.0,0.0,0.0,0.0,0.0,0.0,0.0,0.0,0.0,0.0,0.0,0.0,0.0,0.0,0.0,0.0,0.0,0.0,0.0,0.0,0.0,0.0,0.0,0.0,0.0,0.0,0.0,0.0,0.0,0.0,0.0,0.0,0.0,0.0,0.0,0.0,0.0,0.0,0.0,0.0,0.0,0.0,0.0,0.0,0.0,0.0,0.0,0.0,0.0,0.0,0.0,0.0,0.0,0.0,0.0,0.0,0.0,0.0,0.0,0.0,0.0,0.0,0.0,0.0,0.0,0.0,0.0,0.0,0.0,0.0,0.0,0.0,0.0,0.0,0.0,0.0,0.0,0.0,0.0,0.0,0.0,0.0,0.0,0.0,0.0,0.0,0.0,0.0,0.0,0.0,0.0,0.0,0.0,0.0,0.0,0.0,0.0,0.0,0.0,0.0,0.0,0.0,0.0,0.0,0.0,0.0,0.0,0.0,0.0,0.0,0.0,0.0,0.0,0.0,0.0,0.0,0.0,0.0,0.0,0.0,0.0,0.0,0.0,0.0,0.0,0.0,0.0,0.0,0.0,0.0,0.0,0.0,0.0,0.0,0.0,0.0,0.0,0.0,0.0,0.0,0.0,0.0,0.0,0.0,0.0,0.0,0.0,0.0,0.0,0.0,0.0,0.0,0.0,0.0,0.0,0.0,0.0,0.0,0.0,0.0,0.0,0.0,0.0,0.0,0.0,0.0,0.0,0.0,0.0,0.0,0.0,0.0,0.0,0.0,0.0,0.0,0.0,0.0,0.0,0.0,0.0,0.0,0.0,0.0,0.0,0.0,0.0,0.0,0.0,0.0,0.0,0.0,0.0,0.0,0.0,0.0,0.0,0.0,0.0,0.0,0.0,0.0,0.0,0.0,0.0,0.0,0.0,0.0,0.0,0.0,0.0,0.0,0.0,0.0,0.0,0.0,0.0,0.0,0.0,0.0,0.0,0.0,0.0,0.0,0.0,0.0,0.0,0.0,0.0,0.0,0.0,0.0,0.0,0.0,0.0,0.0,0.0,0.0,0.0,0.0,0.0,0.0,0.0,0.0,0.0,0.0,0.0,0.0,0.0,0.0,0.0,0.0,0.0,0.0,0.0,0.0,0.0,0.0,0.0,0.0,0.0,0.0,0.0,0.0,0.0,0.0,0.0,0.0,0.0,0.0,0.0,0.0,0.0,0.0,0.0,0.0,0.0,0.0,0.0,0.0,0.0,0.0,0.0,0.0,0.0,0.0,0.0,0.0,0.0,0.0,0.0,0.0,0.0,0.0,0.0,0.0,0.0,0.0,0.0,0.0,0.0,0.0,0.0,0.0,0.0,0.0,0.0,0.0,0.0,0.0,0.0,0.0,0.0,0.0,0.0,0.0,0.0,0.0,0.0,0.0,0.0,0.0,0.0,0.0,0.0,0.0,0.0,0.0,0.0,0.0,0.0,0.0,0.0,0.0,0.0,0.0,0.0,0.0,0.0,0.0,0.0,0.0,0.0,0.0,0.0,0.0,0.0,0.0,0.0,0.0,0.0,0.0,0.0,0.0,0.0,0.0,0.0,0.0,0.0,0.0,0.0,0.0,0.0,0.0,0.0,0.0,0.0,0.0,0.0,0.0,0.0,0.0,0.0,0.0,0.0,0.0,0.0,0.0,0.0,0.0,0.0,0.0,0.0,0.0,0.0,0.0,0.0,0.0,0.0,0.0,0.0,0.0,0.0,0.0,0.0,0.0,0.0,0.0,0.0,0.0,0.0,0.0,0.0,0.0,0.0,0.0,0.0,0.0,0.0,0.0,0.0,0.0,0.0,0.0,0.0,0.0,0.0,0.0,0.0,0.0,0.0,0.0,0.0,0.0,0.0,0.0,0.0,0.0,0.0,0.0,0.0,0.0,0.0,0.0,0.0,0.0,0.0,0.0,0.0,0.0,0.0,0.0,0.0,0.0,0.0,0.0,0.0,0.0,0.0,0.0,0.0,0.0,0.0,0.0,0.0,0.0,0.0,0.0,0.0,0.0,0.0,0.0,0.0,0.0,0.0,0.0,0.0,0.0,0.0,0.0,0.0,0.0,0.0,0.0,0.0,0.0,0.0,0.0,0.0,0.0,0.0,0.0,0.0,0.0,0.0,0.0,0.0,0.0,0.0,0.0,0.0,0.0,0.0,0.0,0.0,0.0,0.0,0.0,0.0,0.0,0.0,0.0,0.0,0.0,0.0,0.0,0.0,0.0,0.0,0.0,0.0,0.0,0.0,0.0,0.0,0.0,0.0,0.0,0.0,0.0,0.0,0.0,0.0,0.0,0.0,0.0,0.0,0.0,0.0,0.0,0.0,0.0,0.0,0.0,0.0,0.0,0.0,0.0,0.0,0.0,0.0,0.0,0.0,0.0,0.0,0.0,0.0,0.0,0.0,0.0,0.0,0.0,0.0,0.0,0.0,0.0,0.0,0.0,0.0,0.0,0.0,0.0,0.0,0.0,0.0,0.0,0.0,0.0,0.0,0.0,0.0,0.0,0.0,0.0,0.0,0.0,0.0,0.0,0.0,0.0,0.0,0.0,0.0,0.0,0.0,0.0,0.0,0.0,0.0,0.0,0.0,0.0,0.0,0.0,0.0,0.0,0.0,0.0,0.0,0.0,0.0,0.0,0.0,0.0,0.0,0.0,0.0,0.0,0.0,0.0,0.0,0.0,0.0,0.0,0.0,0.0,0.0,0.0,0.0,0.0,0.0,0.0,0.0,0.0,0.0,0.0,0.0,0.0,0.0,0.0,0.0,0.0,0.0,0.0,0.0,0.0,0.0,0.0,0.0,0.0,0.0,0.0,0.0,0.0,0.0,0.0,0.0,0.0,0.0,0.0,0.0,0.0,0.0,0.0,0.0,0.0,0.0,0.0,0.0,0.0,0.0,0.0,0.0,0.0,0.0,0.0,0.0,0.0,0.0,0.0,0.0,0.0,0.0,0.0,0.0,0.0,0.0,0.0,0.0,0.0,0.0,0.0,0.0,0.0,0.0,0.0,0.0,0.0,0.0,0.0,0.0,0.0,0.0,0.0,0.0,0.0,0.0,0.0,0.0,0.0,0.0,0.0,0.0,0.0,0.0,0.0,0.0,0.0,0.0,0.0,0.0,0.0,0.0,0.0,0.0,0.0,0.0,0.0,0.0,0.0,0.0,0.0,0.0,0.0,0.0,0.0,0.0,0.0,0.0,0.0,0.0,0.0,0.0,0.0,0.0,0.0,0.0,0.0,0.0,0.0,0.0,0.0,0.0,0.0,0.0,0.0,0.0,0.0,0.0,0.0,0.0,0.0,0.0,0.0,0.0,0.0,0.0,0.0,0.0,0.0,0.0,0.0,0.0,0.0,0.0,0.0,0.0,0.0,0.0,0.0,0.0,0.0,0.0,0.0,0.0,0.0,0.0,0.0,0.0,0.0,0.0,0.0,0.0,0.0,0.0,0.0,0.0,0.0,0.0,0.0,0.0,0.0,0.0,0.0,0.0,0.0,0.0,0.0,0.0,0.0,0.0,0.0,0.0,0.0,0.0,0.0,0.0,0.0,0.0,0.0,0.0,0.0,0.0,0.0,0.0,0.0,0.0,0.0,0.0,0.0,0.0,0.0,0.0,0.0,0.0,0.0,0.0,0.0,0.0,0.0,0.0,0.0,0.0,0.0,0.0,0.0,0.0,0.0,0.0,0.0,0.0,0.0,0.0,0.0,0.0,0.0,0.0,0.0,0.0,0.0,0.0,0.0,0.0,0.0,0.0,0.0,0.0,0.0,0.0,0.0,0.0,0.0,0.0,0.0,0.0,0.0,0.0,0.0,0.0,0.0,0.0,0.0,0.0,0.0,0.0,0.0,0.0,0.0,0.0,0.0,0.0,0.0,0.0,0.0,0.0,0.0,0.0,0.0,0.0,0.0,0.0,0.0,0.0,0.0,0.0,0.0,0.0,0.0,0.0,0.0,0.0,0.0,0.0,0.0,0.0,0.0,0.0,0.0,0.0,0.0,0.0,0.0,0.0,0.0,0.0,0.0,0.0,0.0,0.0,0.0,0.0,0.0,0.0,3.0417,0.0,0.0,0.0,0.0,0.0,0.0,0.0,0.0,0.0,0.0,0.0,0.0,0.0,0.0,0.0,0.0,0.0,0.0,0.0,0.0,0.0,0.0,0.0,0.0,0.0,0.0,0.0,0.0,0.0,0.0,0.0,0.0,0.0,0.0,0.0,0.0,0.0,0.0,0.0,0.0,0.0,0.0,0.0,0.0,0.0,0.0,0.0,0.0,0.0,0.0,0.0,0.0,0.0,0.0,0.0,0.0,0.0,0.0,0.0,0.0,0.0,0.0,0.0,0.0,0.0,0.0,0.0,0.0,0.0,0.0,0.0,0.0,0.0,0.0,0.0,0.0,0.0,0.0,0.0,0.0,0.0,0.0,0.0,0.0,0.0,0.0,0.0,0.0,0.0,0.0,0.0,0.0,0.0,0.0,0.0,0.0,0.0,0.0,0.0,0.0,0.0,0.0,0.0,0.0,0.0,0.0,0.0,0.0,0.0,0.0,3.269,3.2427,3.2843,3.2244,3.0432,0.0,0.0,0.0,0.0,0.0,0.0,0.0,0.0,0.0,0.0,0.0,0.0,0.0,0.0,0.0,0.0,0.0,0.0,0.0,0.0,0.0,0.0,0.0,0.0,0.0,0.0,0.0,0.0,0.0,0.0,0.0,0.0,0.0,0.0,0.0,0.0,0.0,0.0,0.0,0.0,0.0,0.0,0.0,0.0,0.0,0.0,0.0,0.0,0.0,0.0,0.0,0.0,0.0,0.0,0.0,0.0,0.0,0.0,0.0,0.0,0.0,0.0,0.0,0.0,0.0,0.0,0.0,0.0,0.0,0.0,0.0,0.0,0.0,0.0,0.0,0.0,0.0,0.0,0.0,0.0,0.0,0.0,0.0,0.0,0.0,0.0,0.0,0.0,0.0,0.0,0.0,0.0,0.0,0.0,0.0,0.0,0.0,0.0,0.0,0.0,0.0,0.0,0.0,0.0,0.0,0.0,0.0,0.0,0.0,0.0,0.0,0.0,3.4228,3.3428,3.0738,0.0,0.0,0.0,0.0,0.0,0.0,0.0,0.0,0.0,0.0,0.0,0.0,0.0,0.0,0.0,0.0,0.0,0.0,0.0,0.0,0.0,0.0,0.0,0.0,0.0,0.0,0.0,0.0,0.0,0.0,0.0,0.0,0.0,0.0,0.0,0.0,0.0,0.0,0.0,0.0,0.0,0.0,0.0,0.0,0.0,0.0,0.0,0.0,0.0,0.0,0.0,0.0,0.0,0.0,0.0,0.0,0.0,0.0,0.0,0.0,0.0,0.0,0.0,0.0,0.0,0.0,0.0,0.0,0.0,0.0,0.0,0.0,0.0,0.0,0.0,0.0,0.0,0.0,0.0,0.0,0.0,0.0,0.0,0.0,0.0,0.0,0.0,0.0,0.0,0.0,0.0,0.0,0.0,0.0,0.0,0.0,0.0,0.0,0.0,0.0,0.0,0.0,0.0,0.0,0.0,0.0,0.0,0.0,0.0,0.0,3.3597,3.603,3.5629,0.0,3.1441,0.0,0.0,0.0,0.0,0.0,0.0,0.0,0.0,0.0,0.0,0.0,0.0,0.0,0.0,0.0,0.0,0.0,0.0,0.0,0.0,0.0,0.0,0.0,0.0,0.0,0.0,0.0,0.0,0.0,0.0,0.0,0.0,0.0,0.0,0.0,0.0,0.0,0.0,0.0,0.0,0.0,0.0,0.0,0.0,0.0,0.0,0.0,0.0,0.0,0.0,0.0,0.0,0.0,0.0,0.0,0.0,0.0,0.0,0.0,0.0,0.0,0.0,0.0,0.0,0.0,0.0,0.0,0.0,0.0,0.0,0.0,0.0,0.0,0.0,0.0,0.0,0.0,0.0,0.0,0.0,0.0,0.0,0.0,0.0,0.0,0.0,0.0,0.0,0.0,0.0,0.0,0.0,0.0,0.0,0.0,0.0,0.0,0.0,0.0,0.0,0.0,0.0,0.0,0.0,0.0,0.0,0.0,0.0,0.0,0.0,3.352,3.583,3.4829,3.2997,0.0,0.0,0.0,0.0,0.0,0.0,0.0,0.0,0.0,0.0,0.0,0.0,0.0,0.0,0.0,0.0,0.0,0.0,0.0,0.0,0.0,0.0,0.0,0.0,0.0,0.0,0.0,0.0,0.0,0.0,0.0,0.0,0.0,0.0,0.0,0.0,0.0,0.0,0.0,0.0,0.0,0.0,0.0,0.0,0.0,0.0,0.0,0.0,0.0,0.0,0.0,0.0,0.0,0.0,0.0,0.0,0.0,0.0,0.0,0.0,0.0,0.0,0.0,0.0,0.0,0.0,0.0,0.0,0.0,0.0,0.0,0.0,0.0,0.0,0.0,0.0,0.0,0.0,0.0,0.0,0.0,0.0,0.0,0.0,0.0,0.0,0.0,0.0,0.0,0.0,0.0,0.0,0.0,0.0,0.0,0.0,0.0,0.0,0.0,0.0,0.0,0.0,0.0,0.0,0.0,0.0,0.0,0.0,0.0,0.0,3.3644,3.4259,3.6091,3.4414,3.2321,3.0027,0.0,0.0,0.0,0.0,0.0,0.0,0.0,0.0,0.0,0.0,0.0,0.0,0.0,0.0,0.0,0.0,0.0,0.0,0.0,0.0,0.0,0.0,0.0,0.0,0.0,0.0,0.0,0.0,0.0,0.0,0.0,0.0,0.0,0.0,0.0,0.0,0.0,0.0,0.0,0.0,0.0,0.0,0.0,0.0,0.0,0.0,0.0,0.0,0.0,0.0,0.0,0.0,0.0,0.0,0.0,0.0,0.0,0.0,0.0,0.0,0.0,0.0,0.0,0.0,0.0,0.0,0.0,0.0,0.0,0.0,0.0,0.0,0.0,0.0,0.0,0.0,0.0,0.0,0.0,0.0,0.0,0.0,0.0,0.0,0.0,0.0,0.0,0.0,0.0,0.0,0.0,0.0,0.0,0.0,0.0,0.0,0.0,0.0,0.0,0.0,0.0,0.0,0.0,0.0,0.0,0.0,0.0,0.0,3.8739,3.66,3.6307,3.8138,3.5137,3.2736,0.0,0.0,0.0,0.0,0.0,0.0,0.0,0.0,0.0,0.0,0.0,0.0,0.0,0.0,0.0,0.0,0.0,0.0,0.0,0.0,0.0,0.0,0.0,0.0,0.0,0.0,0.0,0.0,0.0,0.0,0.0,0.0,0.0,0.0,0.0,0.0,0.0,0.0,0.0,0.0,0.0,0.0,0.0,0.0,0.0,0.0,0.0,0.0,0.0,0.0,0.0,0.0,0.0,0.0,0.0,0.0,0.0,0.0,0.0,0.0,0.0,0.0,0.0,0.0,0.0,0.0,0.0,0.0,0.0,0.0,0.0,0.0,0.0,0.0,0.0,0.0,0.0,0.0,0.0,0.0,0.0,0.0,0.0,0.0,0.0,0.0,0.0,0.0,0.0,0.0,0.0,0.0,0.0,0.0,0.0,0.0,0.0,0.0,0.0,0.0,0.0,0.0,0.0,0.0,0.0,0.0,0.0,0.0,0.0,3.4018,3.4588,3.5399,3.6445,3.4506,3.2781,0.0,0.0,0.0,0.0,0.0,0.0,0.0,0.0,0.0,0.0,0.0,0.0,0.0,0.0,0.0,0.0,0.0,0.0,0.0,0.0,0.0,0.0,0.0,0.0,0.0,0.0,0.0,0.0,0.0,0.0,0.0,0.0,0.0,0.0,0.0,0.0,0.0,0.0,0.0,0.0,0.0,0.0,0.0,0.0,0.0,0.0,0.0,0.0,0.0,0.0,0.0,0.0,0.0,0.0,0.0,0.0,0.0,0.0,0.0,0.0,0.0,0.0,0.0,0.0,0.0,0.0,0.0,0.0,0.0,0.0,0.0,0.0,0.0,0.0,0.0,0.0,0.0,0.0,0.0,0.0,0.0,0.0,0.0,0.0,0.0,0.0,0.0,0.0,0.0,0.0,0.0,0.0,0.0,0.0,0.0,0.0,0.0,0.0,0.0,0.0,0.0,0.0,0.0,0.0,0.0,0.0,0.0,0.0,0.0,3.3388,0.0,3.6259,3.5788,3.4466,3.2503,0.0,0.0,0.0,0.0,0.0,0.0,0.0,0.0,0.0,0.0,0.0,0.0,0.0,0.0,0.0,0.0,0.0,0.0,0.0,0.0,0.0,0.0,0.0,0.0,0.0,0.0,0.0,0.0,0.0,0.0,0.0,0.0,0.0,0.0,0.0,0.0,0.0,0.0,0.0,0.0,0.0,0.0,0.0,0.0,0.0,0.0,0.0,0.0,0.0,0.0,0.0,0.0,0.0,0.0,0.0,0.0,0.0,0.0,0.0,0.0,0.0,0.0,0.0,0.0,0.0,0.0,0.0,0.0,0.0,0.0,0.0,0.0,0.0,0.0,0.0,0.0,0.0,0.0,0.0,0.0,0.0,0.0,0.0,0.0,0.0,0.0,0.0,0.0,0.0,0.0,0.0,0.0,0.0,0.0,0.0,0.0,0.0,0.0,0.0,0.0,0.0,0.0,0.0,0.0,0.0,0.0,0.0,0.0,3.321,3.7794,3.9426,3.8903,3.6608,3.5088,3.1924,0.0,0.0,0.0,0.0,0.0,0.0,0.0,0.0,0.0,0.0,0.0,0.0,0.0,0.0,0.0,0.0,0.0,0.0,0.0,0.0,0.0,0.0,0.0,0.0,0.0,0.0,0.0,0.0,0.0,0.0,0.0,0.0,0.0,0.0,0.0,0.0,0.0,0.0,0.0,0.0,0.0,0.0,0.0,0.0,0.0,0.0,0.0,0.0,0.0,0.0,0.0,0.0,0.0,0.0,0.0,0.0,0.0,0.0,0.0,0.0,0.0,0.0,0.0,0.0,0.0,0.0,0.0,0.0,0.0,0.0,0.0,0.0,0.0,0.0,0.0,0.0,0.0,0.0,0.0,0.0,0.0,0.0,0.0,0.0,0.0,0.0,0.0,0.0,0.0,0.0,0.0,0.0,0.0,0.0,0.0,0.0,0.0,0.0,0.0,0.0,0.0,0.0,0.0,0.0,0.0,0.0,0.0,0.0,0.0,3.3956,3.5831,3.7399,3.8377,3.4904,3.2894,0.0,0.0,0.0,0.0,0.0,0.0,0.0,0.0,0.0,0.0,0.0,0.0,0.0,0.0,0.0,0.0,0.0,0.0,0.0,0.0,0.0,0.0,0.0,0.0,0.0,0.0,0.0,0.0,0.0,0.0,0.0,0.0,0.0,0.0,0.0,0.0,0.0,0.0,0.0,0.0,0.0,0.0,0.0,0.0,0.0,0.0,0.0,0.0,0.0,0.0,0.0,0.0,0.0,0.0,0.0,0.0,0.0,0.0,0.0,0.0,0.0,0.0,0.0,0.0,0.0,0.0,0.0,0.0,0.0,0.0,0.0,0.0,0.0,0.0,0.0,0.0,0.0,0.0,0.0,0.0,0.0,0.0,0.0,0.0,0.0,0.0,0.0,0.0,0.0,0.0,0.0,0.0,0.0,0.0,0.0,0.0,0.0,0.0,0.0,0.0,0.0,0.0,0.0,0.0,0.0,0.0,0.0,0.0,0.0,3.4365,3.7142,3.8915,3.945,3.6264,3.4233,3.3558,0.0,0.0,0.0,0.0,0.0,0.0,0.0,0.0,0.0,0.0,0.0,0.0,0.0,0.0,0.0,0.0,0.0,0.0,0.0,0.0,0.0,0.0,0.0,0.0,0.0,0.0,0.0,0.0,0.0,0.0,0.0,0.0,0.0,0.0,0.0,0.0,0.0,0.0,0.0,0.0,0.0,0.0,0.0,0.0,0.0,0.0,0.0,0.0,0.0,0.0,0.0,0.0,0.0,0.0,0.0,0.0,0.0,0.0,0.0,0.0,0.0,0.0,0.0,0.0,0.0,0.0,0.0,0.0,0.0,0.0,0.0,0.0,0.0,0.0,0.0,0.0,0.0,0.0,0.0,0.0,0.0,0.0,0.0,0.0,0.0,0.0,0.0,0.0,0.0,0.0,0.0,0.0,0.0,0.0,0.0,0.0,0.0,0.0,0.0,0.0,0.0,0.0,0.0,0.0,0.0,0.0,0.0,0.0,3.7975,4.2255,4.2931,3.9844,3.8722,3.5885,0.0,0.0,0.0,0.0,0.0,0.0,0.0,0.0,0.0,0.0,0.0,0.0,0.0,0.0,0.0,0.0,0.0,0.0,0.0,0.0,0.0,0.0,0.0,0.0,0.0,0.0,0.0,0.0,0.0,0.0,0.0,0.0,0.0,0.0,0.0,0.0,0.0,0.0,0.0,0.0,0.0,0.0,0.0,0.0,0.0,0.0,0.0,0.0,0.0,0.0,0.0,0.0,0.0,0.0,0.0,0.0,0.0,0.0,0.0,0.0,0.0,0.0,0.0,0.0,0.0,0.0,0.0,0.0,0.0,0.0,0.0,0.0,0.0,0.0,0.0,0.0,0.0,0.0,0.0,0.0,0.0,0.0,0.0,0.0,0.0,0.0,0.0,0.0,0.0,0.0,0.0,0.0,0.0,0.0,0.0,0.0,0.0,0.0,0.0,0.0,0.0,0.0,0.0,0.0,0.0,0.0,0.0,0.0,0.0,3.9249,4.1981,4.3361,4.313,3.9521,3.7082,0.0,0.0,0.0,0.0,0.0,0.0,0.0,0.0,0.0,0.0,0.0,0.0,0.0,0.0,0.0,0.0,0.0,0.0,0.0,0.0,0.0,0.0,0.0,0.0,0.0,0.0,0.0,0.0,0.0,0.0,0.0,0.0,0.0,0.0,0.0,0.0,0.0,0.0,0.0,0.0,0.0,0.0,0.0,0.0,0.0,0.0,0.0,0.0,0.0,0.0,0.0,0.0,0.0,0.0,0.0,0.0,0.0,0.0,0.0,0.0,0.0,0.0,0.0,0.0,0.0,0.0,0.0,0.0,0.0,0.0,0.0,0.0,0.0,0.0,0.0,0.0,0.0,0.0,0.0,0.0,0.0,0.0,0.0,0.0,0.0,0.0,0.0,0.0,0.0,0.0,0.0,0.0,0.0,0.0,0.0,0.0,0.0,0.0,0.0,0.0,0.0,0.0,0.0,0.0,0.0,0.0,0.0,0.0,3.7414,3.9415,4.1131,4.2628,4.3897,4.0665,3.8221,0.0,0.0,0.0,0.0,0.0,0.0,0.0,0.0,0.0,0.0,0.0,0.0,0.0,0.0,0.0,0.0,0.0,0.0,0.0,0.0,0.0,0.0,0.0,0.0,0.0,0.0,0.0,0.0,0.0,0.0,0.0,0.0,0.0,0.0,0.0,0.0,0.0,0.0,0.0,0.0,0.0,0.0,0.0,0.0,0.0,0.0,0.0,0.0,0.0,0.0,0.0,0.0,0.0,0.0,0.0,0.0,0.0,0.0,0.0,0.0,0.0,0.0,0.0,0.0,0.0,0.0,0.0,0.0,0.0,0.0,0.0,0.0,0.0,0.0,0.0,0.0,0.0,0.0,0.0,0.0,0.0,0.0,0.0,0.0,0.0,0.0,0.0,0.0,0.0,0.0,0.0,0.0,0.0,0.0,0.0,0.0,0.0,0.0,0.0,0.0,0.0,0.0,0.0,0.0,0.0,0.0,0.0,0.0,3.7021,3.9136,4.011,4.124,4.2489,4.1554,3.9156,0.0,0.0,0.0,0.0,0.0,0.0,0.0,0.0,0.0,0.0,0.0,0.0,0.0,0.0,0.0,0.0,0.0,0.0,0.0,0.0,0.0,0.0,0.0,0.0,0.0,0.0,0.0,0.0,0.0,0.0,0.0,0.0,0.0,0.0,0.0,0.0,0.0,0.0,0.0,0.0,0.0,0.0,0.0,0.0,0.0,0.0,0.0,0.0,0.0,0.0,0.0,0.0,0.0,0.0,0.0,0.0,0.0,0.0,0.0,0.0,0.0,0.0,0.0,0.0,0.0,0.0,0.0,0.0,0.0,0.0,0.0,0.0,0.0,0.0,0.0,0.0,0.0,0.0,0.0,0.0,0.0,0.0,0.0,0.0,0.0,0.0,0.0,0.0,0.0,0.0,0.0,0.0,0.0,0.0,0.0,0.0,0.0,0.0,0.0,0.0,0.0,0.0,0.0,0.0,0.0,0.0,0.0,0.0,3.8358,3.9605,3.9886,3.9968,3.9916,3.964,3.8782,0.0,0.0,0.0,0.0,0.0,0.0,0.0,0.0,0.0,0.0,0.0,0.0,0.0,0.0,0.0,0.0,0.0,0.0,0.0,0.0,0.0,0.0,0.0,0.0,0.0,0.0,0.0,0.0,0.0,0.0,0.0,0.0,0.0,0.0,0.0,0.0,0.0,0.0,0.0,0.0,0.0,0.0,0.0,0.0,0.0,0.0,0.0,0.0,3.703,0.0,0.0,0.0,0.0,0.0,0.0,0.0,0.0,0.0,0.0,0.0,0.0,0.0,0.0,0.0,0.0,0.0,0.0,0.0,0.0,0.0,0.0,0.0,0.0,0.0,0.0,0.0,0.0,0.0,0.0,0.0,0.0,0.0,0.0,0.0,0.0,0.0,0.0,0.0,0.0,0.0,0.0,0.0,0.0,0.0,0.0,0.0,0.0,0.0,0.0,0.0,0.0,0.0,0.0,0.0,0.0,0.0,0.0,0.0,3.8141,3.9004,3.8811,3.894,3.9388,3.9212,3.8328,0.0,0.0,0.0,0.0,0.0,0.0,0.0,0.0,0.0,0.0,0.0,0.0,0.0,0.0,0.0,0.0,0.0,0.0,0.0,0.0,0.0,0.0,0.0,0.0,0.0,0.0,0.0,0.0,0.0,0.0,0.0,0.0,0.0,0.0,0.0,0.0,0.0,0.0,0.0,0.0,0.0,0.0,0.0,0.0,0.0,0.0,0.0,0.0,0.0,0.0,0.0,0.0,0.0,0.0,0.0,0.0,0.0,0.0,0.0,0.0,0.0,0.0,0.0,0.0,0.0,0.0,0.0,0.0,0.0,0.0,0.0,0.0,0.0,0.0,0.0,0.0,0.0,0.0,0.0,0.0,0.0,0.0,0.0,0.0,0.0,0.0,0.0,0.0,0.0,0.0,0.0,0.0,0.0,0.0,0.0,0.0,0.0,0.0,0.0,0.0,0.0,0.0,0.0,0.0,0.0,0.0,0.0,3.696,3.7568,3.8164,3.7819,3.8248,3.9504,3.9391,3.7987,3.5272,0.0,0.0,0.0,0.0,0.0,0.0,0.0,0.0,0.0,0.0,0.0,0.0,0.0,0.0,0.0,0.0,0.0,0.0,0.0,0.0,0.0,0.0,0.0,0.0,0.0,0.0,0.0,0.0,0.0,0.0,0.0,0.0,0.0,0.0,0.0,0.0,0.0,0.0,3.5922,3.7215,0.0,0.0,0.0,0.0,0.0,0.0,0.0,0.0,3.9153,0.0,0.0,0.0,0.0,0.0,0.0,0.0,0.0,0.0,0.0,0.0,0.0,0.0,0.0,0.0,0.0,0.0,0.0,0.0,0.0,0.0,0.0,0.0,0.0,0.0,0.0,0.0,0.0,0.0,0.0,0.0,0.0,0.0,0.0,0.0,0.0,0.0,0.0,0.0,0.0,0.0,0.0,0.0,0.0,0.0,0.0,0.0,0.0,0.0,0.0,0.0,0.0,0.0,0.0,0.0,0.0,3.7905,3.8251,3.8348,3.8209,3.8132,3.8198,3.8479,3.9268,3.8158,3.5065,0.0,0.0,0.0,0.0,0.0,0.0,0.0,0.0,0.0,0.0,0.0,0.0,0.0,0.0,0.0,0.0,0.0,0.0,0.0,0.0,0.0,0.0,0.0,0.0,0.0,0.0,0.0,0.0,0.0,0.0,0.0,0.0,0.0,0.0,0.0,0.0,0.0,0.0,0.0,3.9693,4.0786,0.0,0.0,0.0,0.0,0.0,0.0,0.0,0.0,3.9353,0.0,0.0,0.0,0.0,0.0,0.0,0.0,0.0,0.0,0.0,0.0,0.0,0.0,0.0,0.0,0.0,0.0,0.0,0.0,0.0,0.0,0.0,0.0,0.0,0.0,0.0,0.0,0.0,0.0,0.0,0.0,0.0,0.0,0.0,0.0,0.0,0.0,0.0,0.0,0.0,0.0,0.0,0.0,0.0,0.0,0.0,0.0,0.0,0.0,0.0,0.0,0.0,0.0,0.0,0.0,3.7583,3.8442,3.8763,3.846,3.8441,3.8338,3.8227,3.9112,3.8069,0.0,0.0,0.0,0.0,0.0,0.0,0.0,0.0,0.0,0.0,0.0,0.0,0.0,0.0,0.0,0.0,0.0,0.0,0.0,0.0,0.0,0.0,0.0,0.0,0.0,0.0,0.0,0.0,0.0,0.0,0.0,0.0,0.0,0.0,0.0,0.0,0.0,0.0,0.0,0.0,4.0264,4.1625,4.2993,0.0,0.0,0.0,0.0,0.0,0.0,3.9291,3.963,0.0,0.0,0.0,0.0,0.0,0.0,0.0,0.0,0.0,0.0,0.0,0.0,0.0,0.0,0.0,0.0,0.0,0.0,0.0,0.0,0.0,0.0,0.0,0.0,0.0,0.0,0.0,0.0,0.0,0.0,0.0,0.0,0.0,0.0,0.0,0.0,0.0,0.0,0.0,0.0,0.0,0.0,0.0,0.0,0.0,0.0,0.0,0.0,0.0,0.0,0.0,0.0,0.0,0.0,0.0,3.696,3.8446,3.9083,3.8792,3.8666,3.8502,3.8317,3.9013,3.7944,0.0,0.0,0.0,0.0,0.0,0.0,0.0,0.0,0.0,0.0,0.0,0.0,0.0,0.0,0.0,0.0,0.0,0.0,0.0,0.0,0.0,0.0,0.0,0.0,0.0,0.0,0.0,0.0,0.0,0.0,0.0,0.0,0.0,0.0,0.0,0.0,0.0,0.0,0.0,0.0,0.0,4.3095,4.517,4.369,0.0,0.0,0.0,0.0,3.9463,4.055,0.0,0.0,0.0,0.0,0.0,0.0,0.0,0.0,0.0,0.0,0.0,0.0,0.0,0.0,0.0,0.0,0.0,0.0,0.0,0.0,0.0,0.0,0.0,0.0,0.0,0.0,0.0,0.0,0.0,0.0,0.0,0.0,0.0,0.0,0.0,0.0,0.0,0.0,0.0,0.0,0.0,0.0,0.0,0.0,0.0,0.0,0.0,0.0,0.0,0.0,0.0,0.0,0.0,0.0,0.0,0.0,3.6978,3.871,3.9439,3.9058,3.8759,3.8585,3.8556,3.9122,3.8057,0.0,0.0,0.0,0.0,0.0,0.0,0.0,0.0,0.0,0.0,0.0,0.0,0.0,0.0,0.0,0.0,0.0,0.0,0.0,0.0,0.0,0.0,0.0,0.0,0.0,0.0,0.0,0.0,0.0,0.0,0.0,0.0,0.0,0.0,0.0,0.0,0.0,0.0,0.0,0.0,0.0,4.7105,4.5108,4.4653,4.4487,0.0,0.0,4.0254,4.2698,4.3679,0.0,0.0,0.0,0.0,0.0,0.0,0.0,0.0,0.0,0.0,0.0,0.0,0.0,0.0,0.0,0.0,0.0,0.0,0.0,0.0,0.0,0.0,0.0,0.0,0.0,0.0,0.0,0.0,0.0,0.0,0.0,0.0,0.0,0.0,0.0,0.0,0.0,0.0,0.0,0.0,0.0,0.0,0.0,0.0,0.0,0.0,0.0,0.0,0.0,0.0,0.0,0.0,0.0,0.0,0.0,3.7043,3.7411,3.9097,3.9829,3.9432,3.9243,3.908,3.89,3.8482,3.7404,0.0,0.0,0.0,0.0,0.0,0.0,0.0,0.0,0.0,0.0,0.0,0.0,0.0,0.0,0.0,0.0,0.0,0.0,0.0,0.0,0.0,0.0,0.0,0.0,0.0,0.0,0.0,0.0,0.0,0.0,0.0,0.0,0.0,0.0,0.0,0.0,0.0,0.0,0.0,0.0,0.0,0.0,4.6389,4.5914,0.0,0.0,0.0,4.2666,4.4679,0.0,0.0,0.0,0.0,0.0,0.0,0.0,0.0,0.0,0.0,0.0,0.0,0.0,0.0,0.0,0.0,0.0,0.0,0.0,0.0,0.0,0.0,0.0,0.0,0.0,0.0,0.0,0.0,0.0,0.0,0.0,0.0,0.0,0.0,0.0,0.0,0.0,0.0,0.0,0.0,0.0,0.0,0.0,0.0,0.0,0.0,0.0,0.0,0.0,0.0,0.0,0.0,0.0,0.0,0.0,0.0,0.0,3.7693,3.9347,4.0084,3.9835,3.9675,3.947,3.9211,3.809,0.0,0.0,0.0,0.0,0.0,0.0,0.0,0.0,0.0,0.0,0.0,0.0,0.0,0.0,0.0,0.0,0.0,0.0,0.0,0.0,0.0,0.0,0.0,0.0,0.0,0.0,0.0,3.0588,0.0,0.0,0.0,0.0,0.0,0.0,0.0,0.0,0.0,0.0,0.0,0.0,0.0,0.0,4.5354,4.7764,4.7347,4.722,0.0,0.0,4.4594,4.6225,4.5798,4.409,0.0,0.0,0.0,0.0,0.0,0.0,0.0,0.0,0.0,0.0,0.0,0.0,0.0,0.0,0.0,0.0,0.0,0.0,0.0,0.0,0.0,0.0,0.0,0.0,0.0,0.0,0.0,0.0,0.0,0.0,0.0,0.0,0.0,0.0,0.0,0.0,0.0,0.0,0.0,0.0,0.0,0.0,0.0,0.0,0.0,0.0,0.0,0.0,0.0,0.0,0.0,0.0,0.0,0.0,0.0,3.7731,3.9347,4.0172,4.0147,3.9798,3.9587,3.9544,3.8405,3.7287,0.0,0.0,0.0,0.0,0.0,0.0,0.0,0.0,0.0,0.0,0.0,0.0,0.0,0.0,0.0,0.0,0.0,0.0,0.0,0.0,0.0,0.0,0.0,0.0,0.0,0.0,0.0,0.0,0.0,0.0,0.0,0.0,0.0,0.0,0.0,0.0,0.0,0.0,0.0,0.0,0.0,4.7147,4.8688,4.8952,4.9926,0.0,0.0,4.5375,4.7456,4.7039,4.4712,3.9499,0.0,0.0,0.0,0.0,0.0,0.0,0.0,0.0,0.0,0.0,0.0,0.0,0.0,0.0,0.0,0.0,0.0,0.0,0.0,0.0,0.0,0.0,0.0,0.0,0.0,0.0,0.0,0.0,0.0,0.0,0.0,0.0,0.0,0.0,0.0,0.0,0.0,0.0,0.0,0.0,0.0,0.0,0.0,0.0,0.0,0.0,0.0,0.0,0.0,0.0,0.0,0.0,0.0,3.5859,3.7674,3.8859,3.9724,4.0234,4.0053,3.9956,3.997,3.8328,3.7246,0.0,0.0,0.0,0.0,0.0,0.0,0.0,0.0,0.0,0.0,0.0,0.0,0.0,0.0,0.0,0.0,0.0,0.0,0.0,0.0,0.0,0.0,0.0,0.0,0.0,0.0,0.0,0.0,3.3167,3.3235,3.3218,0.0,0.0,0.0,0.0,0.0,0.0,0.0,0.0,0.0,0.0,4.6883,4.7556,4.8461,0.0,0.0,4.8797,4.794,4.9669,4.774,4.5071,4.2163,4.0397,0.0,0.0,0.0,0.0,0.0,0.0,0.0,0.0,0.0,0.0,0.0,0.0,0.0,0.0,0.0,0.0,0.0,0.0,0.0,0.0,0.0,0.0,0.0,0.0,0.0,0.0,0.0,0.0,0.0,0.0,0.0,0.0,0.0,0.0,0.0,0.0,0.0,0.0,0.0,0.0,0.0,0.0,0.0,0.0,0.0,0.0,0.0,0.0,0.0,0.0,0.0,0.0,3.5706,3.7678,3.8801,3.9699,4.0282,4.022,4.0196,4.0153,3.8546,3.7526,0.0,0.0,0.0,0.0,0.0,0.0,0.0,0.0,0.0,0.0,0.0,0.0,0.0,0.0,0.0,0.0,0.0,0.0,0.0,0.0,0.0,0.0,0.0,0.0,0.0,0.0,0.0,0.0,3.4453,3.4559,3.4683,0.0,0.0,0.0,0.0,0.0,0.0,0.0,0.0,0.0,0.0,4.7359,4.7909,4.8653,4.9165,4.9224,4.826,4.7997,4.9355,4.7177,4.4701,4.2727,0.0,0.0,0.0,0.0,0.0,0.0,0.0,0.0,0.0,0.0,0.0,0.0,0.0,0.0,0.0,0.0,0.0,0.0,0.0,0.0,0.0,0.0,0.0,0.0,0.0,0.0,0.0,0.0,0.0,0.0,0.0,0.0,0.0,0.0,0.0,0.0,0.0,0.0,0.0,0.0,0.0,0.0,0.0,0.0,0.0,0.0,0.0,0.0,0.0,0.0,0.0,0.0,0.0,3.6818,3.7702,3.9369,4.0258,4.0267,4.022,4.0167,4.012,3.9237,3.8283,3.7291,0.0,0.0,0.0,0.0,0.0,0.0,0.0,0.0,0.0,0.0,0.0,0.0,0.0,0.0,0.0,0.0,0.0,0.0,0.0,0.0,0.0,0.0,0.0,0.0,0.0,0.0,3.5233,3.5477,3.5827,0.0,0.0,0.0,0.0,0.0,0.0,0.0,0.0,0.0,0.0,4.7172,4.9121,5.04,4.9973,4.9474,4.9703,4.6673,4.466,4.582,4.5193,4.3417,0.0,0.0,0.0,0.0,0.0,0.0,0.0,0.0,0.0,0.0,0.0,0.0,0.0,0.0,0.0,0.0,0.0,0.0,0.0,0.0,0.0,0.0,0.0,0.0,0.0,0.0,0.0,4.3429,4.2214,0.0,0.0,0.0,0.0,0.0,0.0,0.0,0.0,0.0,0.0,0.0,4.4972,4.5253,0.0,0.0,0.0,0.0,0.0,0.0,0.0,0.0,0.0,0.0,0.0,0.0,3.6585,3.7943,3.9107,3.9657,3.956,3.9558,3.9212,3.8535,3.773,3.6835,3.5929,0.0,0.0,0.0,0.0,0.0,0.0,0.0,0.0,0.0,0.0,0.0,0.0,0.0,0.0,0.0,0.0,0.0,0.0,0.0,0.0,0.0,0.0,0.0,0.0,0.0,3.7222,0.0,0.0,0.0,0.0,0.0,0.0,0.0,0.0,0.0,0.0,0.0,4.4244,4.5588,4.7305,4.8301,4.7931,4.803,4.8206,0.0,0.0,0.0,0.0,0.0,0.0,0.0,0.0,0.0,0.0,0.0,0.0,0.0,0.0,4.2844,3.9167,3.7784,3.7507,3.8614,0.0,0.0,0.0,0.0,0.0,0.0,0.0,0.0,0.0,0.0,0.0,0.0,0.0,0.0,0.0,0.0,4.4344,0.0,0.0,0.0,0.0,0.0,0.0,0.0,0.0,4.4746,4.5877,4.6666,4.7008,4.6689,0.0,4.4993,4.2347,0.0,0.0,0.0,0.0,0.0,0.0,0.0,0.0,3.7307,3.8096,3.8956,3.9364,3.9283,3.928,3.8941,3.8285,3.7786,3.7237,3.6684,3.596,3.5266,0.0,0.0,0.0,0.0,0.0,0.0,0.0,0.0,0.0,0.0,0.0,0.0,0.0,0.0,0.0,0.0,0.0,0.0,0.0,0.0,0.0,0.0,0.0,3.8657,0.0,0.0,0.0,0.0,0.0,0.0,0.0,0.0,0.0,4.3331,4.4909,4.636,4.7296,4.815,4.8272,4.719,0.0,0.0,0.0,0.0,0.0,0.0,0.0,4.3649,4.4392,4.4384,4.457,4.5599,4.6146,4.6267,4.5603,0.0,0.0,4.2058,4.045,4.0003,4.109,4.0388,3.9907,4.1014,4.0691,4.0091,0.0,0.0,0.0,0.0,0.0,0.0,0.0,0.0,4.8045,4.8457,0.0,4.6147,0.0,0.0,0.0,0.0,0.0,0.0,0.0,0.0,4.7514,4.7441,4.5293,4.61,4.6007,4.5245,4.6027,4.5027,4.2439,3.9896,0.0,0.0,0.0,0.0,0.0,0.0,3.8977,3.8172,3.9026,3.942,3.9298,3.9379,3.9376,3.9273,3.9285,3.9255,3.9181,3.7641,3.6488,3.5612,3.4731,0.0,0.0,0.0,0.0,0.0,0.0,0.0,0.0,0.0,0.0,0.0,0.0,0.0,0.0,0.0,0.0,0.0,0.0,0.0,0.0,3.8537,0.0,0.0,0.0,0.0,0.0,0.0,0.0,0.0,0.0,0.0,4.5777,4.6238,4.7367,4.9658,0.0,0.0,0.0,0.0,4.5748,4.6081,4.4813,4.4053,4.4497,4.5055,4.4798,4.2875,0.0,0.0,4.7836,4.7849,4.7569,4.6924,4.6766,4.6782,4.6652,4.4896,4.3889,4.4503,4.3011,4.1967,4.2438,4.2024,4.1478,5.2023,0.0,0.0,0.0,0.0,5.0662,5.1706,5.3404,5.2627,5.1813,5.0873,4.9732,0.0,0.0,0.0,0.0,0.0,0.0,4.682,4.7593,4.7743,4.808,4.8613,4.8891,4.8875,4.8641,4.8271,4.7077,4.5173,4.3776,4.1844,3.9411,0.0,0.0,0.0,0.0,3.9254,3.8513,3.9836,3.9654,3.7722,3.8911,3.8937,3.7666,3.8163,3.7912,3.6754,3.6765,3.6436,3.5635,3.4769,0.0,0.0,0.0,0.0,0.0,0.0,0.0,0.0,0.0,0.0,0.0,0.0,0.0,0.0,0.0,0.0,0.0,0.0,0.0,3.8332,3.9425,4.0553,0.0,0.0,0.0,0.0,0.0,0.0,0.0,0.0,0.0,4.7951,4.8332,4.8517,0.0,0.0,4.7827,4.7033,4.6268,4.6249,4.7476,0.0,0.0,0.0,4.5776,4.5404,4.5721,4.6855,4.7569,4.7181,4.7127,4.7056,4.6823,4.6788,4.6784,4.6722,4.5947,4.5459,4.5886,4.4535,4.3383,4.3863,4.2798,4.1601,5.6174,5.4489,5.3243,5.3096,5.361,5.3113,5.3948,5.5539,5.4369,5.3673,5.3311,5.1948,5.008,4.7876,4.6922,0.0,0.0,0.0,4.7942,4.8647,4.8157,4.8125,4.8502,4.8553,4.8562,4.8542,4.8063,4.7097,4.5783,4.5272,4.3586,4.0939,0.0,0.0,3.9063,3.9881,3.9706,3.8615,3.9531,3.9085,3.7155,3.8111,3.8457,3.8073,3.82,3.7937,3.7292,3.7048,3.6728,3.6257,3.542,3.5173,0.0,0.0,0.0,0.0,0.0,0.0,0.0,0.0,0.0,0.0,0.0,3.7304,3.6495,0.0,0.0,0.0,3.7931,3.8909,3.9983,4.0801,0.0,0.0,0.0,0.0,0.0,0.0,0.0,4.6227,4.6724,4.7264,4.7985,4.8441,4.8732,4.8762,4.7646,4.6744,4.6624,0.0,4.5701,4.7306,4.6861,4.6446,4.6744,4.5845,4.5478,4.64,4.6387,4.6381,4.6464,4.6406,4.6363,4.6397,4.6599,4.6786,4.6786,4.6456,4.6077,4.5957,4.4731,4.378,4.3858,4.265,4.1601,5.9648,5.9028,5.579,5.4584,5.4794,5.4728,5.4859,5.5074,5.4197,5.4492,5.5456,5.3152,5.1743,5.0968,4.8654,0.0,0.0,4.9573,4.9399,4.8585,4.8606,4.7712,4.6146,4.6198,4.6211,4.6211,4.6259,4.5836,4.5034,4.4984,4.4119,4.2442,4.2399,4.1559,4.0042,4.0701,4.0252,3.8537,3.8596,3.8186,3.7331,3.7233,3.7974,3.9496,3.8816,3.8737,3.9395,3.7934,3.7106,3.7064,3.6327,3.5898,3.5898,0.0,0.0,0.0,0.0,0.0,0.0,0.0,0.0,0.0,0.0,0.0,0.0,0.0,0.0,0.0,3.9488,0.0,4.1732,4.2427,0.0,0.0,0.0,4.3067,4.3201,4.4562,4.5168,4.4293,0.0,0.0,0.0,0.0,4.8141,4.9377,4.7296,4.5918,4.6736,4.532,4.4694,4.629,4.5568,4.5205,4.6069,4.5583,4.5208,4.5493,4.4875,4.4785,4.5456,4.5558,4.5513,4.5376,4.5986,4.6394,4.6496,4.6353,4.6128,4.4836,4.4147,4.3512,4.2951,4.2173,4.1555,5.9163,5.9253,5.84,5.8071,5.807,5.746,5.726,5.7231,5.5995,5.5398,5.5247,5.4236,5.3168,5.1991,5.0743,5.0337,5.0581,5.0098,4.9418,4.8588,4.7983,4.7147,4.6125,4.6174,4.6214,4.6196,4.6211,4.5779,4.4939,4.4982,4.4127,4.2481,4.2398,4.1857,4.0857,4.0998,4.0232,3.8518,3.9143,3.9084,3.8206,3.7545,3.7404,3.7801,3.7625,3.7309,3.6922,3.646,3.6209,3.6191,3.6015,3.5896,3.5896,3.5891,0.0,0.0,0.0,0.0,0.0,0.0,0.0,0.0,0.0,4.0172,3.8062,0.0,4.1432,0.0,4.0585,4.1956,4.2772,4.2992,0.0,0.0,4.4919,4.5365,4.6618,4.7035,4.6877,4.5998,4.703,4.7469,4.6609,4.6686,4.6918,4.7232,4.6549,4.6057,4.6232,4.5731,4.5488,4.619,4.6133,4.5977,4.5835,4.5672,4.5333,4.505,4.4811,4.4555,4.4089,4.3969,4.3791,4.3367,4.3386,4.3698,4.4164,4.4215,4.4149,4.3866,4.4123,4.4249,4.3555,4.2401,4.1375,5.9121,5.929,5.929,5.913,5.8798,5.7928,5.7425,5.7121,5.6,5.5277,5.4846,5.388,5.2856,5.181,5.1312,5.0923,5.06,5.012,4.9224,4.8019,4.7571,4.6896,4.6067,4.6125,4.6153,4.6155,4.5785,4.5171,4.4351,4.4002,4.3154,4.1843,4.1804,4.1567,4.1104,4.07,3.9851,3.8539,3.8579,3.842,3.7946,3.7448,3.7576,3.829,3.7219,3.6756,3.7068,3.6323,3.6064,3.6466,3.645,3.644,3.6439,3.6816,3.6845,0.0,0.0,0.0,0.0,0.0,0.0,0.0,0.0,0.0,0.0,0.0,4.2604,0.0,4.2615,0.0,4.4375,4.4356,4.4688,4.561,4.5646,4.5954,4.6886,4.6916,4.6647,4.6119,4.6468,4.6586,4.6038,4.5965,4.5965,4.5965,4.5823,4.5884,4.6134,4.5697,4.549,4.613,4.5844,4.5395,4.5046,4.5104,4.5018,4.4528,4.4116,4.3716,4.3334,4.3021,4.2684,4.2383,4.2381,4.2485,4.2841,4.2912,4.2928,4.3015,4.332,4.347,4.321,4.2269,4.1313,5.929,5.929,5.9205,5.8779,5.8072,5.7179,5.6555,5.6066,5.5275,5.4765,5.4414,5.2957,5.1923,5.126,5.1143,5.0596,4.9748,4.9729,4.8796,4.7159,4.714,4.6735,4.6004,4.6052,4.6084,4.605,4.5276,4.4479,4.3737,4.2827,4.2011,4.1269,4.1138,4.1095,4.1055,4.0229,3.9357,3.8515,3.7752,3.7309,3.7185,3.7285,3.8027,3.9295,3.7241,3.6703,3.7971,3.6696,3.6289,3.7131,3.7132,3.715,3.7286,3.7976,3.8054,0.0,3.7977,0.0,0.0,0.0,0.0,0.0,0.0,0.0,0.0,4.2178,4.3382,4.4943,4.4863,4.5076,4.5935,4.5869,4.5764,4.5761,4.5744,4.5734,4.5734,4.5717,4.5645,4.5511,4.5494,4.5442,4.5357,4.5283,4.5302,4.5335,4.5349,4.5581,4.6077,4.5496,4.5191,4.5874,4.5043,4.4378,4.4183,4.4346,4.4373,4.3839,4.3208,4.2679,4.2669,4.2236,4.183,4.1659,4.163,4.1766,4.1869,4.1843,4.1877,4.1925,4.1996,4.2132,4.2381,4.1884,4.1165,5.929,5.9243,5.8711,5.8045,5.7276,5.6552,5.6262,5.6208,5.5403,5.4855,5.4382,5.3014,5.2308,5.2106,5.1465,5.0342,4.8871,4.8852,4.7903,4.6252,4.6252,4.6155,4.6002,4.6022,4.603,4.5959,4.5209,4.4733,4.4551,4.3051,4.2229,4.2051,4.1376,4.101,4.0974,0.0,0.0,0.0,3.8348,3.7889,3.7184,3.7807,3.7996,3.769,3.7217,0.0,3.6372,3.6074,3.6268,3.7053,3.7113,0.0,0.0,0.0,0.0,0.0,0.0,0.0,0.0,0.0,0.0,0.0,4.3029,4.2674,4.2243,4.3613,4.4934,4.5929,4.5923,4.5953,4.6144,4.6137,4.6113,4.6111,4.6022,4.5947,4.5925,4.5799,4.5645,4.5516,4.5494,4.5442,4.5324,4.5283,4.5283,4.5283,4.5283,4.5359,4.5493,4.533,4.518,4.5033,4.446,4.4057,4.402,4.3808,4.3416,4.2817,4.2533,4.2012,4.1224,4.0902,4.0384,3.9743,3.9436,3.9565,3.9636,3.9626,3.9884,4.0396,4.0514,4.0901,4.2115,4.1434,4.0424,5.8878,0.0,5.8125,5.7375,0.0,5.6341,5.613,5.6013,5.5557,5.4874,5.4018,5.2482,5.1806,5.1766,5.093,4.9843,4.858,4.8153,4.7259,4.6021,4.5982,4.5982,4.5982,4.5982,4.5982,4.5963,4.5178,4.4574,4.4107,4.2919,4.2071,4.1659,4.122,4.0978,4.0981,4.0551,3.9717,3.8475,3.8454,3.8425,3.8397,3.8405,3.8625,3.9014,0.0,0.0,0.0,0.0,0.0,0.0,0.0,0.0,0.0,0.0,0.0,3.9686,4.0461,4.1296,4.2092,4.2187,4.2581,4.344,4.3953,4.4101,4.3726,4.4904,4.5818,4.6253,4.6232,4.6196,4.6196,4.6203,4.6208,4.6197,4.6142,4.6096,4.6091,4.601,4.5868,4.5634,4.5584,4.5528,4.5324,4.5283,4.5283,4.5283,4.5283,4.513,4.48,4.5029,4.5069,4.4342,4.387,4.3401,4.285,4.2516,4.2231,4.1801,4.1709,4.1451,4.0861,4.0509,4.0045,3.9299,3.8911,3.8675,3.8479,3.8464,3.8582,3.8908,3.901,3.9374,4.0454,4.0005,3.9177,5.8583,5.8543,5.7695,5.6956,5.6347,5.6248,5.5967,5.56,0.0,0.0,0.0,5.1921,5.1199,5.1141,5.0292,4.9418,4.858,4.7703,4.6829,4.6002,4.5982,4.5982,4.5982,4.5982,4.5982,4.5944,4.5045,4.4287,4.3688,4.2615,4.179,4.1232,4.1057,4.0981,4.0982,4.0981,4.0269,3.8922,3.8854,3.9132,3.9671,3.9155,3.9451,4.075,3.8693,3.7841,3.8367,3.7705,3.7743,3.8598,3.9312,3.9759,3.9934,4.1221,4.1667,4.1024,4.2401,4.3333,4.3488,4.3644,4.3793,4.3945,4.4689,4.5155,4.521,4.5902,4.6291,4.63,4.6243,4.6206,4.6206,4.621,4.6214,4.6199,4.6197,4.6196,4.6197,4.6197,4.6065,4.5767,4.5677,4.5603,4.533,4.5283,4.5225,4.5086,4.4991,4.4716,4.4041,4.4235,4.4315,4.354,4.3063,4.2548,4.1779,4.1372,4.1065,4.0938,4.0883,4.082,4.06,4.017,3.9651,3.8955,3.8587,3.8027,3.7589,3.7437,3.7505,3.7471,3.7488,3.7669,3.8176,3.7928,3.7413,5.9236,5.8551,5.7852,5.7177,5.6524,5.594,5.539,5.4877,5.4252,5.387,5.3594,5.194,5.1199,5.116,5.0292,4.9437,4.8561,4.7703,4.6832,0.0,4.5982,4.5982,4.5982,4.5982,4.5982,4.5883,4.4443,4.4015,4.429,4.2243,4.1397,4.1846,4.1295,4.0915,4.0913,4.0913,4.0792,4.0552,4.062,4.0328,3.9723,4.0261,4.0314,3.9904,3.9531,3.9023,3.8425,3.8287,3.8618,3.9468,3.9643,3.9992,4.0694,4.0985,4.1024,4.0966,4.1842,4.2697,4.3469,4.419,4.4971,4.5736,4.5951,4.6051,4.6112,4.6221,4.6299,4.63,4.6242,4.6206,4.6205,4.6201,4.6203,4.6199,4.6197,4.6197,4.6197,4.6197,4.6074,4.5744,4.5684,4.5588,4.5279,4.5225,4.4934,4.4374,4.4088,4.3783,4.2968,4.2709,4.2754,4.2535,4.2093,4.1714,4.1319,4.1243,4.0742,4.0165,4.0073,3.984,3.9198,3.8751,3.825,3.7516,3.7196,3.6676,3.6158,3.5932,3.6067,3.6118,3.6124,3.6157,3.6315,3.5588,3.5146,5.7922,5.7554,5.6893,5.6443,5.611,5.5441,5.5032,5.4696,5.3511,5.3012,5.2876,5.1704,5.095,5.0425,4.9593,4.8716,4.7859,4.6987,4.6388,4.6002,4.5982,4.5982,4.5963,4.5552,4.5344,4.527,4.4096,4.3479,4.3326,4.2179,4.1568,4.1471,4.0655,4.0245,4.0245,4.0245,4.0458,4.089,4.05,4.0308,4.0364,4.0286,4.0266,4.0325,3.9953,3.9507,3.912,3.9101,3.9293,3.9699,4.0109,4.0519,4.0888,4.1337,4.1609,4.1628,4.2422,4.3083,4.3466,4.432,4.52,4.6101,4.6199,4.623,4.6285,4.6301,4.6298,4.6293,4.6283,4.6232,4.6217,4.6203,4.6208,4.6197,4.6197,4.6197,4.6197,4.6197,4.6072,4.5764,4.5684,4.541,4.4679,4.459,4.4279,4.3477,4.3004,4.2424,4.194,4.1291,4.0966,4.1179,4.1008,4.0595,4.0148,3.9889,3.9643,3.9294,3.9239,3.9077,3.8645,3.8356,3.792,3.7276,3.6874,3.6429,3.5772,3.5628,3.5628,3.5628,3.5628,3.5628,3.5481,3.4745,3.4139,5.7097,5.6816,5.6313,5.6006,5.5782,5.5137,5.4746,5.4428,5.3013,5.229,5.2018,5.126,5.0545,4.9826,4.8794,4.7936,4.7256,4.6404,4.6002,4.5982,4.5982,4.5982,4.5927,4.5361,4.4999,4.4715,4.3924,4.3101,4.2364,4.205,4.1494,4.0657,4.0014,3.9699,3.9699,3.9699,4.0089,4.0808,4.0286,4.0286,4.0869,4.0283,4.0266,4.0791,4.0286,3.9953,3.9992,3.9973,3.9973,3.9992,4.0558,4.0888,4.0927,4.1531,4.192,4.1978,4.2714,4.3306,4.3507,4.4131,4.4841,4.5547,4.5622,4.5642,4.5698,4.5712,4.5903,4.6208,4.6301,4.6251,4.621,4.62,4.6135,4.5965,4.61,4.6072,4.5901,4.586,4.5733,4.545,4.5231,4.4692,4.3992,4.3725,4.34,4.2603,4.1762,4.1227,4.0969,4.0104,3.9739,3.9798,3.9932,3.9671,3.8837,3.8762,3.8765,3.8666,3.8676,3.8656,3.8546,3.8364,3.7937,3.721,3.6815,3.6367,3.5761,3.5628,3.5628,3.5628,3.5628,3.5515,3.5155,3.4443,3.355,5.841,5.7167,5.698,5.6579,5.5915,5.5238,5.4524,5.3715,5.2795,5.1979,5.1299,5.0389,4.9984,4.9673,4.8191,4.7412,4.7198,4.6388,4.6002,4.5985,4.5982,4.6002,4.6003,4.5957,4.5562,4.4756,4.3923,4.3064,4.221,4.1499,4.0676,3.9904,3.9737,3.9699,3.9699,3.9699,4.0109,4.0869,4.083,4.0827,4.0888,4.083,4.083,4.0888,4.083,4.0791,4.0733,4.0808,4.0771,4.0808,4.0849,4.0888,4.0907,4.0985,4.1024,4.1087,4.1845,4.2637,4.3392,4.3647,4.3748,4.3826,4.3926,4.3962,4.4028,4.4003,4.4647,4.5795,4.6177,4.6085,4.6206,4.6153,4.5831,4.5244,4.5707,4.586,4.5031,4.4832,4.4746,4.4464,4.387,4.3158,4.2982,4.2851,4.2526,4.1724,4.0988,4.037,4.0019,3.9707,3.9336,3.9036,3.8879,3.8871,3.8699,3.8699,3.8658,3.8567,3.8544,3.8481,3.8269,3.7747,3.7068,3.697,3.6371,3.5865,3.5706,3.5628,3.5628,3.5588,3.5521,3.5321,3.4419,3.3742,3.3119,5.7382,5.7187,5.6795,5.6156,5.5335,5.4566,5.373,5.2873,5.2037,5.151,5.1036,4.9793,4.9185,4.9091,4.8386,4.7531,4.6521,4.6155,4.6035,4.6065,4.6069,4.6076,4.6081,4.5599,4.4939,4.4077,4.3224,4.2392,4.1653,4.1186,4.0565,3.9794,3.9699,3.9699,3.9699,3.9699,4.0109,4.0869,4.0888,4.0888,4.0888,4.0888,4.0888,4.0888,4.0888,4.0888,4.0888,4.0888,4.0888,4.0888,4.0888,4.0888,4.0888,4.0888,4.0913,4.0982,4.1283,4.1858,4.2735,4.2817,4.3065,4.3574,4.3625,4.3665,4.3705,4.3701,4.401,4.4529,4.4679,4.4844,4.5336,4.5443,4.5282,4.4984,4.5165,4.494,4.4047,4.3849,4.375,4.3542,4.3228,4.2723,4.2111,4.1609,4.1203,4.0788,4.0334,3.9965,3.9739,3.9471,3.9185,3.8967,3.8799,3.8715,3.8699,3.8699,3.8624,3.8551,3.851,3.8423,3.8042,3.7756,3.7274,3.6741,3.6235,3.5849,3.5667,3.5611,3.56,3.5566,3.5247,3.4892,3.4132,3.3588,3.3039,5.6827,5.6901,5.6242,5.5573,5.4912,5.3808,5.2992,5.2348,5.1552,5.122,5.108,4.9904,4.9097,4.8612,4.8154,4.7186,4.6122,4.6025,4.6056,4.6123,4.6128,4.6151,4.6124,4.557,4.4682,4.3652,4.3027,4.2148,4.1229,4.13,4.0922,4.0186,4.0277,4.0303,4.0061,4.0062,4.0332,4.0868,4.0924,4.0888,4.0888,4.0888,4.0888,4.0888,4.0888,4.0888,4.0888,4.0888,4.0888,4.0888,4.0888,4.09,4.0943,4.0926,4.0945,4.0996,4.1005,4.1296,4.192,4.1972,4.2238,4.2823,4.2954,4.2989,4.2987,4.2985,4.2959,4.2927,4.2925,4.3328,4.4368,4.4504,4.4396,4.4195,4.4181,4.3915,4.3066,4.2834,4.2744,4.2622,4.2294,4.2018,4.1251,4.0535,4.0038,4.0268,4.0101,3.984,3.9751,3.9383,3.908,3.9014,3.8799,3.8696,3.864,3.8624,3.8593,3.8507,3.8441,3.8328,3.7923,3.7739,3.744,3.6751,3.6409,3.6056,3.5711,3.5628,3.5588,3.547,3.508,3.4541,3.407,3.3485,3.2922,5.778,5.632,5.5434,5.5048,5.4854,5.3209,5.2432,5.2266,5.1541,5.121,5.1213,5.1033,5.017,4.8669,4.7221,4.6235,4.6096,4.6096,4.6134,4.6179,4.6201,4.6201,4.6205,4.6149,4.5254,4.3806,4.3674,4.2772,4.1262,4.187,4.1796,4.1051,4.1731,4.175,4.1115,4.0965,4.0974,4.1064,4.0966,4.0897,4.0897,4.0897,4.0902,4.0904,4.089,4.0895,4.0895,4.089,4.0895,4.0893,4.0902,4.0935,4.0979,4.1008,4.1002,4.1007,4.107,4.1113,4.119,4.1214,4.127,4.1278,4.1429,4.1284,4.1469,4.1467,4.1461,4.1289,4.1419,4.202,4.3277,4.3501,4.3221,4.2641,4.2903,4.2701,4.189,4.1624,4.1694,4.1445,4.0868,4.04,4.0253,3.958,3.9537,3.9919,4.0005,3.9779,3.952,3.924,3.8981,3.8818,3.8689,3.8632,3.8533,3.8533,3.8454,3.8352,3.8305,3.8206,3.7933,3.7604,3.7159,3.6709,3.6156,3.5783,3.5667,3.5588,3.5566,3.531,3.4661,3.4161,3.3856,3.3055,3.2561,5.6874,5.6217,5.5356,5.4679,5.405,5.2932,5.2144,5.1626,5.137,5.1267,5.1158,5.0682,5.0084,4.9474,4.8315,4.7174,4.6203,4.6128,4.6133,4.619,4.6211,4.621,4.62,4.621,4.5617,4.4595,4.4459,4.3862,4.2816,4.3001,4.2977,4.277,4.2968,4.2945,4.2627,4.211,4.1824,4.1771,4.1302,4.0963,4.1018,4.0963,4.0963,4.096,4.0977,4.0972,4.0953,4.0959,4.0943,4.0963,4.0963,4.097,4.0989,4.1031,4.1064,4.1071,4.109,4.1116,4.111,4.1109,4.1108,4.1103,4.1112,4.1106,4.11,4.1099,4.1115,4.1083,4.1001,4.1369,4.1734,4.2269,4.2647,4.2703,4.1995,4.1342,4.08,3.9928,3.9325,3.9641,3.9179,3.8667,3.8784,3.8685,3.8868,3.915,3.9319,3.9327,3.9213,3.8949,3.8695,3.8588,3.8528,3.8465,3.8387,3.8446,3.842,3.8262,3.8122,3.7721,3.7394,3.7032,3.6594,3.6308,3.5794,3.5667,3.5616,3.5521,3.5487,3.5073,3.4419,3.3843,3.3547,3.2882,3.2492,5.6142,5.5791,5.499,5.4149,5.3283,5.2464,5.1788,5.1253,5.129,5.131,5.1165,5.0664,5.0292,4.998,4.9402,4.839,4.7109,4.6991,4.6699,4.6297,4.6779,4.6745,4.631,4.648,4.6028,4.4987,4.4585,4.4142,4.3725,4.3886,4.4022,4.4005,4.4265,4.4293,4.3964,4.3418,4.3025,4.2671,4.2138,4.184,4.1821,4.1547,4.1408,4.1366,4.1178,4.1024,4.0986,4.0978,4.0991,4.0991,4.0991,4.1016,4.1044,4.1074,4.1109,4.1108,4.1108,4.1106,4.11,4.1106,4.1113,4.1107,4.1117,4.1109,4.1107,4.105,4.1036,4.1,4.0919,4.0831,4.0812,4.1014,4.1372,4.1694,4.0773,3.9887,3.9583,3.8482,3.8284,3.8729,3.8075,3.7633,3.7875,3.7836,3.8033,3.8388,3.8621,3.8704,3.8913,3.8711,3.847,3.8488,3.8438,3.8403,3.8356,3.8368,3.8167,3.7974,3.7854,3.7395,3.6958,3.6553,3.6206,3.5893,3.5723,3.5644,3.5554,3.5464,3.5178,3.4821,3.4181,3.3537,3.3185,3.2815,3.2465,5.5799,5.5084,5.4219,5.3415,5.2613,5.1784,5.1324,5.1312,5.1296,5.1327,5.1303,5.1241,5.0816,5.0279,5.0117,4.9605,4.8799,4.869,4.7888,4.6705,4.7925,4.7786,4.6554,4.7177,4.676,4.5327,4.4275,4.3875,4.4014,4.4684,4.502,4.5074,4.5629,4.5552,4.492,4.4716,4.4341,4.3743,4.3437,4.3416,4.3493,4.2635,4.2204,4.2143,4.1504,4.1074,4.0997,4.0997,4.1,4.0998,4.0998,4.1045,4.1094,4.1099,4.1115,4.1116,4.1103,4.1108,4.1099,4.1116,4.1106,4.1132,4.1145,4.1174,4.1086,4.1129,4.1136,4.1027,4.0978,4.0826,4.0653,4.0157,3.9719,3.9265,3.9218,3.8592,3.8154,3.7778,3.7999,3.8434,3.7499,3.7227,3.7855,3.7509,3.7165,3.7938,3.8117,3.8173,3.871,3.8582,3.8412,3.8399,3.8385,3.833,3.8323,3.8274,3.7923,3.7632,3.7514,3.7255,3.6811,3.6399,3.6152,3.586,3.5711,3.5622,3.5532,3.539,3.4951,3.4529,3.3856,3.3277,3.2922,3.2614,3.241,5.5334,5.4912,5.3542,5.2791,5.2428,5.1639,5.1308,5.1307,5.1337,5.1357,5.1362,5.1313,5.1163,5.0971,5.0917,5.0442,4.9703,5.0131,4.9588,4.8335,4.8596,4.8553,4.8124,4.8241,4.8119,4.7627,4.7329,4.6839,4.6371,4.6527,4.6412,4.5983,4.6061,4.605,4.5754,4.5205,4.4731,4.4489,4.3955,4.3687,4.359,4.283,4.2383,4.2286,4.1535,4.1088,4.1079,4.1067,4.1071,4.1052,4.1068,4.1061,4.1087,4.111,4.11,4.1099,4.1109,4.11,4.1114,4.1142,4.117,4.1214,4.1521,4.1453,4.1192,4.1898,4.212,4.1776,4.1974,4.2275,4.2069,4.1349,4.051,3.9995,3.8392,3.7822,3.8228,3.7597,3.7077,3.7132,3.6652,3.6753,3.7447,3.7156,3.7318,3.7742,3.8017,3.8297,3.8462,3.8473,3.8338,3.833,3.8307,3.8239,3.8147,3.7949,3.7614,3.7293,3.7122,3.6921,3.6519,3.6224,3.6013,3.5866,3.5711,3.56,3.5521,3.5166,3.4697,3.4231,3.364,3.3159,3.2763,3.2506,3.2301,5.5384,5.4997,5.3965,5.3105,5.2537,5.1976,5.1594,5.1335,5.1346,5.1362,5.1354,5.1326,5.1301,5.1298,5.1306,5.0989,5.0579,5.1086,5.0741,4.9854,4.9749,4.9449,4.8925,4.8808,4.8808,4.8808,4.8789,4.8536,4.8009,4.7949,4.7542,4.6821,4.6685,4.6495,4.6213,4.5686,4.5379,4.531,4.4904,4.4629,4.4454,4.3773,4.3327,4.3213,4.2491,4.1908,4.1621,4.1579,4.143,4.1175,4.111,4.1103,4.1114,4.1111,4.1107,4.1163,4.1367,4.1544,4.1496,4.1846,4.1921,4.1982,4.2268,4.2327,4.202,4.2769,4.2782,4.2509,4.2635,4.2681,4.1992,4.1464,4.0711,3.9866,3.8514,3.7803,3.8319,3.7612,3.7201,3.7243,3.6904,3.6922,3.7324,3.7194,3.7368,3.7477,3.7769,3.8169,3.8233,3.8313,3.8282,3.8257,3.8232,3.8114,3.7933,3.7641,3.7293,3.6968,3.6688,3.6416,3.6086,3.5926,3.5711,3.5723,3.5622,3.5622,3.5532,3.4828,3.4292,3.3827,3.3433,3.2909,3.2492,3.2396,3.2231,5.583,5.5143,5.5085,5.4014,5.2684,5.2543,5.2032,5.1374,5.1312,5.1301,5.1306,5.1304,5.1302,5.13,5.13,5.1242,5.1279,5.124,5.1261,5.1127,5.1028,5.0424,4.9352,4.9255,4.9256,4.9159,4.914,4.8984,4.8847,4.8845,4.8438,4.7639,4.7425,4.7113,4.6472,4.6258,4.6102,4.6047,4.6065,4.6026,4.5987,4.5227,4.4764,4.4716,4.388,4.3106,4.2571,4.243,4.2042,4.1326,4.1367,4.1501,4.1323,4.1254,4.1394,4.1448,4.1984,4.2196,4.2364,4.2716,4.3109,4.2995,4.3108,4.3216,4.3045,4.3192,4.334,4.3082,4.3029,4.2393,4.1261,4.0673,4.0191,3.9312,3.8911,3.8514,3.7827,3.7678,3.7789,3.8143,3.7818,3.7399,3.7748,3.7179,3.7055,3.7235,3.745,3.7802,3.8081,3.8249,3.8217,3.8183,3.814,3.7933,3.7721,3.7245,3.6909,3.6671,3.6378,3.6071,3.5849,3.5711,3.5628,3.5628,3.5628,3.5628,3.5321,3.4625,3.4095,3.3713,3.3224,3.2643,3.237,3.2301,3.2205,5.5391,5.5106,5.4504,5.3611,5.268,5.2619,5.2113,5.1347,5.1308,5.1306,5.13,5.13,5.13,5.13,5.13,5.13,5.13,5.13,5.13,5.13,5.13,5.1143,5.0714,5.0617,5.0579,5.056,5.0463,5.0324,4.9722,4.9703,4.9256,4.8436,4.7891,4.7464,4.7113,4.6587,4.6217,4.6197,4.6217,4.6236,4.61,4.5397,4.4915,4.4819,4.4093,4.3567,4.3276,4.3191,4.2811,4.2187,4.2638,4.2944,4.2806,4.2737,4.2641,4.2691,4.2817,4.2941,4.2966,4.3169,4.3266,4.3246,4.3709,4.3673,4.3149,4.4086,4.4259,4.3948,4.3683,4.3472,4.2865,4.1815,4.084,4.0057,3.9408,3.874,3.8019,3.7708,3.7941,3.841,3.8116,3.8122,3.8201,3.8085,3.7768,3.7899,3.7952,3.7955,3.8168,3.8234,3.82,3.8054,3.7959,3.7721,3.7404,3.69,3.6546,3.6367,3.6099,3.5805,3.57,3.5644,3.5628,3.5628,3.5628,3.5628,3.5085,3.4443,3.4032,3.3649,3.3015,3.2467,3.237,3.2301,3.2163,5.5753,5.5705,5.5198,5.4488,5.3677,5.3305,5.2643,5.1885,5.1435,5.13,5.13,5.13,5.13,5.13,5.13,5.13,5.13,5.13,5.13,5.13,5.13,5.1279,5.1259,5.1298,5.13,5.13,5.13,5.1008,5.0618,5.056,5.0092,4.9391,4.8806,4.838,4.8029,4.762,4.7287,4.725,4.6977,4.6743,4.6665,4.5852,4.5427,4.5278,4.4765,4.4385,4.4042,4.3893,4.3534,4.3071,4.3205,4.3444,4.3428,4.3355,4.3313,4.3327,4.3547,4.3735,4.3705,4.3925,4.4126,4.4153,4.4502,4.4388,4.4226,4.4842,4.4953,4.4126,4.4336,4.3973,4.2942,4.1743,4.084,4.0152,3.9666,3.9142,3.8565,3.8498,3.8472,3.8588,3.8531,3.8394,3.8666,3.8454,3.8338,3.8256,3.8176,3.817,3.8217,3.8209,3.8167,3.802,3.7748,3.7496,3.7161,3.6688,3.6273,3.6067,3.5937,3.5633,3.5628,3.5628,3.5628,3.5628,3.5628,3.5464,3.4939,3.4456,3.4057,3.3575,3.2884,3.2465,3.2384,3.2261,3.2136,5.6485,5.6485,5.6485,5.5996,5.5039,5.426,5.3305,5.2506,5.1649,5.13,5.13,5.13,5.13,5.13,5.13,5.13,5.13,5.13,5.13,5.1294,5.1265,5.1254,5.1252,5.1292,5.1298,5.13,5.13,5.1261,5.1164,5.122,5.0872,5.0203,4.9966,4.9549,4.8907,4.8673,4.8697,4.8388,4.781,4.7401,4.7237,4.6658,4.6347,4.6042,4.5899,4.5593,4.5182,4.49,4.457,4.3984,4.3618,4.3657,4.3579,4.3523,4.3535,4.3679,4.421,4.4484,4.4423,4.4912,4.5303,4.5173,4.5166,4.5283,4.5145,4.5231,4.5015,4.4374,4.48,4.3902,4.2364,4.105,4.0727,4.0447,4.0173,3.9845,3.9708,3.9483,3.9177,3.8865,3.8755,3.8592,3.8395,3.8259,3.8209,3.8242,3.8225,3.8217,3.8209,3.82,3.8115,3.7967,3.765,3.7255,3.688,3.6482,3.6082,3.5789,3.5756,3.5628,3.5628,3.5628,3.5628,3.5628,3.5628,3.5402,3.501,3.4536,3.4082,3.3446,3.2722,3.2492,3.2384,3.2219,3.2066,5.6485,5.6485,5.6485,5.5996,5.5137,5.4258,5.3403,5.2526,5.1671,5.13,5.13,5.13,5.13,5.1298,5.1294,5.13,5.129,5.1269,5.13,5.1271,5.1174,5.1147,5.1161,5.1232,5.129,5.1269,5.1296,5.1294,5.1292,5.1239,5.1219,5.0934,5.024,4.9779,4.9557,4.896,4.8412,4.8373,4.8228,4.7837,4.7492,4.7588,4.7356,4.6866,4.6714,4.6996,4.7237,4.6725,4.656,4.6578,4.5862,4.5138,4.512,4.5063,4.5006,4.503,4.5044,4.516,4.5116,4.5307,4.5359,4.5394,4.5392,4.5283,4.5283,4.5359,4.5244,4.4895,4.459,4.3833,4.2623,4.2112,4.1654,4.1296,4.0658,4.0033,3.9834,3.9503,3.9127,3.8915,3.8726,3.8597,3.833,3.8241,3.8209,3.82,3.82,3.82,3.8175,3.815,3.7959,3.7748,3.732,3.6927,3.6638,3.6252,3.5926,3.5678,3.5633,3.5628,3.5628,3.5628,3.5628,3.5628,3.5628,3.5333,3.4963,3.4415,3.3907,3.3224,3.2654,3.2506,3.2356,3.2177,3.208,5.6485,5.6446,5.6074,5.5624,5.5039,5.3851,5.3032,5.2487,5.1688,5.13,5.13,5.13,5.13,5.1294,5.1236,5.1213,5.1181,5.11,5.1075,5.1041,5.0979,5.0975,5.0959,5.1017,5.1061,5.1061,5.1058,5.1061,5.1061,5.1086,5.1047,5.1058,5.05,5.0332,5.0251,4.9694,4.9579,4.9436,4.9049,4.8601,4.833,4.8074,4.7995,4.7489,4.7375,4.7644,4.7847,4.7549,4.7514,4.7587,4.7151,4.6695,4.6687,4.6618,4.6565,4.6569,4.6527,4.6462,4.6448,4.6099,4.5875,4.5851,4.5851,4.5851,4.5851,4.5851,4.5627,4.527,4.4693,4.3992,4.3001,4.227,4.202,4.1651,4.111,4.0556,4.0244,3.9488,3.8781,3.8605,3.8476,3.8382,3.8282,3.8216,3.8217,3.82,3.8157,3.8132,3.7819,3.7766,3.7559,3.7301,3.6898,3.6564,3.6326,3.6045,3.5778,3.5622,3.5622,3.5628,3.5628,3.5628,3.5628,3.56,3.5566,3.5247,3.4868,3.4321,3.3767,3.3237,3.2788,3.2561,3.237,3.2288,3.2191,5.6427,5.6269,5.561,5.5231,5.4745,5.34,5.2687,5.2402,5.1609,5.1176,5.1236,5.1241,5.1172,5.1176,5.1081,5.1059,5.103,5.0928,5.087,5.0858,5.0801,5.0797,5.0773,5.0753,5.0717,5.0741,5.0809,5.0824,5.0847,5.0817,5.0877,5.0809,5.0766,5.0642,5.0696,5.0698,5.0473,5.0302,4.9864,4.9401,4.9247,4.874,4.8483,4.8389,4.8089,4.8223,4.8362,4.8195,4.8097,4.8151,4.817,4.8176,4.8099,4.7679,4.7603,4.7513,4.7283,4.7188,4.703,4.6762,4.6424,4.6519,4.6481,4.6347,4.6252,4.6222,4.5928,4.5441,4.489,4.448,4.3345,4.2971,4.2299,4.1792,4.153,4.1232,4.0896,3.9723,3.916,3.8571,3.8669,3.8655,3.8378,3.8209,3.82,3.822,3.8186,3.8012,3.7676,3.7376,3.7206,3.6986,3.6625,3.6273,3.6034,3.5937,3.5644,3.5628,3.5628,3.5628,3.5628,3.5628,3.56,3.5554,3.5436,3.5097,3.4637,3.4057,3.3575,3.3185,3.2841,3.2506,3.2398,3.2384,3.2287,5.6095,5.5442,5.5861,5.5202,5.3907,5.339,5.275,5.21,5.1249,5.0895,5.0905,5.0879,5.0916,5.0895,5.0857,5.0851,5.0825,5.0765,5.0769,5.0745,5.0678,5.062,5.062,5.0498,5.0423,5.0462,5.0609,5.0765,5.0782,5.0813,5.0753,5.0765,5.0678,5.0644,5.0572,5.0486,5.0434,5.0436,5.019,4.9834,4.9473,4.9565,4.9663,4.957,4.9137,4.9175,4.948,4.9232,4.918,4.9799,4.9876,4.9843,4.9366,4.7946,4.7169,4.7169,4.724,4.7373,4.724,4.6819,4.6557,4.6519,4.6672,4.6279,4.6031,4.6162,4.6178,4.5489,4.5278,4.5097,4.4294,4.4097,4.3976,4.334,4.2575,4.2149,4.2268,4.1733,4.0699,3.9974,3.9549,3.9233,3.9269,3.9098,3.8964,3.8832,3.8537,3.8124,3.7587,3.7222,3.6906,3.665,3.6395,3.6056,3.5767,3.5734,3.5628,3.5628,3.5628,3.5628,3.5628,3.5628,3.5577,3.5424,3.5143,3.4761,3.4268,3.3755,3.3277,3.2828,3.2602,3.2411,3.2398,3.237,3.2288,5.5013,5.4291,5.4141,5.3608,5.2822,5.2268,5.1819,5.1397,5.0991,5.0813,5.0813,5.0813,5.0813,5.0789,5.0726,5.0652,5.0572,5.0538,5.0538,5.0523,5.0471,5.0437,5.0467,5.0323,5.0314,5.034,5.0467,5.0553,5.0538,5.0543,5.0558,5.0533,5.048,5.0442,5.0426,5.0363,5.0302,5.0296,5.0258,5.013,4.9748,5.0168,5.0258,5.0168,4.9977,4.9958,5.0073,5.0015,4.9882,5.0187,5.0277,5.0296,4.9799,4.9003,4.799,4.8296,4.8334,4.8391,4.8309,4.8143,4.79,4.7881,4.7813,4.7612,4.7258,4.7345,4.6853,4.6055,4.5657,4.5669,4.5088,4.5189,4.4985,4.4593,4.3906,4.3801,4.3934,4.3697,4.291,4.1914,4.1687,4.1424,4.099,4.0673,4.0059,3.9544,3.9045,3.8439,3.7817,3.7504,3.7278,3.6651,3.6445,3.616,3.5836,3.5695,3.5628,3.5628,3.5645,3.5645,3.5661,3.5678,3.5424,3.5143,3.4781,3.4599,3.3894,3.3352,3.2922,3.2547,3.248,3.2411,3.2398,3.2342,3.2288,5.4017,5.3096,5.253,5.2107,5.1736,5.1241,5.0891,5.0726,5.0694,5.0686,5.0707,5.0679,5.0686,5.0664,5.0582,5.0448,5.0302,5.0319,5.0323,5.0329,5.0337,5.0308,5.0302,5.0296,5.0296,5.0302,5.0317,5.0296,5.034,5.0346,5.0319,5.0335,5.03,5.0302,5.0308,5.0314,5.0296,5.0296,5.0296,5.0296,5.0296,5.0296,5.0296,5.0296,5.0296,5.0283,5.0283,5.0225,5.0201,5.0277,5.0296,5.0296,5.0201,4.9691,4.9658,5.0149,5.0149,5.0073,4.9805,4.9391,4.8789,4.865,4.8897,4.8662,4.8121,4.7546,4.7413,4.6609,4.636,4.6064,4.5608,4.5683,4.5567,4.5291,4.5215,4.5309,4.5363,4.5309,4.5218,4.4522,4.4105,4.3307,4.2546,4.1595,4.0862,4.0779,4.0295,3.9684,3.9081,3.8559,3.81,3.7104,3.6599,3.6344,3.6045,3.5752,3.5678,3.5628,3.5667,3.5718,3.5746,3.578,3.5455,3.5134,3.4951,3.4658,3.3822,3.3082,3.2736,3.2492,3.2439,3.2411,3.2398,3.2384,3.2342,5.3684,5.2283,5.2766,5.2131,5.0967,5.1239,5.1031,5.041,5.0388,5.0369,5.0391,5.0372,5.0388,5.0402,5.038,5.0337,5.0308,5.0296,5.0296,5.0296,5.0296,5.0296,5.0296,5.0296,5.0296,5.0296,5.0296,5.0296,5.0296,5.0296,5.0296,5.0296,5.0296,5.0296,5.0296,5.0296,5.0296,5.0296,5.0296,5.0296,5.0296,5.0296,5.0296,5.0296,5.0296,5.0296,5.0296,5.0296,5.0296,5.0296,5.0296,5.0296,5.0277,5.0245,5.0168,5.0073,4.9729,4.9257,4.9362,4.9287,4.9072,4.8897,4.8782,4.8084,4.7683,4.7159,4.6867,4.6386,4.6544,4.6521,4.6149,4.628,4.6103,4.589,4.5711,4.5953,4.6178,4.6367,4.6349,4.6323,4.5634,4.4542,4.3583,4.2561,4.1691,4.1693,4.1541,4.0909,4.0222,3.96,3.9175,3.8265,3.7572,3.7268,3.7065,3.6642,3.6219,3.6,3.6033,3.6073,3.605,3.6076,3.5628,3.5358,3.5154,3.4717,3.3897,3.3236,3.2685,3.2682,3.2964,3.275,3.2411,3.2428,3.2661,5.2595,5.1124,5.1371,5.1116,5.05,5.0744,5.0659,5.0353,5.0296,5.0296,5.0296,5.0296,5.0296,5.0296,5.0296,5.0302,5.0296,5.0296,5.0296,5.0296,5.0296,5.0296,5.0296,5.0296,5.0296,5.0296,5.0296,5.0296,5.0296,5.0296,5.0296,5.0296,5.0296,5.0296,5.0296,5.0296,5.0296,5.0296,5.0296,5.0296,5.0296,5.0296,5.0296,5.0296,5.0296,5.0296,5.0296,5.0296,5.0296,5.0296,5.0296,5.0296,5.0255,5.0138,5.0006,4.9968,4.9734,4.9543,4.9543,4.9493,4.9287,4.9089,4.8948,4.8694,4.7961,4.7504,4.7233,4.725,4.7331,4.7173,4.6914,4.7116,4.7021,4.6791,4.6462,4.6669,4.6957,4.7091,4.7197,4.7221,4.7043,4.5762,4.4715,4.4138,4.333,4.3,4.2672,4.1986,4.1099,4.0186,3.9858,3.9579,3.8971,3.8514,3.8316,3.8029,3.7437,3.7183,3.7133,3.707,3.6679,3.6451,3.6109,3.5714,3.5457,3.4859,3.4055,3.3757,3.3545,3.3564,3.3612,3.3412,3.3258,3.3505,3.3676,5.1811,5.0315,5.0296,5.0296,5.0296,5.0296,5.0296,5.0296,5.0296,5.0296,5.0296,5.0296,5.0296,5.0296,5.0296,5.0296,5.0296,5.0296,5.0296,5.0296,5.0296,5.0296,5.0296,5.0296,5.0296,5.0296,5.0296,5.0296,5.0296,5.0296,5.0296,5.0296,5.0296,5.0296,5.0296,5.0296,5.0296,5.0296,5.0296,5.0296,5.0296,5.0296,5.0296,5.0296,5.0296,5.0296,5.0296,5.0296,5.0296,5.0296,5.0296,5.0296,5.0273,5.0032,4.9864,4.9805,4.9669,4.9497,4.9526,4.9544,4.9534,4.931,4.9037,4.8734,4.8538,4.8306,4.8101,4.7843,4.7771,4.778,4.7822,4.7676,4.7557,4.751,4.75,4.7645,4.766,4.752,4.7455,4.7431,4.7172,4.6629,4.5834,4.5639,4.5127,4.4502,4.3842,4.3066,4.227,4.1352,4.1255,4.1217,4.0595,4.007,3.9669,3.9348,3.8773,3.8401,3.8362,3.812,3.78,3.7303,3.6867,3.6432,3.5977,3.5444,3.4888,3.4697,3.4474,3.4227,3.4074,3.4274,3.4335,3.4536,3.4505,5.183,5.0296,5.0296,5.0296,5.0296,5.0296,5.0296,5.0296,5.0296,5.0296,5.0296,5.0296,5.0296,5.0296,5.0296,5.0296,5.0296,5.0296,5.0296,5.0296,5.0296,5.0296,5.0296,5.0296,5.0296,5.0296,5.0296,5.0296,5.0296,5.0296,5.0296,5.0296,5.0296,5.0296,5.0296,5.0296,5.0296,5.0296,5.0296,5.0296,5.0296,5.0296,5.0296,5.0296,5.0296,5.0296,5.0296,5.0296,5.0242,5.0242,5.0224,5.0162,5.0069,4.981,4.9646,4.9596,4.9439,4.9232,4.9105,4.9333,4.9371,4.8967,4.8614,4.8449,4.8345,4.8161,4.803,4.797,4.7824,4.7741,4.7738,4.7689,4.7689,4.7689,4.7689,4.7689,4.7657,4.7554,4.7489,4.7525,4.7097,4.6371,4.597,4.5531,4.5308,4.4671,4.4626,4.3892,4.3922,4.3298,4.3234,4.3047,4.2371,4.1779,4.1157,4.0667,4.0121,3.9834,3.9732,3.9382,3.8992,3.844,3.7981,3.7281,3.6838,3.6296,3.5779,3.5427,3.5075,3.4659,3.4582,3.4936,3.5014,3.5044,3.4951,5.1836,5.0315,5.0296,5.0296,5.0296,5.0296,5.0296,5.0296,5.0296,5.0296,5.0296,5.0296,5.0296,5.0296,5.0296,5.0296,5.0296,5.0296,5.0296,5.0296,5.0296,5.0296,5.0296,5.0296,5.0296,5.0296,5.0296,5.0296,5.0296,5.0259,5.0296,5.0296,5.0242,5.0296,5.0296,5.0296,5.0296,5.0296,5.0296,5.0296,5.0296,5.0296,5.0296,5.0296,5.0296,5.0296,5.0296,5.0296,5.0169,5.0051,4.9987,4.989,4.973,4.9424,4.9271,4.9232,4.9072,4.8849,4.864,4.8908,4.8942,4.8632,4.8344,4.819,4.8151,4.8018,4.7896,4.7814,4.7752,4.7699,4.7689,4.7689,4.7689,4.7689,4.7689,4.7689,4.7565,4.7428,4.7218,4.7129,4.6489,4.574,4.5425,4.514,4.497,4.4787,4.4821,4.4841,4.4679,4.4584,4.4296,4.4076,4.3386,4.3315,4.276,4.2134,4.1491,4.1275,4.111,4.0525,4.0045,3.9878,3.9336,3.8528,3.7684,3.7157,3.6646,3.6138,3.5768,3.5491,3.5552,3.5814,3.5783,3.5599,3.5506,5.1754,5.0684,5.0397,5.0296,5.0296,5.0296,5.0296,5.0296,5.0296,5.0296,5.0296,5.0296,5.0296,5.0296,5.0296,5.0296,5.0296,5.0296,5.0296,5.0296,5.0296,5.0296,5.0296,5.0296,5.0296,5.0296,5.0296,5.0296,5.0296,5.0187,5.0113,5.0082,5.0063,5.0057,5.0296,5.0296,5.0296,5.0296,5.02,5.0236,5.0248,5.0175,5.0236,5.0248,5.0296,5.0212,5.015,5.0076,4.9935,4.9769,4.9639,4.9553,4.9294,4.9023,4.8823,4.8772,4.8676,4.8541,4.8458,4.8467,4.8541,4.8335,4.8275,4.8148,4.802,4.7945,4.7863,4.7801,4.7749,4.7689,4.7689,4.7689,4.7689,4.7689,4.7689,4.7668,4.7363,4.7151,4.6879,4.6642,4.5962,4.539,4.5228,4.5021,4.4824,4.4703,4.4703,4.472,4.4651,4.4584,4.455,4.4347,4.4076,4.4195,4.4344,4.3552,4.2844,4.2702,4.2361,4.1477,4.1042,4.0821,4.0092,3.8827,3.8134,3.791,3.743,3.683,3.6569,3.6415,3.6399,3.6261,3.6261,3.6076,3.6184,5.1595,5.148,5.0646,5.0296,5.0296,5.0296,5.0296,5.0296,5.0296,5.0296,5.0296,5.0296,5.0296,5.0296,5.0296,5.0296,5.0296,5.0296,5.0296,5.0296,5.0224,5.0253,5.023,5.0187,5.0076,5.0267,5.0188,5.012,5.0181,4.9935,4.983,4.9737,4.9653,4.9695,5.0224,5.0265,5.0284,5.0236,4.9961,4.9993,5.012,4.9961,4.9968,5.0069,5.0126,4.9987,4.9857,4.9817,4.9646,4.9378,4.9325,4.9256,4.9121,4.8874,4.8756,4.8747,4.8486,4.8354,4.8324,4.8343,4.8359,4.8217,4.8148,4.8088,4.8,4.7917,4.7861,4.778,4.7759,4.7699,4.7689,4.7689,4.7689,4.7689,4.7689,4.7533,4.7236,4.681,4.6537,4.6135,4.5691,4.5267,4.5112,4.4927,4.4717,4.4612,4.4598,4.4584,4.4584,4.4584,4.4584,4.4533,4.4381,4.4432,4.4547,4.455,4.422,4.4075,4.3546,4.2613,4.1753,4.1249,4.0325,3.9098,3.8727,3.8631,3.8077,3.7461,3.7076,3.6661,3.6522,3.6445,3.6492,3.6492,3.6492,5.1251,5.0716,5.0436,5.0296,5.0296,5.0296,5.0296,5.0296,5.0296,5.0296,5.0296,5.0296,5.0296,5.0296,5.0296,5.0296,5.0296,5.0296,5.0296,5.0253,5.0076,4.9981,4.9935,4.9803,4.9688,4.9634,4.9634,4.9688,4.9599,4.9505,4.9483,4.9416,4.9516,4.942,4.957,4.9667,4.9728,4.9857,4.9695,4.9606,4.987,4.9648,4.9534,4.9655,4.9688,4.9606,4.9483,4.9476,4.9302,4.9015,4.8957,4.8892,4.8764,4.8514,4.8523,4.8513,4.8334,4.8277,4.8393,4.8517,4.8603,4.8342,4.8101,4.8087,4.7943,4.7832,4.7798,4.7806,4.7829,4.7779,4.7689,4.7689,4.7689,4.7689,4.7636,4.7396,4.7073,4.6578,4.6165,4.5627,4.5165,4.4971,4.4797,4.4824,4.4651,4.4584,4.4584,4.4584,4.4584,4.4584,4.4584,4.4584,4.4533,4.455,4.4584,4.4584,4.4584,4.4376,4.4082,4.3585,4.2775,4.1723,4.0956,3.9915,3.9609,3.9322,3.8707,3.8045,3.7246,3.6799,3.6846,3.6645,3.6492,3.6492,3.6492,5.1003,5.0716,5.0411,5.0296,5.0296,5.0296,5.0296,5.0296,5.0296,5.0296,5.0296,5.0296,5.0296,5.0296,5.0296,5.0296,5.029,5.0156,5.0107,5.0076,4.979,4.9667,4.9541,4.9416,4.9397,4.9283,4.9283,4.9314,4.9337,4.9201,4.9262,4.9471,4.9665,4.968,4.9585,4.9431,4.9439,4.9512,4.9356,4.9276,4.9431,4.9363,4.9209,4.9291,4.9314,4.9271,4.9169,4.9072,4.8965,4.8737,4.8614,4.856,4.8391,4.8333,4.8471,4.8618,4.8991,4.9014,4.9165,4.9258,4.9297,4.8961,4.8512,4.8299,4.8348,4.8575,4.8162,4.8043,4.8015,4.7906,4.7852,4.7833,4.7791,4.7791,4.754,4.7301,4.6655,4.6127,4.5765,4.5234,4.492,4.4706,4.4584,4.4612,4.4598,4.4584,4.4584,4.4584,4.4584,4.4584,4.4584,4.4584,4.4584,4.4584,4.4584,4.4584,4.4584,4.4584,4.4179,4.3693,4.2845,4.1645,4.1198,4.0785,4.0272,3.9784,3.9307,3.8661,3.7891,3.7507,3.7492,3.7153,3.663,3.6661,3.683,5.0799,5.1385,5.0634,5.0278,5.0265,5.0212,5.023,5.029,5.0296,5.029,5.0273,5.0236,5.0194,5.0212,5.0224,5.0194,5.0132,4.9877,4.9798,4.9669,4.942,4.9329,4.9252,4.9182,4.907,4.9177,4.9289,4.9365,4.9305,4.9437,4.951,4.9766,5.0283,5.0154,4.9843,4.9667,4.9583,4.9509,4.928,4.9316,4.9463,4.9199,4.9083,4.9137,4.9211,4.9096,4.894,4.8764,4.8595,4.8476,4.8426,4.8417,4.8388,4.837,4.8912,4.9506,5.0177,5.024,5.0041,5.0049,5.0195,4.9916,4.9549,4.9216,4.9129,4.934,4.9068,4.8713,4.8641,4.834,4.8141,4.8059,4.7959,4.7748,4.7467,4.6926,4.6161,4.5692,4.5362,4.5015,4.4771,4.4601,4.4584,4.4584,4.4584,4.4584,4.4584,4.4584,4.4584,4.4584,4.4584,4.4584,4.4584,4.4584,4.4584,4.4584,4.4584,4.4584,4.3678,4.306,4.2252,4.169,4.1142,4.0751,4.0593,4.0151,3.9537,3.9045,3.8584,3.8323,3.8046,3.78,3.7323,3.74,3.7554,5.0455,5.0622,5.0158,4.9942,4.9916,4.9695,4.985,5.0273,5.0296,5.0175,4.9948,4.9948,4.9844,4.9611,4.9596,4.9625,4.9582,4.9505,4.9442,4.9299,4.9105,4.8982,4.8874,4.8764,4.8658,4.8835,4.9131,4.95,4.9649,4.9785,5.0217,5.052,5.0875,5.0692,5.0543,5.0404,5.0193,4.9874,4.9593,4.9545,4.9634,4.9501,4.927,4.9066,4.9407,4.9233,4.8864,4.8698,4.8557,4.8473,4.8948,4.9197,4.9233,4.9709,5.0305,5.0304,5.0743,5.0926,5.0435,5.0685,5.0967,5.0963,5.0707,5.0315,5.0064,4.9981,4.9974,4.9557,4.9438,4.9311,4.9068,4.8883,4.8697,4.8418,4.8057,4.7457,4.6738,4.6181,4.5808,4.5289,4.5007,4.4702,4.4668,4.4584,4.4584,4.4584,4.4584,4.4584,4.4584,4.4584,4.4584,4.4584,4.4584,4.4584,4.4584,4.4584,4.4584,4.4454,4.3529,4.2784,4.2379,4.182,4.1126,4.0732,4.0558,4.0136,3.9599,3.9261,3.9153,3.8691,3.84,3.8246,3.8123,3.8184,3.8214,4.9916,4.987,4.9695,4.9592,4.9563,4.9394,4.9556,4.987,4.9897,4.9764,4.9606,4.9611,4.949,4.9352,4.9329,4.9322,4.9333,4.9177,4.9105,4.9015,4.8874,4.8658,4.8523,4.8485,4.8392,4.8618,4.9068,4.9579,4.9949,5.0729,5.1261,5.1298,5.1499,5.1499,5.1475,5.1534,5.1402,5.0882,5.0393,5.0079,4.9968,5.0031,4.9695,4.9462,4.9866,4.9627,4.9334,4.9224,4.9242,4.9269,4.9921,5.005,5.0196,5.0784,5.1114,5.1182,5.1613,5.1667,5.1433,5.1565,5.1713,5.1767,5.1731,5.1531,5.1314,5.1212,5.0698,5.0191,5.0372,5.0434,5.0138,4.9868,4.9598,4.9323,4.8797,4.8264,4.7627,4.6983,4.6388,4.577,4.5345,4.4973,4.4784,4.4668,4.4584,4.4584,4.4584,4.4584,4.4584,4.4584,4.4584,4.4584,4.4584,4.4584,4.4584,4.4584,4.4525,4.4267,4.3424,4.2785,4.2426,4.1739,4.0887,4.0627,4.0524,4.0151,3.9876,3.9907,3.9784,3.9337,3.9138,3.923,3.9153,3.9014,3.8999,4.9306,4.9325,4.9279,4.9221,4.9232,4.9174,4.9209,4.9232,4.9232,4.9229,4.9263,4.9252,4.9232,4.9089,4.9072,4.9209,4.9241,4.9165,4.9246,4.8959,4.9086,4.899,4.8915,4.8572,4.8957,4.8985,4.9407,5.039,5.05,5.1308,5.2105,5.2123,5.2656,5.2656,5.2252,5.2572,5.2359,5.1663,5.1267,5.0962,5.0438,5.0528,5.0857,5.07,5.0774,5.0784,5.0729,5.0747,5.082,5.0784,5.0857,5.0875,5.1334,5.1615,5.1831,5.1925,5.2291,5.2308,5.2202,5.2243,5.231,5.2371,5.248,5.2281,5.2063,5.1991,5.143,5.1097,5.1205,5.1058,5.0774,5.0467,5.0169,4.9715,4.9175,4.8763,4.8335,4.7612,4.6852,4.6312,4.5974,4.5565,4.5074,4.499,4.4821,4.4702,4.4584,4.4584,4.4584,4.4584,4.4584,4.4584,4.4584,4.4584,4.4584,4.457,4.4483,4.4047,4.3258,4.2599,4.2157,4.1409,4.0576,4.0489,4.0489,4.0489,4.0351,4.029,4.0261,4.0166,4.0074,4.032,4.0213,3.983,3.9722,4.9291,4.9268,4.9042,4.879,4.855,4.855,4.855,4.8532,4.8541,4.8702,4.8883,4.89,4.8799,4.8649,4.8733,4.8964,4.9344,4.9538,4.9802,5.0042,5.0043,4.9829,5.0076,4.9903,5.0021,5.0472,5.0986,5.1518,5.1995,5.2564,5.2884,5.2884,5.3196,5.2976,5.2829,5.3177,5.281,5.2207,5.2289,5.1977,5.1518,5.1371,5.1518,5.1316,5.1242,5.1353,5.1224,5.0912,5.0857,5.0839,5.1436,5.1958,5.259,5.271,5.272,5.2689,5.2692,5.2744,5.2751,5.2744,5.2799,5.2661,5.2625,5.2534,5.248,5.2498,5.2371,5.21,5.1807,5.1549,5.1329,5.1026,5.0683,5.0118,4.9472,4.918,4.888,4.8075,4.724,4.6887,4.6566,4.616,4.5635,4.5263,4.5091,4.4888,4.4668,4.4584,4.4584,4.4584,4.4584,4.4584,4.4584,4.4584,4.4584,4.457,4.4483,4.3929,4.3168,4.2505,4.1868,4.1175,4.0489,4.0489,4.0489,4.0489,4.0489,4.0474,4.0459,4.0489,4.0489,4.0489,4.0489,4.0197,4.0245,4.8847,4.8832,4.8667,4.8477,4.8325,4.8315,4.8315,4.8315,4.8315,4.8402,4.855,4.8559,4.8486,4.8453,4.8691,4.9068,4.9637,4.9996,5.0273,5.0665,5.093,5.0729,5.082,5.093,5.0692,5.1004,5.1646,5.2289,5.3067,5.3177,5.3159,5.3196,5.3196,5.3196,5.3196,5.3148,5.2994,5.2619,5.3031,5.2884,5.2491,5.2417,5.2352,5.2131,5.2113,5.215,5.2123,5.1867,5.1885,5.194,5.2362,5.2601,5.2994,5.3054,5.2994,5.2985,5.3046,5.3188,5.3187,5.3269,5.3403,5.3367,5.3512,5.3711,5.315,5.3114,5.2788,5.2462,5.1719,5.1389,5.1534,5.1363,5.109,5.0665,4.9599,4.8865,4.8422,4.7778,4.7192,4.687,4.6786,4.6938,4.6363,4.5669,4.5466,4.5246,4.5007,4.4685,4.4651,4.4736,4.4685,4.4668,4.4736,4.4635,4.4584,4.4556,4.4497,4.3841,4.303,4.2173,4.1409,4.0921,4.0489,4.0489,4.0489,4.0489,4.0489,4.0489,4.0489,4.0489,4.0489,4.0489,4.0505,4.052,4.0507,4.8335,4.8315,4.8324,4.8324,4.8315,4.8315,4.8315,4.8315,4.8315,4.8388,4.8555,4.8555,4.8471,4.8746,4.9197,4.9601,5.0078,5.072,5.0986,5.1232,5.1298,5.1489,5.1453,5.1269,5.1408,5.1591,5.205,5.2572,5.3177,5.3196,5.3196,5.3196,5.3196,5.3196,5.3196,5.3196,5.3086,5.3049,5.3177,5.3196,5.3177,5.3185,5.3067,5.3104,5.3196,5.3196,5.3177,5.3159,5.3159,5.3324,5.3269,5.3214,5.3177,5.3175,5.3251,5.3251,5.3571,5.3763,5.3962,5.4315,5.4472,5.4635,5.4852,5.4581,5.3899,5.3321,5.2995,5.2503,5.1762,5.1503,5.1648,5.1603,5.1356,5.07,4.9528,4.8658,4.8135,4.7663,4.7342,4.7005,4.7242,4.7498,4.7041,4.6314,4.5923,4.5703,4.5415,4.5041,4.4838,4.5007,4.506,4.5026,4.5043,4.4922,4.4668,4.4657,4.4663,4.3634,4.2785,4.1819,4.1022,4.0681,4.0489,4.0489,4.0489,4.0489,4.0489,4.0489,4.0489,4.0489,4.0489,4.0505,4.0582,4.063,4.063,4.8315,4.8315,4.8315,4.8315,4.8315,4.8315,4.8315,4.8315,4.8351,4.8673,4.9233,4.9344,4.9344,4.9344,4.9454,5.0041,5.1198,5.1646,5.2223,5.2664,5.2407,5.2553,5.2553,5.226,5.2645,5.2719,5.27,5.2994,5.3196,5.3196,5.3196,5.3196,5.3196,5.3214,5.3232,5.3269,5.3361,5.3453,5.3453,5.3453,5.3287,5.3251,5.3196,5.3196,5.3196,5.3196,5.3196,5.3196,5.3581,5.393,5.4124,5.382,5.3581,5.346,5.3631,5.3902,5.4214,5.4441,5.4748,5.5051,5.5178,5.4744,5.4768,5.4569,5.3761,5.279,5.2519,5.2303,5.1781,5.166,5.1699,5.1521,5.1247,5.0026,4.8829,4.8661,4.8342,4.8071,4.7817,4.78,4.7954,4.7988,4.7785,4.716,4.665,4.6464,4.6363,4.5988,4.5548,4.55,4.55,4.5483,4.5483,4.5058,4.4753,4.4877,4.4706,4.3635,4.2695,4.201,4.1328,4.0677,4.0489,4.0489,4.0489,4.0489,4.0489,4.0489,4.0489,4.0489,4.0489,4.052,4.0676,4.0922,4.1137]}]]